     2              OBSERVATION DATA    GPS                 RINEX VERSION / TYPE
ASHTORIN MIT 28 - OCT - 96 11:28                            PGM / RUN BY / DATE
                                                            COMMENT
--> THIS IS THE START OF A NEW SITE <---                    COMMENT
--> THIS IS THE START OF A NEW SITE <---                    COMMENT
Original Marker Name: GS19                                  COMMENT
Campaign Name: China Lake Nov 1996                          COMMENT
4-Character Station Name: GS19                              COMMENT
6-Character Antenna Code: ASHP12                            COMMENT
Vertical Measurement Point: TGP                             COMMENT
Vertical Offset to Rinex Ref. Point: 0.0640                 COMMENT
Radial Measurement Point: OOH                               COMMENT
Radial Offset to Rinex Ref. Point: 0.1318                   COMMENT
Antenna Height from Field Measurement: 0.7830 m             COMMENT
Additional Antenna Identification Info.:                    COMMENT
Ashtech L1/L2 Revision B (700228DE)                         COMMENT
Original XYZ: -2455781.9300 -4602727.8900 3658823.2300      COMMENT
New XYZ position is based on association with SCEC monument COMMENT
E1F4D6R5+0011. Position of that monument is believed to be  COMMENT
valid to within 1 m horizontally; vertical accuracy         COMMENT
should be no worse than 3-times this value.                 COMMENT
                                                            COMMENT
Revised Rinex header created by UCSD GPS archive for        COMMENT
GSAC on 01-Aug-2000 (2000:214) 04:18:36 GMT                 COMMENT
For assistance contact dagnew@ucsd.edu                      COMMENT
or anderson@python.ucsd.edu                                 COMMENT
                                                            COMMENT
SNORT A 1950                                                MARKER NAME
                                                            MARKER NUMBER
HEM US DEFENSE MAPPING AGENCY                               OBSERVER / AGENCY
434 ASHTECH Z-XII3 1G001C7                                  REC # / TYPE / VERS
103 ASHTECH GEODETIC P                                      ANT # / TYPE
 -2415084.7300 -4592334.8302  3697983.7270                  APPROX POSITION XYZ
        0.7078        0.0000        0.0000                  ANTENNA: DELTA H/E/N
     1     1     0                                          WAVELENGTH FACT L1/2
     7    L1    L2    C1    P1    P2    D1    D2            # / TYPES OF OBSERV
    30                                                      INTERVAL
  1996    10    17    15    23   30.000000                  TIME OF FIRST OBS
  1996    10    17    21    30   30.000000                  TIME OF LAST OBS
                                                            END OF HEADER
 96 10 17 15 23 30.0000000  0  7 17 28 26  6 23 22 21               -0.001839653
    -30311.44619    -11999.34558  17590114.850           0.0005   17590121.1435
      1074.338         837.146
    -78502.74719    -46566.90658  18445054.474           0.0005          0.0005
      2938.780        2289.958
     -9106.71219     -5313.25558  19066783.239           0.0005   19066790.4055
       329.754         256.951
     45736.61519     28130.92258  17762214.957           0.0005   17762221.2245
     -1374.855       -1071.316
    -50325.37819    -29857.95358  17931780.862           0.0005   17931787.7195
      1881.648        1466.219
    -13116.61419     -7467.17357  20375276.542           0.0005   20375281.9805
       466.936         363.846
    -91678.48219    -54006.00157  20570565.392           0.0005   20570571.7765
      3411.657        2658.434
 96 10 17 15 24  0.0000000  3  2
GS19                                                        MARKER NAME
--> THIS IS THE START OF A NEW SITE <---                    COMMENT
 96 10 17 15 24  0.0000000  0  7 17 28 26  6 23 22 21               -0.001849748
    -62422.683 9    -37021.08648  17584002.694    17584005.0875   17584010.5754
      1066.740         831.226
   -166487.634 9   -115126.50758  18428310.730           0.0004   18428316.6105
      2927.140        2280.888
    -18702.111 9    -12790.18648  19064957.245    19064959.8455   19064964.5034
       310.114         241.647
     87224.197 9     60458.88748  17770110.264    17770110.8805   17770116.0904
     -1390.696       -1083.659
   -106553.224 9    -73671.85148  17921080.332    17921082.6345   17921088.0034
      1867.260        1455.008
    -26887.194 9    -18197.50047  20372654.730    20372656.2445   20372661.5054
       451.354         351.704
   -193930.749 9   -133683.07647  20551105.191    20551108.1825   20551113.9714
      3405.301        2653.481
 96 10 17 15 24 30.0000000  0  7 17 28 26  6 23 22 21                0.000751567
    -94279.679 9    -61844.71948  20875658.697    20875659.9884   20875665.4154
      1057.855         824.303
   -254071.814 9   -183373.914 9  21709360.214    21709362.1481   21709366.883
      2913.851        2270.533
    -27676.059 9    -19782.87248  22360966.919    22360969.1594   22360973.8804
       288.316         224.662
    129189.355 9     93158.98948  21075811.674    21075813.6174   21075818.8674
     -1407.971       -1097.120
   -162309.748 9   -117118.48948  21208187.749    21208189.5714   21208194.9914
      1851.184        1442.481
    -40162.675 9    -28542.04147  23667846.964    23667847.0374   23667852.3054
       433.662         337.918
   -295926.771 9   -213160.47147  23829414.072    23829415.8914   23829421.7764
      3396.765        2646.830
 96 10 17 15 25  0.0000000  0  7 17 28 26  6 23 22 21                0.000741494
   -125885.212 9    -86472.40958  20869643.263    20869645.6775   20869651.1395
      1049.367         817.689
   -341286.127 9   -251333.11219  21692764.050    21692765.8421   21692770.5661
      2900.451        2260.092
    -35996.304 9    -26266.17758  22359384.861    22359385.9085   22359390.5735
       266.447         207.621
    171692.287 9    126278.13958  21083899.633    21083901.6455   21083906.9315
     -1425.570       -1110.834
   -217611.019 9   -160210.38558  21197666.970    21197666.1075   21197671.5585
      1835.698        1430.414
    -52907.064 9    -38472.73457  23665422.411    23665421.9325   23665427.0765
       415.991         324.149
   -397696.980 9   -292461.91557  23810049.096    23810049.6115   23810055.5555
      3387.879        2639.906
 96 10 17 15 25 30.0000000  0  7 17 28 26  6 23 22 21                0.000731471
   -157224.731 9   -110892.81748  20863679.889    20863681.9524   20863687.4314
      1039.989         810.381
   -428084.181 9   -318967.953 9  21676247.222    21676248.732    21676253.467
      2886.242        2249.020
    -43648.041 9    -32228.56848  22357928.409    22357929.8674   22357934.5154
       243.918         190.066
    214736.228 9    159818.85748  21092090.842    21092092.6634   21092097.9544
     -1443.743       -1124.995
   -272441.274 9   -202935.25548  21187232.098    21187232.2834   21187237.7284
      1819.952        1418.144
    -65102.457 9    -47975.65647  23663101.168    23663101.2304   23663106.3034
       397.104         309.432
   -499182.711 9   -371541.69347  23790736.576    23790737.5314   23790743.4734
      3378.044        2632.242
 96 10 17 15 26  0.0000000  0  7 17 28 26  6 23 22 21                0.000721535
   -188253.144 9   -135070.79548  20857775.698    20857777.4284   20857782.9294
      1028.753         801.626
   -514431.639 9   -386251.682 9  21659815.888    21659817.334    21659822.096
      2870.305        2236.601
    -50597.006 9    -37643.34348  22356605.802    22356607.5214   22356612.1954
       219.609         171.124
    258341.477 9    193796.95748  21100388.827    21100390.5044   21100395.7954
     -1463.207       -1140.161
   -326783.842 9   -245280.10448  21176890.668    21176891.2824   21176896.6854
      1803.036        1404.963
    -76694.151 9    -57008.14347  23660894.739    23660895.2944   23660900.5124
       375.654         292.717
   -600344.757 9   -450369.23947  23771486.153    23771487.0694   23771493.0514
      3366.163        2622.984
 96 10 17 15 26 30.0000000  0  7 17 28 26  6 23 22 21                0.000711706
   -218966.770 9   -159003.49348  20851931.051    20851932.7984   20851938.3454
      1018.421         793.575
   -600314.248 9   -453173.186 9  21643472.936    21643474.414    21643479.178
      2854.811        2224.528
    -56843.908 9    -42511.05348  22355417.040    22355418.7584   22355423.4784
       196.583         153.181
    302515.359 9    228218.14748  21108794.915    21108796.5594   21108801.8684
     -1482.116       -1154.896
   -380636.824 9   -287243.45948  21166642.630    21166643.4344   21166648.8124
      1786.796        1392.309
    -87645.680 9    -65541.79947  23658810.469    23658811.2024   23658816.5544
       353.964         275.816
   -701178.735 9   -528941.15147  23752298.137    23752299.0364   23752305.0214
      3355.921        2615.003
 96 10 17 15 27  0.0000000  0  7 17 28 26  6 23 22 21                0.000701968
   -249368.117 9   -182692.85248  20846146.021    20846147.6284   20846153.1844
      1007.933         785.402
   -685730.282 9   -519731.128 9  21627218.843    21627220.291    21627225.063
      2839.180        2212.348
    -62404.719 9    -46844.14648  22354358.831    22354360.5604   22354365.2964
       173.805         135.432
    347264.601 9    263087.66748  21117310.467    21117312.0954   21117317.4174
     -1501.571       -1170.055
   -434011.719 9   -328834.28148  21156485.551    21156486.5724   21156491.9334
      1771.082        1380.064
    -97949.331 9    -73570.62747  23656849.701    23656850.4534   23656855.9304
       332.732         259.272
   -801716.194 9   -607282.01347  23733166.440    23733167.4414   23733173.3874
      3346.229        2607.451
 96 10 17 15 27 30.0000000  0  7 17 28 26  6 23 22 21                0.000692315
   -279435.187 9   -206121.74048  20840424.494    20840426.0654   20840431.6154
       996.442         776.448
   -770664.395 9   -585913.549 9  21611056.476    21611057.899    21611062.638
      2823.052        2199.781
    -67271.553 9    -50636.48448  22353432.762    22353434.4674   22353439.1404
       150.693         117.423
    392603.502 9    298416.66548  21125938.160    21125939.8164   21125945.1444
     -1521.015       -1185.206
   -486894.848 9   -370041.90748  21146422.238    21146423.2834   21146428.6424
      1754.314        1366.998
   -107606.266 9    -81095.50447  23655012.023    23655012.7494   23655018.4234
       311.084         242.403
   -901954.713 9   -685389.93347  23714091.652    23714092.7074   23714098.6414
      3336.257        2599.681
 96 10 17 15 28  0.0000000  0  7 17 28 26  6 23 22 21                0.000682746
   -309143.542 9   -229271.10348  20834771.200    20834772.7914   20834778.3464
       984.125         766.851
   -855098.338 9   -651706.225 9  21594989.261    21594990.675    21594995.436
      2805.783        2186.324
    -71428.216 9    -53875.44648  22352641.650    22352643.5034   22352648.1224
       126.313          98.426
    438542.105 9    334212.96048  21134680.030    21134681.6574   21134687.0004
     -1541.673       -1201.304
   -539253.434 9   -410840.79848  21136458.666    21136459.7964   21136465.1524
      1736.116        1352.818
   -116603.389 9    -88106.24947  23653299.791    23653300.6664   23653306.4034
       288.784         225.026
  -1001874.485 9   -763249.47147  23695077.586    23695078.6364   23695084.5674
      3324.917        2590.844
 96 10 17 15 28 30.0000000  0  7 17 28 26  6 23 22 21                0.000673268
   -338483.442 9   -252133.36648  20829188.191    20829189.6264   20829195.1594
       972.017         757.416
   -939012.318 9   -717093.739 9  21579021.012    21579022.399    21579027.160
      2788.693        2173.008
    -74850.908 9    -56542.47548  22351990.387    22351992.2424   22351996.8564
       101.969          79.456
    485103.571 9    370494.60648  21143540.442    21143542.0314   21143547.3714
     -1562.163       -1217.270
   -591058.391 9   -451208.29248  21126600.435    21126601.6604   21126606.9934
      1717.589        1338.381
   -124943.539 9    -94605.06447  23651712.651    23651713.6134   23651719.2854
       267.557         208.486
  -1101453.745 9   -840843.67947  23676128.255    23676129.3444   23676135.2754
      3313.945        2582.295
 96 10 17 15 29  0.0000000  0  8 17 28  3 26  6 23 22 21             0.000663865
   -367450.877 9   -274705.39448  20823676.000    20823677.3374   20823682.8444
       959.309         747.514
  -1022407.993 9   -782077.378 9  21563151.327    21563152.742    21563157.517
      2771.065        2159.271
   -270595.14419   -197738.57454  25303508.063           0.0005          0.0005
      4068.668        3170.391
    -77532.487 9    -58632.01448  22351480.087    22351481.9914   22351486.6784
        76.942          59.955
    532280.600 9    407255.91248  21152517.944    21152519.5274   21152524.8784
     -1582.887       -1233.418
   -642293.421 9   -491131.68248  21116850.727    21116851.9824   21116857.3014
      1698.011        1323.125
   -132652.092 9   -100611.72447  23650245.790    23650246.7034   23650252.3894
       246.545         192.113
  -1200689.815 9   -918170.46647  23657244.270    23657245.3534   23657251.2804
      3301.732        2572.778
 96 10 17 15 29 30.0000000  0  8 17 28  3 26  6 23 22 21             0.000654537
   -396043.034 9   -296985.00148  20818235.020    20818236.4324   20818241.9054
       946.804         737.769
  -1105279.634 9   -846652.682 9  21547381.391    21547382.780    21547387.567
      2753.601        2145.663
   -392565.166 9   -292779.94455  25280299.336           0.0004   25280304.0525
      4062.451        3165.546
    -79467.924 9    -60140.14948  22351111.901    22351113.7214   22351118.4144
        52.017          40.533
    580062.069 9    444488.20348  21161610.511    21161612.0844   21161617.4194
     -1602.656       -1248.823
   -692936.547 9   -530593.85548  21107213.667    21107214.9414   21107220.2634
      1678.228        1307.710
   -139735.834 9   -106131.52447  23648897.760    23648898.7084   23648904.4664
       225.579         175.776
  -1299551.909 9   -995205.84347  23638431.518    23638432.5494   23638438.4894
      3288.927        2562.800
 96 10 17 15 30  0.0000000  0  8 17 28  3 26  6 23 22 21             0.000645300
   -424265.809 9   -318976.77148  20812864.399    20812865.8564   20812871.3024
       934.672         728.316
  -1187623.049 9   -910816.380 9  21531711.940    21531713.376    21531718.148
      2735.996        2131.945
   -514338.172 9   -387668.02345  25257125.770    25257126.1375   25257131.2834
      4055.585        3160.196
    -80647.357 9    -61059.19048  22350887.559    22350889.3024   22350893.9324
        26.740          20.836
    628443.060 9    482187.66048  21170817.140    21170818.7334   21170824.0574
     -1622.713       -1264.452
   -742991.069 9   -569597.37348  21097688.558    21097689.8844   21097695.1944
      1658.913        1292.659
   -146186.828 9   -111158.27747  23647670.157    23647671.1614   23647676.9764
       204.484         159.338
  -1398027.898 9  -1071940.36447  23619692.166    23619693.2444   23619699.1524
      3276.318        2552.975
 96 10 17 15 30 30.0000000  0  8 17 28  3 26  6 23 22 21             0.000636150
   -452125.795 9   -340685.85348  20807562.951    20807564.3104   20807569.7454
       923.275         719.435
  -1269441.597 9   -974571.090 9  21516142.396    21516143.848    21516148.576
      2719.243        2118.891
   -635895.948 9   -482388.38955  25233993.445    25233993.7204   25233999.1765
      4049.014        3155.076
    -81074.701 9    -61392.18948  22350806.244    22350807.9684   22350812.5134
         2.515           1.960
    677421.317 9    520352.51448  21180137.418    21180139.0324   21180144.3274
     -1641.872       -1279.381
   -792477.691 9   -608158.36748  21088271.589    21088272.8954   21088278.1994
      1640.884        1278.611
   -152011.344 9   -115696.85747  23646561.895    23646562.8324   23646568.6644
       184.400         143.688
  -1496145.486 9  -1148395.61347  23601020.923    23601022.0954   23601027.9804
      3265.625        2544.643
 96 10 17 15 31  0.0000000  0  8 17 28  3 26  6 23 22 21             0.000627072
   -479647.667 9   -362131.46548  20802325.916    20802327.0934   20802332.5064
       911.856         710.537
  -1350759.558 9  -1037935.730 9  21500668.125    21500669.593    21500674.272
      2702.173        2105.589
   -757267.447 9   -576963.58245  25210896.621    25210898.6075   25210903.0154
      4042.842        3150.266
    -80781.374 9    -61163.62848  22350862.132    22350863.8204   22350868.3274
       -21.744         -16.943
    726968.221 9    558960.47548  21189565.899    21189567.4724   21189572.7914
     -1661.021       -1294.302
   -841438.007 9   -646309.25348  21078954.741    21078956.0754   21078961.3954
      1623.538        1265.095
   -157231.086 9   -119764.19247  23645568.650    23645569.5554   23645575.3224
       163.867         127.689
  -1593943.397 9  -1224601.76847  23582410.547    23582411.7734   23582417.6704
      3254.435        2535.923
 96 10 17 15 31 30.0000000  0  8 17 28  3 26  6 23 22 21             0.000618098
   -506813.026 9   -383299.27448  20797156.453    20797157.6824   20797163.0984
       898.756         700.329
  -1431553.474 9  -1100892.023 9  21485293.617    21485295.038    21485299.710
      2683.630        2091.140
   -878452.995 9   -671393.88345  25187835.602    25187837.2374   25187842.3434
      4035.818        3144.793
    -79747.596 9    -60358.09248  22351058.860    22351060.5654   22351065.1124
       -47.539         -37.043
    777099.623 9    598023.88648  21199105.610    21199107.1924   21199112.5094
     -1681.526       -1310.280
   -889881.865 9   -684057.71148  21069736.211    21069737.5234   21069742.8384
      1605.681        1251.180
   -161820.169 9   -123340.10347  23644695.322    23644696.2524   23644701.9184
       141.587         110.328
  -1691402.487 9  -1300543.89447  23563864.661    23563865.9094   23563871.8504
      3242.451        2526.585
 96 10 17 15 32  0.0000000  0  8 17 28  3 26  6 23 22 21             0.000609227
   -533622.582 9   -404189.84348  20792054.667    20792056.0034   20792061.4064
       888.173         692.083
  -1511824.806 9  -1163441.113 9  21470018.531    21470019.885    21470024.611
      2667.411        2078.502
   -999466.149 9   -765689.84345  25164807.247    25164809.1204   25164814.4674
      4031.391        3141.344
    -77981.933 9    -58982.25848  22351394.760    22351396.5234   22351401.1274
       -70.399         -54.856
    827822.534 9    637548.21348  21208757.851    21208759.4714   21208764.7884
     -1700.323       -1324.927
   -937825.005 9   -721415.99848  21060612.900    21060614.2694   21060619.5864
      1590.032        1238.986
   -165770.576 9   -126418.34347  23643943.532    23643944.4904   23643950.1614
       121.462          94.646
  -1788547.768 9  -1376241.49847  23545378.587    23545379.7824   23545385.7584
      3233.486        2519.599
 96 10 17 15 32 30.0000000  0  8 17 28  3 26  6 23 22 21             0.000600435
   -560099.767 9   -424821.41948  20787016.142    20787017.5724   20787022.9664
       877.041         683.409
  -1591589.681 9  -1225595.559 9  21454839.707    21454841.114    21454845.883
      2650.308        2065.175
  -1120334.450 9   -859872.92946  25141806.628    25141808.6154   25141814.0994
      4026.669        3137.664
    -75515.028 9    -57059.99948  22351864.124    22351866.0264   22351870.5394
       -93.998         -73.245
    879119.044 9    677519.49948  21218519.274    21218520.8984   21218526.2454
     -1719.384       -1339.780
   -985275.519 9   -758390.42348  21051583.393    21051584.7514   21051590.0494
      1573.354        1225.990
   -169100.888 9   -129013.40447  23643309.847    23643310.8094   23643316.5134
       100.674          78.447
  -1885396.621 9  -1451708.12047  23526948.762    23526950.0254   23526956.0574
      3222.857        2511.317
 96 10 17 15 33  0.0000000  0  8 17 28  3 26  6 23 22 21             0.000591733
   -586252.821 9   -445200.42348  20782039.304    20782040.8384   20782046.1984
       866.024         674.824
  -1670852.125 9  -1287358.500 9  21439756.506    21439757.948    21439762.772
      2633.355        2051.965
  -1241085.013 9   -953964.26946  25118828.847    25118830.6464   25118836.1384
      4022.690        3134.564
    -72353.081 9    -54596.15848  22352465.952    22352467.8014   22352472.1964
      -117.273         -91.382
    930971.267 9    717923.81448  21228386.464    21228388.0764   21228393.4264
     -1737.933       -1354.234
  -1032237.288 9   -794984.00048  21042646.904    21042648.2234   21042653.5354
      1556.815        1213.102
   -171819.892 9   -131132.10047  23642792.586    23642793.4814   23642799.1574
        80.089          62.407
  -1981917.353 9  -1526919.05647  23508581.372    23508582.7394   23508588.8154
      3211.436        2502.418
 96 10 17 15 33 30.0000000  0  8 17 28  3 26  6 23 22 21             0.000583107
   -612091.150 9   -465334.19248  20777122.444    20777124.0154   20777129.3264
       856.259         667.215
  -1749621.708 9  -1348737.396 9  21424767.177    21424768.626    21424773.427
      2617.638        2039.718
  -1361714.033 9  -1047960.88946  25095874.255    25095875.6884   25095881.3454
      4018.886        3131.599
    -68510.814 9    -51602.19348  22353197.068    22353198.9414   22353203.2884
      -139.116        -108.402
    983371.003 9    758754.75948  21238357.841    21238359.4314   21238364.7574
     -1755.735       -1368.105
  -1078704.843 9   -831192.47848  21033804.389    21033805.7544   21033811.0744
      1540.597        1200.465
   -173935.112 9   -132780.33547  23642390.016    23642390.9424   23642396.6494
        60.582          47.207
  -2078113.897 9  -1601877.38747  23490275.807    23490277.2024   23490283.2084
      3201.255        2494.484
 96 10 17 15 34  0.0000000  0  8 17 28  3 26  6 23 22 21             0.000574537
   -637628.125 9   -485233.13848  20772262.963    20772264.5214   20772269.7654
       846.293         659.449
  -1827906.661 9  -1409738.658 9  21409870.089    21409871.537    21409876.279
      2601.481        2027.128
  -1482213.511 9  -1141856.57346  25072944.106    25072945.3564   25072951.1304
      4014.487        3128.172
    -64008.033 9    -48093.53548  22354053.948    22354055.7904   22354060.1554
      -160.974        -125.434
   1036317.583 9    800011.81248  21248433.269    21248434.8564   21248440.1904
     -1773.849       -1382.220
  -1124661.248 9   -867002.66048  21025059.227    21025060.5524   21025065.8794
      1523.392        1187.059
   -175458.049 9   -133967.04147  23642100.213    23642101.1424   23642106.7804
        41.224          32.123
  -2173980.791 9  -1676578.84647  23472033.029    23472034.3794   23472040.3364
      3189.928        2485.658
 96 10 17 15 34 30.0000000  0  8 17 28  3 26  6 23 22 21             0.000566029
   -662849.394 9   -504886.07948  20767463.535    20767465.0694   20767470.2864
       835.378         650.944
  -1905693.494 9  -1470351.769 9  21395067.820    21395069.209    21395073.906
      2584.669        2014.028
  -1602565.263 9  -1235637.14446  25050041.949    25050043.2164   25050048.8684
      4009.232        3124.077
    -58830.959 9    -44059.45348  22355039.179    22355040.9964   22355045.3684
      -183.871        -143.276
   1089817.154 9    841699.76848  21258613.940    21258615.4984   21258620.8444
     -1792.502       -1396.755
  -1170095.299 9   -902405.81248  21016413.362    21016414.7654   21016420.0564
      1506.025        1173.526
   -176395.451 9   -134697.48147  23641921.885    23641922.8094   23641928.3584
        21.679          16.893
  -2269488.783 9  -1751000.63147  23453858.428    23453859.8184   23453865.7594
      3177.748        2476.167
 96 10 17 15 35  0.0000000  0  8 17 28  3 26  6 23 22 21             0.000557574
   -687755.176 9   -524293.18248  20762724.184    20762725.6784   20762730.8744
       824.593         642.540
  -1982992.275 9  -1530584.583 9  21380358.310    21380359.741    21380364.398
      2568.123        2001.135
  -1722766.755 8  -1329300.63146  25027168.157    25027169.5274   25027175.2734
      4003.591        3119.681
    -52986.228 9    -39505.12248  22356151.457    22356153.2954   22356157.6394
      -206.169        -160.651
   1143869.812 9    883818.70548  21268899.817    21268901.4104   21268906.7634
     -1811.373       -1411.459
  -1215025.315 9   -937416.20848  21007863.497    21007864.8984   21007870.1424
      1488.896        1160.179
   -176764.845 9   -134985.32947  23641851.595    23641852.5214   23641858.0914
         2.516           1.961
  -2364662.078 9  -1825161.63147  23435747.509    23435748.9034   23435754.8524
      3166.877        2467.696
 96 10 17 15 35 30.0000000  0  8 17 28  3 26  6 23 22 21             0.000549146
   -712361.243 9   -543466.74748  20758041.806    20758043.3234   20758048.4824
       815.292         635.292
  -2059811.216 9  -1590443.496 9  21365740.133    21365741.557    21365746.210
      2552.530        1988.984
  -1842808.062 8  -1422839.29646  25004324.635    25004326.4294   25004332.1874
      3998.685        3115.858
    -46493.836 9    -34446.12448  22357386.961    22357388.8044   22357393.1274
      -227.257        -177.083
   1198468.887 9    926363.42048  21279289.720    21279291.3284   21279296.6574
     -1829.115       -1425.284
  -1259461.003 9   -972041.41648  20999407.740    20999409.1074   20999414.3364
      1473.066        1147.844
   -176583.405 9   -134843.96147  23641886.183    23641887.0544   23641892.7394
       -15.219         -11.859
  -2459538.714 9  -1899091.46247  23417693.171    23417694.4454   23417700.3854
      3157.578        2460.450
 96 10 17 15 36  0.0000000  0  8 17 28  3 26  6 23 22 21             0.000540752
   -736678.247 9   -562415.06448  20753414.463    20753415.9574   20753421.1224
       806.087         628.120
  -2136148.056 9  -1649926.745 9  21351213.686    21351215.121    21351219.808
      2536.849        1976.765
  -1962698.042 8  -1516260.03246  24981510.395    24981512.1394   24981517.8784
      3994.205        3112.368
    -39353.793 9    -28882.45948  22358745.708    22358747.5074   22358751.8304
      -248.545        -193.671
   1253603.842 9    969325.70348  21289781.579    21289783.2084   21289788.5274
     -1846.228       -1438.619
  -1303418.661 9  -1006294.13148  20991042.926    20991044.2664   20991049.4974
      1457.878        1136.009
   -175861.821 9   -134281.69147  23642023.507    23642024.3264   23642030.0604
       -32.639         -25.433
  -2554125.462 9  -1972795.39647  23399693.862    23399695.1994   23399701.0914
      3148.610        2453.462
 96 10 17 15 36 30.0000000  0  8 17 28  3 26  6 23 22 21             0.000532389
   -760719.375 9   -581148.41948  20748839.533    20748841.1124   20748846.2514
       796.687         620.795
  -2212013.484 9  -1709042.665 9  21336777.028    21336778.432    21336783.113
      2520.814        1964.271
  -2082450.120 8  -1609573.31646  24958722.263    24958724.0724   24958729.7744
      3989.255        3108.510
    -31567.969 9    -22815.58648  22360227.367    22360229.1174   22360233.3684
      -270.507        -210.785
   1309253.076 9   1012688.72148  21300371.250    21300372.9254   21300378.2284
     -1863.618       -1452.170
  -1346925.447 9  -1040195.51848  20982763.775    20982765.2124   20982770.4174
      1442.562        1124.074
   -174612.272 9   -133308.02847  23642261.333    23642262.1694   23642267.7584
       -50.701         -39.507
  -2648457.061 9  -2046300.52547  23381743.155    23381744.5274   23381750.3454
      3140.101        2446.832
 96 10 17 15 37  0.0000000  0  8 17 28  3 26  6 23 22 21             0.000524064
   -784484.993 9   -599667.08448  20744317.128    20744318.6954   20744323.8234
       787.652         613.755
  -2287396.012 9  -1767782.292 9  21322432.262    21322433.644    21322438.309
      2504.651        1951.676
  -2202052.919 8  -1702770.28746  24935962.414    24935964.4734   24935970.1674
      3984.350        3104.688
    -23130.645 9    -16241.05148  22361833.085    22361834.7194   22361838.9504
      -291.966        -227.506
   1365415.928 9   1056451.96448  21311058.709    21311060.3874   21311065.6954
     -1880.431       -1465.271
  -1389973.654 9  -1073739.56948  20974572.041    20974573.4444   20974578.6134
      1427.259        1112.150
   -172816.440 9   -131908.68047  23642603.122    23642603.9494   23642609.4604
       -69.068         -53.819
  -2742534.121 9  -2119607.31147  23363840.947    23363842.3064   23363848.0754
      3131.523        2440.148
 96 10 17 15 37 30.0000000  0  8 17 28  3 26  6 23 22 21             0.000515771
   -808001.698 9   -617991.79748  20739842.088    20739843.6474   20739848.7794
       779.664         607.530
  -2362310.615 9  -1826157.306 9  21308176.558    21308177.904    21308182.540
      2489.438        1939.822
  -2321535.129 8  -1795873.27546  24913225.472    24913227.6764   24913233.4774
      3980.897        3101.998
    -14068.992 9     -9180.02948  22363557.489    22363559.1244   22363563.3914
      -312.402        -243.430
   1422059.820 9   1100590.04248  21321837.731    21321839.3884   21321844.6764
     -1896.146       -1477.516
  -1432580.024 9  -1106939.33648  20966464.359    20966465.7034   20966470.8654
      1412.915        1100.973
   -170486.710 9   -130093.30747  23643046.421    23643047.2944   23643052.8534
       -86.562         -67.451
  -2836357.036 9  -2192716.07247  23345987.136    23345988.4504   23345994.1804
      3122.978        2433.489
 96 10 17 15 38  0.0000000  0  8 17 28  3 26  6 23 22 21             0.000507507
   -831254.206 9   -636110.63748  20735417.330    20735418.8434   20735423.9674
       770.573         600.446
  -2436767.946 9  -1884176.005 9  21294007.837    21294009.159    21294013.756
      2474.573        1928.239
  -2440913.431 8  -1888895.29246  24890508.267    24890510.6114   24890516.5294
      3977.791        3099.577
     -4389.568 9     -1637.61848  22365399.379    22365401.0614   22365405.4254
      -332.656        -259.212
   1479179.455 9   1145098.82948  21332707.294    21332708.9014   21332714.1924
     -1911.612       -1489.568
  -1474747.567 9  -1139797.15448  20958440.121    20958441.4784   20958446.6264
      1398.475        1089.721
   -167625.378 9   -127863.70147  23643590.809    23643591.7564   23643597.4004
      -103.907         -80.966
  -2929915.515 9  -2265618.77147  23328183.611    23328184.8804   23328190.5704
      3114.365        2426.778
 96 10 17 15 38 30.0000000  0  8 17 28  3 26  6 23 22 21             0.000499266
   -854217.096 9   -654003.80248  20731047.818    20731049.1944   20731054.2804
       760.626         592.696
  -2510767.541 9  -1941838.024 9  21279926.125    21279927.481    21279932.059
      2458.958        1916.071
  -2560178.637 8  -1981829.18345  24867812.839    24867815.1554   24867821.0724
      3973.408        3096.162
      5906.530 9      6385.31548  22367358.637    22367360.3464   22367364.6894
      -353.441        -275.409
   1536776.533 9   1189979.64748  21343667.713    21343669.3054   21343674.5794
     -1927.862       -1502.230
  -1516467.944 9  -1172306.53248  20950500.941    20950502.3454   20950507.4794
      1383.096        1077.737
   -164232.650 9   -125220.03047  23644236.348    23644237.3694   23644243.0304
      -122.036         -95.093
  -3023195.584 9  -2338304.53147  23310432.968    23310434.2594   23310439.8904
      3104.526        2419.111
 96 10 17 15 39  0.0000000  0  8 17 28  3 26  6 23 22 21             0.000491043
   -876896.675 9   -671676.20348  20726732.096    20726733.4264   20726738.5224
       751.197         585.348
  -2584315.431 9  -1999148.065 9  21265930.361    21265931.772    21265936.317
      2444.069        1904.469
  -2679325.611 8  -2074670.93046  24845139.855    24845142.2264   24845148.1534
      3969.602        3093.196
     16803.318 9     14876.31448  22369432.191    22369433.9694   22369438.2164
      -373.221        -290.822
   1594843.059 9   1235226.27148  21354717.437    21354719.0094   21354724.3024
     -1943.427       -1514.359
  -1557743.178 9  -1204469.04548  20942646.525    20942647.9094   20942653.0424
      1368.389        1066.277
   -160318.041 9   -122169.68947  23644981.222    23644982.3014   23644987.9314
      -138.981        -108.297
  -3116187.163 9  -2410765.49647  23292737.288    23292738.5274   23292744.1724
      3094.798        2411.531
 96 10 17 15 39 30.0000000  0  8 17 28  3 26  6 23 22 21             0.000482831
   -899287.626 9   -689123.70148  20722471.262    20722472.5864   20722477.6914
       741.264         577.608
  -2657418.664 9  -2056111.623 9  21252019.327    21252020.698    21252025.202
      2429.131        1892.829
  -2798355.485 8  -2167421.45946  24822489.242    24822491.5554   24822497.4474
      3965.403        3089.924
     28300.809 9     23835.39248  22371620.026    22371621.8624   22371626.0744
      -393.580        -306.686
   1653378.612 9   1280838.37348  21365856.361    21365857.9774   21365863.2834
     -1959.258       -1526.695
  -1598577.790 9  -1236288.21448  20934875.898    20934877.3454   20934882.4484
      1353.646        1054.789
   -155904.272 9   -118730.38347  23645821.253    23645822.2694   23645827.7724
      -155.619        -121.262
  -3208890.422 9  -2483001.79447  23275096.522    23275097.7164   23275103.3484
      3085.261        2404.099
 96 10 17 15 40  0.0000000  0  8 17 28  3 26  6 23 22 21             0.000474586
   -921400.895 9   -706354.82448  20718263.110    20718264.5664   20718269.6924
       732.424         570.720
  -2730086.723 9  -2112736.082 9  21238191.063    21238192.477    21238196.930
      2414.420        1881.366
  -2917267.422 8  -2260080.08346  24799860.995    24799863.3454   24799869.1684
      3961.241        3086.681
     40397.450 9     33261.34448  22373921.961    22373923.7744   22373928.0504
      -413.671        -322.341
   1712369.356 9   1326805.16448  21377081.984    21377083.5604   21377088.8544
     -1974.322       -1538.433
  -1638987.064 9  -1267775.95748  20927186.271    20927187.7254   20927192.8204
      1339.544        1043.801
   -151009.070 9   -114915.94847  23646752.900    23646753.8224   23646759.2404
      -171.601        -133.715
  -3301333.803 9  -2555035.58947  23257505.109    23257506.3564   23257511.9904
      3076.710        2397.436
 96 10 17 15 40 30.0000000  0  8 17 28  3 26  6 23 22 21             0.000466410
   -943266.250 9   -723392.76648  20714102.260    20714103.7294   20714108.8614
       725.691         565.474
  -2802294.223 9  -2169001.665 9  21224450.516    21224451.885    21224456.340
      2399.667        1869.870
  -3036039.425 9  -2352629.67846  24777259.520    24777261.8944   24777267.6254
      3957.193        3083.527
     53110.168 9     43167.35948  22376341.105    22376342.9404   22376347.2834
      -433.605        -337.874
   1771824.621 9   1373133.92448  21388395.929    21388397.5544   21388402.8094
     -1989.114       -1549.959
  -1678967.186 9  -1298929.29448  20919578.362    20919579.8014   20919584.8754
      1326.016        1033.259
   -145621.614 9   -110717.93047  23647777.987    23647779.0064   23647784.4744
      -187.361        -145.996
  -3393508.070 9  -2626859.68447  23239964.945    23239966.2264   23239971.8464
      3068.572        2391.095
 96 10 17 15 41  0.0000000  0  8 17 28  3 26  6 23 22 21             0.000458254
   -964937.637 9   -740279.56148  20709978.469    20709979.8294   20709984.9614
       719.059         560.306
  -2874061.576 9  -2224924.277 9  21210793.628    21210795.043    21210799.503
      2384.891        1858.357
  -3154703.786 9  -2445095.38746  24754678.362    24754680.7744   24754686.5494
      3954.012        3081.048
     66421.915 9     53540.15048  22378874.172    22378876.1174   22378880.4574
      -453.737        -353.561
   1831725.227 9   1419809.70148  21399794.669    21399796.2794   21399801.5254
     -2004.050       -1561.597
  -1718547.066 9  -1329770.75048  20912046.582    20912048.0034   20912053.0994
      1312.779        1022.945
   -139769.928 9   -106158.19047  23648891.487    23648892.5594   23648898.0604
      -202.752        -157.989
  -3485448.363 9  -2698501.46147  23222469.225    23222470.5704   23222476.1934
      3060.945        2385.152
 96 10 17 15 41 30.0000000  0  8 17 28  3 26  6 23 22 21             0.000450111
   -986414.722 9   -757014.95548  20705891.575    20705892.9204   20705898.0284
       712.534         555.221
  -2945392.008 9  -2280506.433 9  21197219.936    21197221.325    21197225.789
      2370.248        1846.946
  -3273286.442 9  -2537497.43146  24732113.154    24732115.2824   24732120.9444
      3951.254        3078.899
     80329.943 9     64377.57148  22381520.829    22381522.7014   22381527.0254
      -473.573        -369.018
   1892054.637 9   1466819.61148  21411275.029    21411276.6064   21411281.8424
     -2018.088       -1572.536
  -1757741.047 9  -1360311.50448  20904588.241    20904589.6394   20904594.7564
      1299.941        1012.941
   -133457.707 9   -101239.57947  23650092.730    23650093.7814   23650099.2714
      -218.348        -170.141
  -3577176.787 9  -2769978.14747  23205013.770    23205015.1804   23205020.7824
      3053.944        2379.697
 96 10 17 15 42  0.0000000  0  8 17 28  3 26  6 23 22 21             0.000441980
  -1007698.231 9   -773599.51248  20701841.416    20701842.8454   20701847.9204
       706.284         550.351
  -3016278.711 9  -2335742.823 9  21183730.657    21183732.051    21183736.470
      2355.576        1835.514
  -3391782.469 9  -2629831.97846  24709564.438    24709566.1984   24709571.7114
      3948.523        3076.771
     94829.901 9     75676.24148  22384279.981    22384281.9234   22384286.2464
      -492.970        -384.132
   1952805.484 9   1514157.91548  21422835.625    21422837.1754   21422842.4234
     -2031.977       -1583.359
  -1796548.623 9  -1390551.17148  20897203.398    20897204.8054   20897209.9084
      1287.201        1003.014
   -126669.766 9    -95950.26947  23651384.432    23651385.4644   23651390.9024
      -234.077        -182.398
  -3668687.930 9  -2841285.52147  23187599.833    23187601.1894   23187606.7704
      3046.868        2374.183
 96 10 17 15 42 30.0000000  0  8 17 28  3 26  6 23 22 21             0.000433858
  -1028771.521 9   -790020.25748  20697831.498    20697832.7554   20697837.7924
       698.533         544.311
  -3086719.760 9  -2390631.953 9  21170326.191    21170327.586    21170331.941
      2340.735        1823.949
  -3510185.233 9  -2722093.84546  24687033.183    24687034.8884   24687040.4924
      3945.137        3074.133
    109919.449 9     87434.33048  22387151.521    22387153.3784   22387157.7224
      -512.726        -399.527
   2013983.460 9   1561829.04248  21434477.423    21434478.9404   21434484.2254
     -2046.271       -1594.497
  -1834962.167 9  -1420483.79948  20889893.616    20889894.9914   20889900.0494
      1273.740         992.525
   -119400.984 9    -90286.28547  23652767.609    23652768.6714   23652773.9974
      -250.267        -195.013
  -3759984.353 9  -2912425.58647  23170226.639    23170228.0324   23170233.5634
      3039.865        2368.726
 96 10 17 15 43  0.0000000  0  8 17 28  3 26  6 23 22 21             0.000425728
  -1049592.201 9   -806244.16748  20693869.419    20693870.7284   20693875.7344
       689.493         537.267
  -3156723.110 9  -2445180.015 9  21157005.058    21157006.427    21157010.716
      2326.141        1812.577
  -3628490.694 9  -2814279.90246  24664520.550    24664522.2024   24664527.6724
      3941.967        3071.663
    125592.193 9     99646.85748  22390134.097    22390135.8384   22390140.2024
      -531.757        -414.356
   2075584.175 9   1609829.58248  21446199.668    21446201.1874   21446206.4794
     -2060.222       -1605.368
  -1872975.231 9  -1450104.36248  20882660.033    20882661.3544   20882666.4114
      1260.609         982.293
   -111656.189 9    -84251.38547  23654241.579    23654242.4244   23654247.8314
      -266.019        -207.288
  -3851080.283 9  -2983409.41447  23152891.630    23152893.0774   23152898.5424
      3033.092        2363.448
 96 10 17 15 43 30.0000000  0  8 17 28  3 26  6 23 22 21             0.000417571
  -1070145.888 9   -822260.02948  20689958.145    20689959.5024   20689964.5164
       680.634         530.364
  -3226294.717 9  -2499391.655 9  21143766.023    21143767.423    21143771.706
      2311.560        1801.216
  -3746699.770 9  -2906390.85146  24642026.388    24642027.8684   24642033.1784
      3938.100        3068.649
    141813.889 9    112287.14148  22393221.074    22393222.7534   22393227.1334
      -550.017        -428.585
   2137586.144 9   1658142.78548  21457998.280    21457999.8014   21458005.0944
     -2073.782       -1615.934
  -1910598.644 9  -1479421.30248  20875500.510    20875501.8344   20875506.9224
      1247.255         971.887
   -103443.169 9    -77851.63947  23655804.651    23655805.3714   23655810.7534
      -281.779        -219.568
  -3941971.813 9  -3054233.96547  23135595.633    23135597.0044   23135602.4834
      3025.785        2357.755
 96 10 17 15 44  0.0000000  0  8 17 28  3 26  6 23 22 21             0.000409394
  -1090449.263 9   -838080.84348  20686094.628    20686095.8854   20686100.9144
       672.643         524.137
  -3295433.231 9  -2553265.822 9  21130609.388    21130610.819    21130615.126
      2297.291        1790.097
  -3864800.583 9  -2998417.43946  24619552.558    24619554.0964   24619559.3874
      3934.936        3066.184
    158577.364 9    125349.58348  22396410.951    22396412.7484   22396417.1504
      -567.930        -442.543
   2200000.425 9   1706777.27248  21469875.309    21469876.8724   21469882.1764
     -2087.525       -1626.643
  -1947828.309 9  -1508431.42748  20868415.919    20868417.2724   20868422.3894
      1234.332         961.817
    -94768.023 9    -71091.79547  23657455.464    23657456.1974   23657461.6154
      -296.827        -231.294
  -4032645.041 9  -3124888.42247  23118341.081    23118342.4624   23118347.9654
      3018.782        2352.298
 96 10 17 15 44 30.0000000  0  8 17 28  3 26  6 23 22 21             0.000401201
  -1110505.924 9   -853709.41248  20682277.940    20682279.2574   20682284.2754
       664.876         518.085
  -3364132.764 9  -2606797.927 9  21117536.363    21117537.737    21117542.078
      2282.812        1778.815
  -3982801.188 9  -3090365.94146  24597097.562    24597099.2714   24597104.7224
      3932.023        3063.914
    175892.967 9    138842.26348  22399705.852    22399707.8144   22399712.2284
      -586.203        -456.781
   2262834.561 9   1755738.92148  21481832.313    21481833.8584   21481839.1644
     -2101.136       -1637.249
  -1984661.153 9  -1537132.33748  20861406.882    20861408.2364   20861413.3514
      1221.447         951.777
    -85635.424 9    -63975.48247  23659193.218    23659194.0554   23659199.4354
      -311.717        -242.896
  -4123091.343 9  -3195366.03947  23101129.804    23101131.1364   23101136.6464
      3010.978        2346.217
 96 10 17 15 45  0.0000000  0  8 17 28  3 26  6 23 22 21             0.000392990
  -1130353.492 9   -869175.05148  20678501.200    20678502.4054   20678507.4044
       658.323         512.979
  -3432405.540 9  -2659997.495 9  21104544.434    21104545.857    21104550.213
      2268.519        1767.677
  -4100731.553 9  -3182259.71546  24574656.096    24574657.8374   24574663.3994
      3929.927        3062.281
    193742.789 9    152751.21548  22403102.635    22403104.5504   22403108.9294
      -603.947        -470.608
   2326060.431 9   1805005.80848  21493863.905    21493865.3884   21493870.7014
     -2114.037       -1647.302
  -2021128.150 9  -1565548.17848  20854467.506    20854468.7904   20854473.9114
      1209.647         942.582
    -76074.625 9    -56525.51247  23661012.579    23661013.4104   23661018.7394
      -325.833        -253.896
  -4213304.160 9  -3265661.72847  23083962.913    23083964.2034   23083969.7024
      3003.069        2340.054
 96 10 17 15 45 30.0000000  0  8 17 28  3 26  6 23 22 21             0.000384774
  -1150018.478 9   -884498.41948  20674758.926    20674760.2764   20674765.3074
       652.559         508.488
  -3500246.095 9  -2712860.265 9  21091634.791    21091636.235    21091640.597
      2254.083        1756.428
  -4218595.672 9  -3274101.87246  24552227.462    24552229.0124   24552234.5834
      3927.547        3060.426
    212137.649 9    167084.86448  22406602.967    22406604.9944   22406609.3624
      -622.646        -485.179
   2389674.771 9   1854575.39848  21505969.333    21505970.7914   21505976.1614
     -2127.138       -1657.510
  -2057235.156 9  -1593683.50248  20847596.552    20847597.8574   20847602.9804
      1197.351         933.001
    -66081.889 9    -48738.96547  23662914.165    23662914.9644   23662920.3284
      -340.367        -265.221
  -4303278.666 9  -3335771.72547  23066841.441    23066842.6364   23066848.0954
      2995.238        2333.952
 96 10 17 15 46  0.0000000  0  8 17 28  3 26  6 23 22 21             0.000376563
  -1169504.358 9   -899682.22548  20671051.047    20671052.2344   20671057.2874
       646.526         503.786
  -3567646.699 9  -2765380.220 9  21078808.927    21078810.352    21078814.688
      2239.414        1744.998
  -4336385.532 9  -3365886.17346  24529812.532    24529814.3494   24529819.8884
      3925.127        3058.541
    231108.590 9    181867.41048  22410212.962    22410215.0054   22410219.3684
      -641.848        -500.141
   2453694.382 9   1904460.78248  21518151.762    21518153.3194   21518158.6914
     -2140.619       -1668.015
  -2092969.451 9  -1621528.40648  20840796.560    20840797.8704   20840802.9964
      1185.011         923.385
    -55649.094 9    -40609.51847  23664899.370    23664900.3084   23664905.7324
      -355.014        -276.634
  -4393019.728 9  -3405699.81447  23049764.299    23049765.4994   23049770.9194
      2987.780        2328.140
 96 10 17 15 46 30.0000000  0  8 17 28  3 26  6 23 22 21             0.000368350
  -1188807.073 9   -914723.30448  20667377.832    20667379.0464   20667384.1054
       639.998         498.700
  -3634611.411 9  -2817560.513 9  21066066.023    21066067.433    21066071.718
      2224.731        1733.557
  -4454105.457 9  -3457615.97946  24507410.866    24507413.0994   24507418.4724
      3922.509        3056.501
    250646.945 9    197092.10248  22413930.974    22413933.0604   22413937.4554
      -660.701        -514.832
   2518112.249 9   1954656.50248  21530410.025    21530411.6214   21530417.0354
     -2154.116       -1678.532
  -2128336.733 9  -1649087.32348  20834066.377    20834067.6984   20834072.8454
      1172.608         913.721
    -44786.239 9    -32144.96147  23666966.635    23666967.4924   23666972.9234
      -369.438        -287.874
  -4482547.247 9  -3475461.50947  23032727.680    23032729.0144   23032734.4204
      2980.566        2322.519
 96 10 17 15 47  0.0000000  0  8 17 28  3 26  6 23 22 21             0.000360126
  -1207908.248 9   -929607.33748  20663743.092    20663744.2324   20663749.3214
       632.636         492.963
  -3701135.904 9  -2869397.779 9  21053406.836    21053408.258    21053412.538
      2209.553        1721.730
  -4571738.375 9  -3549277.98146  24485026.262    24485028.2514   24485033.6414
      3918.937        3053.717
    270741.517 9    212750.20648  22417754.979    22417756.9804   22417761.3344
      -679.675        -529.617
   2582933.370 9   2005166.44848  21542745.063    21542746.6704   21542752.1324
     -2168.077       -1689.411
  -2163329.983 9  -1676354.78548  20827407.380    20827408.7144   20827413.8254
      1159.533         903.532
    -33489.490 9    -23342.30647  23669116.351    23669117.1874   23669122.7254
      -384.487        -299.600
  -4571870.559 9  -3545064.07547  23015730.135    23015731.3804   23015736.7994
      2973.674        2317.149
 96 10 17 15 47 30.0000000  0  8 17 28  3 26  6 23 22 21             0.000351886
  -1226799.163 9   -944327.53748  20660148.219    20660149.4124   20660154.5044
       625.907         487.720
  -3767219.002 9  -2920891.107 9  21040831.628    21040833.070    21040837.368
      2195.194        1710.541
  -4689279.310 9  -3640868.31146  24462659.041    24462660.9404   24462666.3014
      3916.234        3051.611
    291386.970 9    228837.56948  22421683.725    22421685.6414   22421689.9934
      -697.366        -543.402
   2648162.814 9   2055994.56448  21555157.799    21555159.4324   21555164.9474
     -2181.334       -1699.741
  -2197934.953 9  -1703319.69048  20820822.265    20820823.5984   20820828.7254
      1146.740         893.564
    -21746.951 9    -14192.28247  23671350.821    23671351.7284   23671357.1584
      -398.918        -310.845
  -4660994.662 9  -3614511.41147  22998770.354    22998771.6084   22998777.0554
      2967.016        2311.961
 96 10 17 15 48  0.0000000  0  8 17 28  3 26  6 23 22 21             0.000343625
  -1245473.819 9   -958879.22348  20656594.556    20656595.7704   20656600.8264
       619.338         482.601
  -3832860.371 9  -2972040.226 9  21028340.478    21028341.931    21028346.261
      2181.206        1699.641
  -4806722.756 9  -3732382.67446  24440310.062    24440312.2374   24440317.5034
      3913.628        3049.580
    312566.038 9    245340.73148  22425714.010    22425715.8764   22425720.1974
      -714.104        -556.445
   2713799.552 9   2107140.04748  21567648.162    21567649.7204   21567655.2434
     -2194.065       -1709.661
  -2232155.731 9  -1729985.22548  20814310.294    20814311.6324   20814316.7584
      1134.910         884.345
     -9571.681 9     -4705.06447  23673667.716    23673668.6264   23673673.9964
      -412.477        -321.411
  -4749902.298 9  -3683790.08147  22981851.732    22981853.0064   22981858.4734
      2960.461        2306.853
 96 10 17 15 48 30.0000000  0  8 17 28  3 26  6 23 22 21             0.000335332
  -1263942.076 9   -973270.07548  20653080.190    20653081.3954   20653086.4434
       612.033         476.909
  -3898075.630 9  -3022857.314 9  21015930.440    21015931.903    21015936.234
      2166.570        1688.236
  -4924079.840 9  -3823829.73946  24417977.805    24417979.9314   24417985.2534
      3910.322        3047.004
    334251.775 9    262238.70548  22429840.683    22429842.5424   22429846.8374
      -731.501        -570.001
   2779817.089 9   2158582.26048  21580210.840    21580212.4474   21580217.9614
     -2206.950       -1719.701
  -2266016.930 9  -1756370.57448  20807866.730    20807868.0704   20807873.1884
      1122.660         874.800
      3013.501 9      5101.57147  23676062.572    23676063.5324   23676068.8374
      -426.404        -332.263
  -4838605.539 9  -3752909.47947  22964972.040    22964973.3654   22964978.8004
      2953.142        2301.150
 96 10 17 15 49  0.0000000  0  8 17 28  3 26  6 23 22 21             0.000327024
  -1282188.029 9   -987487.70148  20649608.042    20649609.2884   20649614.3464
       605.085         471.495
  -3962838.365 9  -3073321.783 9  21003606.552    21003607.994    21003612.315
      2151.545        1676.529
  -5041324.132 9  -3915188.90446  24395667.150    24395669.1154   24395674.3514
      3906.676        3044.163
    356474.893 9    279555.41748  22434069.487    22434071.4484   22434075.7844
      -749.505        -584.030
   2846225.251 9   2210328.85448  21592847.883    21592849.5304   21592855.0324
     -2219.615       -1729.570
  -2299501.038 9  -1782462.07948  20801494.906    20801496.2374   20801501.3864
      1110.324         865.188
     16024.873 9     15240.28747  23678538.495    23678539.4794   23678544.8984
      -440.422        -343.186
  -4927075.378 9  -3821847.00447  22948136.845    22948138.1454   22948143.5794
      2945.504        2295.198
 96 10 17 15 49 30.0000000  0  8 17 28  3 26  6 23 22 21             0.000318698
  -1300243.400 9  -1001556.82848  20646172.279    20646173.4664   20646178.5354
       598.759         466.565
  -4027161.044 9  -3123443.353 9  20991366.400    20991367.796    20991372.127
      2136.882        1665.103
  -5158471.204 9  -4006472.32546  24373374.405    24373376.7014   24373382.0954
      3903.166        3041.428
    379228.128 9    297285.20548  22438399.295    22438401.2384   22438405.6194
      -767.170        -597.795
   2913006.964 9   2262366.52948  21605556.013    21605557.6854   21605563.1924
     -2232.195       -1739.373
  -2332631.354 9  -1808277.90948  20795190.494    20795191.7724   20795196.9064
      1098.728         856.152
     29438.357 9     25692.34047  23681090.831    23681091.9684   23681097.4324
      -453.401        -353.299
  -5015324.395 9  -3890612.46547  22931343.671    22931344.9034   22931350.4134
      2938.193        2289.501
 96 10 17 15 50  0.0000000  0  8 17 28  3 26  6 23 22 21             0.000310374
  -1318084.231 9  -1015458.77848  20642777.271    20642778.4734   20642783.5464
       590.936         460.470
  -4091022.813 9  -3173205.768 9  20979213.859    20979215.296    20979219.623
      2120.857        1652.616
  -5275483.480 9  -4097650.69946  24351107.912    24351110.0484   24351115.4124
      3898.046        3037.438
    402539.251 9    315449.70848  22442835.289    22442837.2294   22442841.6034
      -786.474        -612.837
   2980182.573 9   2314711.13548  21618339.094    21618340.7934   21618346.2604
     -2245.841       -1750.006
  -2365400.025 9  -1833811.93148  20788954.912    20788956.1534   20788961.2344
      1086.054         846.276
     43254.808 9     36458.40647  23683720.134    23683721.2064   23683726.5934
      -467.476        -364.267
  -5103351.866 9  -3959205.28547  22914592.610    22914593.8104   22914599.3914
      2930.723        2283.680
 96 10 17 15 50 30.0000000  0  8 17 28  3 26  6 23 22 21             0.000302028
  -1335728.319 9  -1029207.42048  20639419.721    20639420.9234   20639425.9974
       584.233         455.246
  -4154437.436 9  -3222619.757 9  20967146.440    20967147.891    20967152.206
      2105.677        1640.787
  -5392385.556 9  -4188743.21746  24328862.098    24328864.3554   24328869.7254
      3894.273        3034.498
    426393.353 9    334037.31448  22447374.533    22447376.5164   22447380.8834
      -804.824        -627.135
   3047729.431 9   2367345.03048  21631192.848    21631194.5804   21631200.0234
     -2258.294       -1759.710
  -2397820.039 9  -1859074.27448  20782785.579    20782786.8174   20782791.9064
      1074.212         837.048
     57456.960 9     47525.01347  23686422.764    23686423.7774   23686429.1854
      -480.439        -374.368
  -5191197.780 9  -4027656.62947  22897876.066    22897877.2764   22897882.8884
      2924.481        2278.816
 96 10 17 15 51  0.0000000  0  8 17 28  3 26  6 23 22 21             0.000293656
  -1353179.594 9  -1042805.82448  20636098.922    20636100.0914   20636105.1624
       578.414         450.712
  -4217406.514 9  -3271686.574 9  20955163.839    20955165.285    20955169.590
      2091.562        1629.789
  -5509180.354 9  -4279752.10246  24306637.323    24306639.0154   24306644.3504
      3891.383        3032.246
    450782.041 9    353041.47948  22452015.507    22452017.4914   22452021.9094
      -821.738        -640.315
   3115637.388 9   2420260.30248  21644115.418    21644117.0754   21644122.5244
     -2269.639       -1768.550
  -2429891.936 9  -1884065.36248  20776682.464    20776683.7144   20776688.8424
      1063.233         828.493
     72040.127 9     58888.51347  23689197.879    23689198.8574   23689204.3244
      -492.636        -383.872
  -5278864.326 9  -4095968.21147  22881193.508    22881194.8634   22881200.4854
      2919.160        2274.670
 96 10 17 15 51 30.0000000  0  8 17 28  3 26  6 23 22 21             0.000285264
  -1370417.043 9  -1056237.60748  20632818.753    20632819.9294   20632824.9884
       570.726         444.722
  -4279921.620 9  -3320399.643 9  20943267.670    20943269.048    20943273.383
      2076.139        1617.771
  -5625855.548 9  -4370667.80146  24284434.882    24284436.4404   24284441.7374
      3886.820        3028.691
    475705.585 9    372462.41048  22456758.389    22456760.3054   22456764.7194
      -839.712        -654.321
   3183919.072 9   2473466.78348  21657109.002    21657110.6644   21657116.1294
     -2282.342       -1778.448
  -2461599.843 9  -1908772.81548  20770648.573    20770649.8894   20770655.0364
      1050.727         818.748
     87030.798 9     70569.53747  23692050.637    23692051.5094   23692057.0424
      -506.791        -394.902
  -5366331.605 9  -4164124.52447  22864549.040    22864550.4244   22864556.0034
      2911.913        2269.023
 96 10 17 15 52  0.0000000  0  8 17 28  3 26  6 23 22 21             0.000276855
  -1387428.140 9  -1069493.01048  20629581.673    20629582.8374   20629587.8934
       563.189         438.849
  -4341977.120 9  -3368754.580 9  20931458.909    20931460.277    20931464.647
      2060.673        1605.719
  -5742394.687 9  -4461477.49046  24262258.243    24262259.7614   24262265.0274
      3882.383        3025.234
    501154.202 9    392292.49348  22461601.131    22461603.0204   22461607.4734
      -856.986        -667.781
   3252563.001 9   2526955.53048  21670171.576    21670173.2064   21670178.6744
     -2294.162       -1787.659
  -2492940.155 9  -1933193.83248  20764684.699    20764686.0204   20764691.1664
      1038.293         809.059
    102449.471 9     82584.07647  23694984.735    23694985.5924   23694991.1724
      -521.396        -406.283
  -5453586.553 9  -4232115.38248  22847944.917    22847946.3524   22847951.9474
      2904.825        2263.500
 96 10 17 15 52 30.0000000  0  8 17 28  3 26  6 23 22 21             0.000268423
  -1404213.092 9  -1082572.19548  20626387.587    20626388.7734   20626393.8154
       555.672         432.991
  -4403565.332 9  -3416745.397 9  20919739.044    20919740.425    20919744.825
      2045.028        1593.528
  -5858806.338 9  -4552187.83646  24240105.952    24240107.3924   24240112.6164
      3878.046        3021.854
    527117.758 9    412523.82948  22466541.856    22466543.7604   22466548.2254
      -874.127        -681.138
   3321566.757 9   2580724.66348  21683302.611    21683304.2324   21683309.6624
     -2306.263       -1797.088
  -2523900.664 9  -1957318.89948  20758793.115    20758794.4294   20758799.5634
      1025.625         799.188
    118312.053 9     94944.52747  23698003.284    23698004.1754   23698009.7154
      -536.264        -417.868
  -5540613.225 9  -4299928.35748  22831384.325    22831385.7394   22831391.3274
      2896.775        2257.227
 96 10 17 15 53  0.0000000  0  8 17 28  3 26  6 23 22 21             0.000259972
  -1420786.141 9  -1095486.26448  20623233.850    20623235.0374   20623240.0944
       548.937         427.743
  -4464696.130 9  -3464379.785 9  20908106.232    20908107.613    20908112.038
      2029.998        1581.817
  -5975093.486 9  -4642801.15746  24217977.321    24217978.6564   24217983.8974
      3874.251        3018.897
    553582.654 9    433145.82448  22471577.981    22471579.8494   22471584.3684
      -890.581        -693.959
   3390925.953 9   2634770.77148  21696501.250    21696502.8704   21696508.2824
     -2318.091       -1806.305
  -2554496.224 9  -1981159.58548  20752971.002    20752972.2874   20752977.4264
      1013.895         790.048
    134612.781 9    107646.38347  23701105.163    23701106.0884   23701111.6154
      -550.680        -429.101
  -5627407.697 9  -4367560.40148  22814867.879    22814869.3044   22814874.9154
      2889.245        2251.360
 96 10 17 15 53 30.0000000  0  8 17 28  3 26  6 23 22 21             0.000251510
  -1437154.720 9  -1108241.00148  20620118.971    20620120.2234   20620125.2604
       541.921         422.276
  -4525367.275 9  -3511656.002 9  20896560.897    20896562.271    20896566.714
      2014.248        1569.544
  -6091258.234 9  -4733319.11046  24195871.862    24195873.2624   24195878.4524
      3869.676        3015.332
    580551.880 9    454160.79848  22476710.025    22476711.8884   22476716.4634
      -907.829        -707.399
   3460649.374 9   2689100.68448  21709769.191    21709770.8324   21709776.2094
     -2330.649       -1816.090
  -2584737.470 9  -2004724.18048  20747216.331    20747217.5834   20747222.7084
      1001.789         780.615
    151346.473 9    120685.61047  23704289.538    23704290.3884   23704295.9374
      -565.105        -440.341
  -5713970.308 9  -4435011.77148  22798395.670    22798396.9774   22798402.6124
      2881.278        2245.152
 96 10 17 15 54  0.0000000  0  8 17 28  3 26  6 23 22 21             0.000243033
  -1453322.792 9  -1120839.50348  20617042.300    20617043.5484   20617048.5904
       535.306         417.122
  -4585569.579 9  -3558566.892 9  20885104.715    20885106.136    20885110.613
      1998.671        1557.406
  -6207302.710 9  -4823743.34546  24173789.546    24173790.7014   24173795.9384
      3866.253        3012.665
    608033.239 9    475574.83548  22481939.553    22481941.4074   22481945.9614
      -924.934        -720.728
   3530747.808 9   2743722.81448  21723108.518    21723110.1794   21723115.5304
     -2343.389       -1826.017
  -2614623.677 9  -2028012.12448  20741529.158    20741530.4284   20741535.5694
       989.907         771.356
    168490.255 9    134044.39147  23707552.025    23707552.7854   23707558.2984
      -578.292        -450.617
  -5800312.221 9  -4502291.17948  22781965.314    22781966.6674   22781972.2904
      2874.264        2239.686
 96 10 17 15 54 30.0000000  0  8 17 28  3 26  6 23 22 21             0.000234545
  -1469277.839 9  -1133272.01348  20614006.200    20614007.4184   20614012.4464
       527.986         411.418
  -4645298.293 9  -3605108.749 9  20873738.696    20873740.138    20873744.639
      1982.862        1545.087
  -6323235.937 9  -4914080.89146  24151728.029    24151729.2974   24151734.5344
      3862.169        3009.482
    636043.205 9    497400.77848  22487269.702    22487271.5434   22487276.0924
      -942.810        -734.657
   3601246.203 9   2798656.60148  21736523.944    21736525.6254   21736530.9524
     -2356.741       -1836.422
  -2644145.879 9  -2051016.43448  20735911.219    20735912.5504   20735917.6824
       977.989         762.069
    186030.778 9    147712.31347  23710889.968    23710890.6724   23710896.1874
      -591.474        -460.889
  -5886424.493 9  -4569391.64148  22765578.690    22765580.0464   22765585.6754
      2866.240        2233.434
 96 10 17 15 55  0.0000000  0  8 17 28  3 26  6 23 22 21             0.000226064
  -1484998.790 9  -1145522.10548  20611014.609    20611015.8404   20611020.8594
       520.162         405.321
  -4704543.558 9  -3651273.891 9  20862464.711    20862466.139    20862470.647
      1966.932        1532.674
  -6439028.371 9  -5004308.72946  24129693.381    24129694.6714   24129699.9734
      3857.391        3005.759
    664605.943 9    519657.44648  22492705.001    22492706.8404   22492711.4104
      -961.190        -748.979
   3672144.891 9   2853902.30848  21750015.632    21750017.2564   21750022.5524
     -2369.612       -1846.451
  -2673305.009 9  -2073737.82748  20730362.367    20730363.7594   20730368.8944
       966.069         752.781
    203980.397 9    161699.01847  23714305.567    23714306.3394   23714311.8944
      -604.967        -471.403
  -5972293.249 9  -4636302.35448  22749238.466    22749239.7814   22749245.3804
      2858.491        2227.396
 96 10 17 15 55 30.0000000  0  8 17 28  3 26  6 23 22 21             0.000217587
  -1500475.283 9  -1157581.71648  20608069.605    20608070.7714   20608075.7874
       511.413         398.504
  -4763304.111 9  -3697061.336 9  20851282.975    20851284.379    20851288.898
      1950.255        1519.679
  -6554668.776 9  -5094418.10746  24107688.059    24107688.9754   24107694.3304
      3851.724        3001.343
    693721.030 9    542344.51948  22498245.371    22498247.2374   22498251.8324
      -979.869        -763.534
   3743428.771 9   2909448.16648  21763580.546    21763582.1484   21763587.4744
     -2382.819       -1856.742
  -2702096.055 9  -2096172.40148  20724883.501    20724885.0014   20724890.1314
       953.080         742.660
    222337.552 9    176003.29447  23717798.766    23717799.5764   23717805.1804
      -619.028        -482.359
  -6057923.275 9  -4703027.04348  22732943.593    22732944.9394   22732950.5034
      2850.087        2220.847
 96 10 17 15 56  0.0000000  0  8 17 28  3 26  6 23 22 21             0.000209109
  -1515696.561 9  -1169442.45748  20605173.050    20605174.2634   20605179.2634
       503.159         392.072
  -4821571.036 9  -3742464.135 9  20840195.092    20840196.560    20840201.064
      1934.095        1507.087
  -6670146.524 9  -5184400.73246  24085713.004    24085714.2864   24085719.6814
      3846.724        2997.447
    723383.679 9    565458.26448  22503890.148    22503891.8834   22503896.4494
      -997.714        -777.439
   3815097.458 9   2965293.86848  21777218.716    21777220.2884   21777225.6034
     -2395.130       -1866.335
  -2730505.938 9  -2118309.97348  20719477.388    20719478.7504   20719483.9344
       940.765         733.064
    241113.072 9    190633.54947  23721371.686    23721372.4874   23721378.0644
      -632.777        -493.073
  -6143310.968 9  -4769562.90548  22716694.795    22716696.1924   22716701.7414
      2842.265        2214.752
 96 10 17 15 56 30.0000000  0  8 17 28  3 26  6 23 22 21             0.000200623
  -1530674.465 9  -1181113.55648  20602322.902    20602324.1064   20602329.0904
       495.085         385.781
  -4879359.378 9  -3787494.012 9  20829198.375    20829199.824    20829204.321
      1918.015        1494.557
  -6785472.418 9  -5274265.04246  24063767.254    24063768.4454   24063773.9834
      3841.288        2993.211
    753575.706 9    588984.50848  22509635.562    22509637.2664   22509641.8374
     -1015.351        -791.183
   3887117.038 9   3021412.99748  21790923.659    21790925.1814   21790930.4824
     -2406.384       -1875.104
  -2758556.518 9  -2140167.56748  20714139.594    20714140.8964   20714146.0794
       928.835         723.768
    260298.896 9    205583.53047  23725022.678    23725023.4974   23725029.0594
      -646.686        -503.911
  -6228464.833 9  -4835916.55848  22700490.574    22700491.9234   22700497.4904
      2834.405        2208.627
 96 10 17 15 57  0.0000000  0  8 17 28  3 26  6 23 22 21             0.000192108
  -1545431.032 9  -1192612.18248  20599514.860    20599516.0594   20599521.0264
       488.416         380.584
  -4936673.052 9  -3832154.021 9  20818292.048    20818293.410    20818297.909
      1902.539        1482.498
  -6900658.471 9  -5364020.38446  24041847.781    24041849.1964   24041854.7694
      3837.593        2990.332
    784281.743 9    612911.28748  22515478.628    22515480.4274   22515485.0464
     -1031.935        -804.105
   3959456.114 9   3077781.08348  21804689.388    21804690.8974   21804696.1594
     -2416.701       -1883.144
  -2786253.930 9  -2161749.95748  20708868.969    20708870.2614   20708875.4424
       917.238         714.731
    279881.710 9    220842.86247  23728749.119    23728750.0074   23728755.5484
      -659.066        -513.558
  -6313405.245 9  -4902103.88448  22684326.947    22684328.3014   22684333.8754
      2827.885        2203.547
 96 10 17 15 57 30.0000000  0  8 17 28  3 26  6 23 22 21             0.000183560
  -1559967.391 9  -1203939.21948  20596748.672    20596749.8744   20596754.8394
       480.945         374.762
  -4993500.190 9  -3876434.912 9  20807478.247    20807479.576    20807484.053
      1886.109        1469.695
  -7015723.018 9  -5453681.04746  24019951.608    24019953.1424   24019958.7304
      3833.656        2987.264
    815498.279 9    637235.84648  22521418.967    22521420.7454   22521425.3434
     -1049.074        -817.460
   4032138.720 9   3134416.85148  21818520.513    21818521.9784   21818527.2404
     -2428.607       -1892.421
  -2813581.300 9  -2183044.01048  20703668.668    20703670.0214   20703675.2184
       904.835         705.066
    299846.262 9    236399.64147  23732548.325    23732549.1674   23732554.6734
      -671.604        -523.328
  -6398119.145 9  -4968114.71148  22668206.499    22668207.7744   22668213.3624
      2819.957        2197.369
 96 10 17 15 58  0.0000000  0  8 17 28  3 26  6 23 22 21             0.000174976
  -1574297.672 9  -1215105.68048  20594021.708    20594022.9224   20594027.8754
       474.080         369.413
  -5049846.635 9  -3920341.235 9  20796755.829    20796757.208    20796761.694
      1870.116        1457.233
  -7130684.514 9  -5543261.41646  23998075.337    23998076.6464   23998082.2864
      3830.115        2984.505
    847230.065 9    661961.90548  22527457.280    22527459.0694   22527463.6564
     -1066.695        -831.191
   4105161.217 9   3191317.47048  21832416.162    21832417.7274   21832422.9944
     -2439.727       -1901.086
  -2840557.205 9  -2204064.19648  20698535.334    20698536.6744   20698541.8534
       893.274         696.058
    320166.193 9    252233.34347  23736415.161    23736415.9624   23736421.4644
      -683.353        -532.483
  -6482610.263 9  -5033951.94448  22652128.404    22652129.6494   22652135.2534
      2812.495        2191.555
 96 10 17 15 58 30.0000000  0  8 17 28  3 26  6 23 22 21             0.000166374
  -1588405.059 9  -1226098.45848  20591337.210    20591338.3684   20591343.3124
       466.539         363.537
  -5105701.645 9  -3963864.624 9  20786127.039    20786128.351    20786132.827
      1853.527        1444.307
  -7245520.436 9  -5632743.93546  23976222.923    23976224.1384   23976229.7254
      3825.607        2980.992
    879509.490 9    687114.69548  22533599.760    22533601.6504   22533606.2404
     -1085.141        -845.564
   4178529.543 9   3248487.57148  21846377.756    21846379.2674   21846384.5644
     -2451.506       -1910.264
  -2867167.812 9  -2224799.73348  20693471.493    20693472.8514   20693478.0184
       880.764         686.310
    340856.559 9    268355.68247  23740352.477    23740353.2244   23740358.7154
      -696.087        -542.405
  -6566862.260 9  -5099602.84648  22636095.854    22636097.0474   22636102.6404
      2804.312        2185.178
 96 10 17 15 59  0.0000000  0  8 17 28  3 26  6 23 22 21             0.000157758
  -1602295.404 9  -1236922.11048  20588693.958    20588695.1374   20588700.0604
       459.357         357.941
  -5161062.737 9  -4007003.142 9  20775592.154    20775593.489    20775597.950
      1837.155        1431.549
  -7360223.884 9  -5722123.22446  23954395.445    23954396.8164   23954402.3734
      3820.999        2977.402
    912332.912 9    712691.38148  22539845.759    22539847.7174   22539852.3144
     -1103.073        -859.537
   4252253.421 9   3305934.72148  21860406.892    21860408.4644   21860413.7974
     -2463.600       -1919.688
  -2893409.578 9  -2245247.85948  20688477.921    20688479.2564   20688484.4044
       868.738         676.939
    361924.730 9    284772.41747  23744361.477    23744362.3664   23744367.8684
      -708.662        -552.204
  -6650871.440 9  -5165064.53848  22620109.426    22620110.6364   22620116.2354
      2796.225        2178.877
 96 10 17 15 59 30.0000000  0  8 17 28  3 26  6 23 22 21             0.000149149
  -1615966.456 9  -1247574.88448  20586092.489    20586093.6684   20586098.5694
       452.070         352.262
  -5215932.293 9  -4049758.643 9  20765150.755    20765152.180    20765156.633
      1820.694        1418.723
  -7474769.725 9  -5811379.72246  23932598.293    23932599.5174   23932604.9394
      3815.091        2972.798
    945692.951 9    738686.20248  22546193.875    22546195.9524   22546200.5254
     -1121.015        -873.518
   4326342.011 9   3363666.06248  21874505.577    21874507.0984   21874512.4184
     -2475.593       -1929.034
  -2919301.311 9  -2265423.23548  20683550.986    20683552.2214   20683557.3614
       857.305         668.030
    383379.991 9    301490.78047  23748444.278    23748445.1504   23748450.7004
      -721.881        -562.505
  -6734635.535 9  -5230335.25348  22604169.703    22604170.8824   22604176.4714
      2788.168        2172.598
 96 10 17 16  0  0.0000000  0  8 17 28  3 26  6 23 22 21             0.000140561
  -1629420.494 9  -1258058.55448  20583532.279    20583533.4644   20583538.3654
       445.356         347.031
  -5270300.467 9  -4092123.458 9  20754804.835    20754806.252    20754810.718
      1804.466        1406.077
  -7589124.772 9  -5900487.53846  23910837.235    23910838.4814   23910843.8804
      3809.083        2968.117
    979597.468 9    765105.29848  22552645.786    22552647.8054   22552652.3554
     -1138.448        -887.102
   4400790.888 9   3421678.14348  21888672.766    21888674.2424   21888679.5954
     -2487.087       -1937.990
  -2944845.627 9  -2285327.89648  20678690.051    20678691.2934   20678696.4304
       846.252         659.417
    405248.910 9    318531.48647  23752605.825    23752606.6414   23752612.2494
      -735.570        -573.171
  -6818163.925 9  -5295422.30348  22588274.833    22588275.9794   22588281.5384
      2781.016        2167.025
 96 10 17 16  0 30.0000000  0  8 17 28  3 26  6 23 22 21             0.000131986
  -1642653.274 9  -1268369.81948  20581014.196    20581015.3684   20581020.2534
       437.665         341.038
  -5324167.327 9  -4134097.640 9  20744554.300    20744555.725    20744560.197
      1787.344        1392.736
  -7703287.694 9  -5989445.63946  23889112.969    23889114.0124   23889119.3974
      3802.442        2962.942
   1014021.300 9    791929.05248  22559196.487    22559198.4624   22559203.0154
     -1155.533        -900.415
   4475602.363 9   3479972.76948  21902908.926    21902910.3734   21902915.7574
     -2499.590       -1947.732
  -2970041.464 9  -2304961.01248  20673895.479    20673896.7114   20673901.8344
       834.247         650.062
    427540.584 9    335901.59447  23756847.790    23756848.6244   23756854.2534
      -749.677        -584.164
  -6901470.645 9  -5360336.62248  22572422.052    22572423.2424   22572428.7864
      2773.456        2161.135
 96 10 17 16  1  0.0000000  0  8 17 28  3 26  6 23 22 21             0.000123409
  -1655673.667 9  -1278515.58448  20578536.435    20578537.6604   20578542.5944
       430.742         335.643
  -5377528.747 9  -4175677.970 9  20734400.023    20734401.388    20734405.865
      1770.542        1379.643
  -7817257.543 9  -6078253.29846  23867425.171    23867426.2314   23867431.6204
      3795.876        2957.825
   1048938.073 9    819136.90948  22565841.072    22565842.9324   22565847.4934
     -1171.953        -913.210
   4550773.997 9   3538548.04148  21917213.551    21917215.0694   21917220.4434
     -2511.376       -1956.916
  -2994892.438 9  -2324325.40548  20669166.484    20669167.7674   20669172.8664
       822.980         641.283
    450233.339 9    353584.24547  23761166.255    23761166.9424   23761172.5614
      -762.659        -594.280
  -6984561.206 9  -5425082.50448  22556610.452    22556611.6504   22556617.2084
      2766.428        2155.658
 96 10 17 16  1 30.0000000  0  8 17 28  3 26  6 23 22 21             0.000114829
  -1668482.390 9  -1288496.41248  20576099.020    20576100.2384   20576105.1904
       423.570         330.055
  -5430384.956 9  -4216864.628 9  20724341.899    20724343.212    20724347.654
      1753.645        1366.477
  -7931028.720 9  -6166906.14546  23845775.144    23845776.2894   23845781.6174
      3789.456        2952.823
   1084358.035 9    846736.87448  22572581.357    22572583.1504   22572587.7384
     -1188.925        -926.435
   4626289.701 9   3597391.41948  21931583.738    21931585.2454   21931590.5744
     -2522.496       -1965.581
  -3019401.674 9  -2343423.50648  20664502.549    20664503.8214   20664508.9284
       811.320         632.197
    473309.978 9    371566.02747  23765557.621    23765558.3244   23765563.9404
      -775.215        -604.064
  -7067437.714 9  -5489661.59748  22540839.477    22540840.7974   22540846.3194
      2758.999        2149.869
 96 10 17 16  2  0.0000000  0  8 17 28  3 26  6 23 22 21             0.000106229
  -1681071.100 9  -1298305.80248  20573703.443    20573704.7164   20573709.6444
       415.663         323.893
  -5482735.295 9  -4257657.105 9  20714379.916    20714381.274    20714385.696
      1736.590        1353.187
  -8044618.965 9  -6255418.01846  23824159.641    23824160.7584   23824165.9964
      3783.348        2948.063
   1120284.370 9    874731.40448  22579417.842    22579419.7104   22579424.2804
     -1206.015        -939.752
   4702134.031 9   3656490.86648  21946016.433    21946017.9694   21946023.3164
     -2533.644       -1974.268
  -3043551.836 9  -2362241.81448  20659906.864    20659908.1804   20659913.3104
       798.888         622.510
    496754.622 9    389834.54747  23770018.838    23770019.6544   23770025.3564
      -787.496        -613.633
  -7150084.963 9  -5554062.04848  22525112.308    22525113.5634   22525119.0584
      2750.854        2143.523
 96 10 17 16  2 30.0000000  0  8 17 28  3 26  6 23 22 21             0.000097605
  -1693422.805 9  -1307930.51248  20571353.030    20571354.2884   20571359.2104
       407.723         317.706
  -5534581.396 9  -4298056.669 9  20704513.913    20704515.313    20704519.718
      1719.607        1339.954
  -8158024.329 9  -6343785.81046  23802579.220    23802580.3504   23802585.6034
      3776.832        2942.986
   1156717.668 9    903120.97648  22586350.917    22586352.7064   22586357.2704
     -1223.058        -953.032
   4778300.416 9   3715841.26848  21960510.395    21960511.9704   21960517.3414
     -2544.191       -1982.486
  -3067336.998 9  -2380775.70448  20655380.709    20655382.0064   20655387.1514
       786.637         612.964
    520552.132 9    408378.04147  23774547.344    23774548.1484   23774553.8754
      -799.173        -622.732
  -7232487.540 9  -5618271.84048  22509431.719    22509432.8844   22509438.3654
      2742.298        2136.856
 96 10 17 16  3  0.0000000  0  8 17 28  3 26  6 23 22 21             0.000088966
  -1705534.143 9  -1317367.92448  20569048.347    20569049.6044   20569054.5354
       399.315         311.155
  -5585915.103 9  -4338056.964 9  20694745.486    20694746.862    20694751.240
      1702.359        1326.514
  -8271232.907 9  -6432000.28146  23781036.139    23781037.4984   23781042.6584
      3770.075        2937.721
   1193671.312 9    931916.00948  22593382.956    22593384.7654   22593389.3204
     -1240.824        -966.876
   4854778.079 9   3775434.22948  21975063.602    21975065.1694   21975070.5554
     -2554.735       -1990.703
  -3090754.546 9  -2399023.14348  20650924.505    20650925.7764   20650930.9384
       774.337         603.379
    544709.199 9    427201.72147  23779144.248    23779145.1254   23779150.8364
      -811.649        -632.454
  -7314617.082 9  -5682268.88048  22493802.984    22493804.1424   22493809.6684
      2732.774        2129.434
 96 10 17 16  3 30.0000000  0  8 17 28  3 26  6 23 22 21             0.000080323
  -1717382.009 9  -1326600.03248  20566793.796    20566795.0284   20566799.9874
       390.538         304.315
  -5636732.367 9  -4377654.837 9  20685075.329    20685076.691    20685081.039
      1685.474        1313.356
  -8384245.729 9  -6520062.19546  23759530.443    23759531.8754   23759536.9774
      3764.223        2933.161
   1231153.437 9    961122.84648  22600515.559    22600517.4414   22600521.9774
     -1257.688        -980.017
   4931579.522 9   3835279.48048  21989678.430    21989680.0284   21989685.4374
     -2565.434       -1999.039
  -3113802.382 9  -2416982.49648  20646538.655    20646539.9294   20646545.1134
       762.341         594.032
    569243.780 9    446319.55247  23783813.077    23783813.9324   23783819.6454
      -823.972        -642.056
  -7396460.812 9  -5746043.21148  22478228.603    22478229.7924   22478235.3484
      2723.642        2122.318
 96 10 17 16  4  0.0000000  0  8 17 28  3 26  6 23 22 21             0.000071672
  -1728950.660 9  -1335614.57348  20564592.349    20564593.5784   20564598.5454
       380.754         296.691
  -5687031.326 9  -4416848.833 9  20675503.749    20675505.118    20675509.476
      1667.652        1299.469
  -8497068.583 9  -6607976.09646  23738061.015    23738062.3824   23738067.4804
      3757.153        2927.652
   1269139.208 9    990722.13348  22607744.149    22607745.8944   22607750.4164
     -1274.867        -993.403
   5008727.430 9   3895394.70647  22004359.265    22004360.8134   22004366.2624
     -2577.889       -2008.745
  -3136483.133 9  -2434655.80548  20642222.653    20642223.9074   20642229.1114
       749.707         584.187
    594165.713 9    465739.23347  23788555.593    23788556.4124   23788562.1574
      -837.594        -652.671
  -7478032.376 9  -5809605.46448  22462705.987    22462707.2474   22462712.8314
      2714.416        2115.129
 96 10 17 16  4 30.0000000  0  8 17 28  3 26  6 23 22 21             0.000063022
  -1740241.482 9  -1344412.61748  20562443.784    20562445.0114   20562450.0154
       371.671         289.614
  -5736804.694 9  -4455633.277 9  20666032.208    20666033.602    20666037.922
      1650.045        1285.749
  -8609687.685 9  -6695731.22846  23716630.211    23716631.6624   23716636.7124
      3750.432        2922.415
   1307624.912 9   1020710.98548  22615067.695    22615069.5134   22615074.0244
     -1291.295       -1006.204
   5086234.251 9   3955789.59747  22019108.398    22019109.9104   22019115.3644
     -2589.672       -2017.926
  -3158803.921 9  -2452048.62148  20637975.145    20637976.3954   20637981.6124
       737.790         574.901
    619486.478 9    485469.68347  23793374.009    23793374.8144   23793380.5934
      -850.930        -663.062
  -7559345.429 9  -5872966.28348  22447232.615    22447233.8904   22447239.4504
      2705.919        2108.508
 96 10 17 16  5  0.0000000  0  8 17 28  3 26  6 23 22 21             0.000054356
  -1751278.228 9  -1353012.68748  20560343.609    20560344.7884   20560349.7884
       363.899         283.558
  -5786062.030 9  -4494015.626 9  20656658.917    20656660.267    20656664.550
      1633.462        1272.828
  -8722123.712 9  -6783343.70546  23695234.254    23695235.7734   23695240.8574
      3744.953        2918.145
   1346585.887 9   1051070.17448  22622481.701    22622483.5944   22622488.0864
     -1306.415       -1017.986
   5164085.704 9   4016453.04547  22033922.961    22033924.5314   22033930.0294
     -2600.799       -2026.597
  -3180773.595 9  -2469167.85548  20633794.459    20633795.7184   20633800.8964
       726.581         566.167
    645193.086 9    505500.78047  23798265.857    23798266.6194   23798272.4814
      -863.047        -672.504
  -7640424.160 9  -5936144.50948  22431803.870    22431805.1084   22431810.6664
      2699.223        2103.291
 96 10 17 16  5 30.0000000  0  8 17 28  3 26  6 23 22 21             0.000045675
  -1762059.485 9  -1361413.67348  20558292.003    20558293.1834   20558298.2184
       355.210         276.787
  -5834796.038 9  -4531990.180 9  20647385.132    20647386.496    20647390.798
      1615.713        1258.997
  -8834365.348 9  -6870804.70046  23673875.286    23673876.8584   23673882.0074
      3738.104        2912.808
   1386021.527 9   1081799.22748  22629986.086    22629987.9894   22629992.4564
     -1322.345       -1030.399
   5242296.718 9   4077396.66647  22048805.945    22048807.6044   22048813.1074
     -2612.775       -2035.928
  -3202387.839 9  -2486010.11548  20629681.497    20629682.6944   20629687.8734
       714.565         556.804
    671278.570 9    525827.11347  23803229.902    23803230.5594   23803236.3934
      -875.789        -682.433
  -7721290.027 9  -5999156.87248  22416415.559    22416416.8384   22416422.4004
      2692.163        2097.789
 96 10 17 16  6  0.0000000  0  8 17 28  3 26  6 23 22 21             0.000036975
  -1772599.732 9  -1369626.85648  20556286.213    20556287.4514   20556292.4954
       347.431         270.725
  -5883001.431 9  -4569552.827 9  20638211.971    20638213.306    20638217.607
      1597.768        1245.014
  -8946406.098 9  -6958109.15846  23652554.760    23652556.2304   23652561.4514
      3731.103        2907.353
   1425936.255 9   1112901.60048  22637581.709    22637583.5054   22637588.0044
     -1338.922       -1043.316
   5320849.143 9   4138606.31847  22063754.074    22063755.6674   22063761.1794
     -2624.049       -2044.714
  -3223645.497 9  -2502574.52548  20625636.303    20625637.5104   20625642.6694
       702.444         547.359
    697740.079 9    546446.45646  23808265.368    23808266.0904   23808271.8644
      -888.486        -692.327
  -7801954.997 9  -6062012.68648  22401065.530    22401066.8074   22401072.3774
      2685.065        2092.258
 96 10 17 16  6 30.0000000  0  8 17 28  3 26  6 23 22 21             0.000028255
  -1782928.602 9  -1377675.33248  20554320.747    20554321.9664   20554326.9904
       340.881         265.622
  -5930682.073 9  -4606706.578 9  20629138.688    20629140.010    20629144.293
      1580.681        1231.699
  -9058254.105 9  -7045263.43546  23631271.002    23631272.3124   23631277.5344
      3725.286        2902.820
   1466336.092 9   1144381.97848  22645269.580    22645271.3404   22645275.8114
     -1354.637       -1055.561
   5399711.087 9   4200057.15647  22078761.018    22078762.6304   22078768.1344
     -2633.650       -2052.195
  -3244561.160 9  -2518872.44248  20621656.193    20621657.4044   20621662.5674
       691.576         538.890
    724562.441 9    567346.97846  23813369.378    23813370.1584   23813376.0034
      -899.926        -701.241
  -7882413.948 9  -6124707.96948  22385754.736    22385755.9774   22385761.5684
      2678.601        2087.222
 96 10 17 16  7  0.0000000  0  8 17 28  3 26  6 23 22 21             0.000019512
  -1793047.299 9  -1385560.03748  20552395.239    20552396.4344   20552401.4654
       333.832         260.129
  -5977834.248 9  -4643448.537 9  20620165.946    20620167.259    20620171.536
      1563.071        1217.977
  -9169914.526 9  -7132271.52146  23610022.592    23610024.0344   23610029.2794
      3719.031        2897.946
   1507225.654 9   1176243.96148  22653050.605    22653052.3934   22653056.8594
     -1371.048       -1068.349
   5478880.036 9   4261747.21247  22093826.563    22093828.0264   22093833.5354
     -2643.954       -2060.224
  -3265136.251 9  -2534904.97948  20617740.939    20617742.1274   20617747.2814
       680.457         530.226
    751738.443 9    588523.06446  23818540.787    23818541.5714   23818547.4284
      -911.617        -710.351
  -7962665.384 9  -6187241.55148  22370483.395    22370484.6294   22370490.2244
      2671.669        2081.820
 96 10 17 16  7 30.0000000  0  8 17 28  3 26  6 23 22 21             0.000010759
  -1802943.933 9  -1393271.70448  20550512.032    20550513.1834   20550518.2314
       326.208         254.188
  -6024454.115 9  -4679775.713 9  20611294.517    20611295.817    20611300.082
      1545.173        1204.031
  -9281385.225 9  -7219131.78847  23588810.477    23588811.9084   23588817.1484
      3712.649        2892.973
   1548615.562 9   1208495.82548  22660926.845    22660928.6954   22660933.0574
     -1388.038       -1081.588
   5558359.580 9   4323679.29147  22108951.088    22108952.5394   22108958.0504
     -2654.490       -2068.434
  -3285382.237 9  -2550681.06948  20613888.277    20613889.4924   20613894.6134
       669.362         521.581
    779268.664 9    609975.16446  23823779.706    23823780.3924   23823786.2744
      -923.500        -719.610
  -8042697.924 9  -6249604.56748  22355253.798    22355254.9514   22355260.5394
      2663.912        2075.776
 96 10 17 16  8  0.0000000  0  8 17 28  3 26  6 23 22 21             0.000002004
  -1812615.117 9  -1400807.69248  20548671.662    20548672.8114   20548677.8674
       318.472         248.160
  -6070535.793 9  -4715683.516 9  20602525.479    20602526.767    20602531.039
      1526.897        1189.790
  -9392664.170 9  -7305842.63547  23567634.768    23567636.1914   23567641.4674
      3705.841        2887.668
   1590521.495 9   1241149.78948  22668901.267    22668903.1624   22668907.4724
     -1405.661       -1095.320
   5638164.424 9   4385864.86147  22124137.397    22124138.9774   22124144.4734
     -2665.918       -2077.339
  -3305284.904 9  -2566189.63848  20610100.990    20610102.1534   20610107.2684
       657.466         512.311
    807154.322 9    631704.24046  23829086.224    23829086.9114   23829092.7234
      -935.486        -728.950
  -8122486.366 9  -6311777.36848  22340070.609    22340071.7514   22340077.2904
      2655.166        2068.961
 96 10 17 16  8 30.0000000  0  8 17 28  3 26  6 23 22 21            -0.000006753
  -1822051.481 9  -1408160.71148  20546875.988    20546877.1514   20546882.2254
       310.269         241.768
  -6116079.848 9  -4751172.397 9  20593858.755    20593860.055    20593864.293
      1509.167        1175.974
  -9503742.443 9  -7392397.12047  23546497.101    23546498.6494   23546503.9424
      3699.042        2882.370
   1632935.782 9   1274199.87147  22676972.373    22676974.3224   22676978.6194
     -1422.090       -1108.122
   5718301.326 9   4448309.17347  22139387.051    22139388.5404   22139394.0034
     -2676.749       -2085.778
  -3324841.513 9  -2581428.55448  20606379.519    20606380.6494   20606385.7844
       645.918         503.313
    835385.191 9    653702.29646  23834458.514    23834459.1294   23834464.8924
      -946.761        -737.736
  -8202016.743 9  -6373749.08648  22324936.486    22324937.5954   22324943.1344
      2646.685        2062.352
 96 10 17 16  8 59.9990000  0  9 17  1 28  3 26  6 23 22 21         -0.000015518
  -1831233.593 9  -1415315.60748  20545128.737    20545129.8764   20545134.9474
       301.849         235.207
  -1990697.90618  -1232026.11755  25140935.572    25140935.9975   25140943.8855
      4132.973        3220.498
  -6161086.399 9  -4786242.440 9  20585294.299    20585295.614    20585299.821
      1491.345        1162.087
  -9614602.118 9  -7478781.26347  23525401.264    23525402.7554   23525408.0014
      3691.665        2876.622
   1675843.948 9   1307634.79648  22685137.517    22685139.4834   22685143.8164
     -1438.436       -1120.859
   5798768.723 9   4511011.00947  22154699.553    22154701.0054   22154706.4424
     -2687.910       -2094.475
  -3344039.510 9  -2596388.02748  20602726.212    20602727.4094   20602732.5614
       633.982         494.012
    863956.142 9    675965.35446  23839895.394    23839896.0534   23839901.7364
      -958.092        -746.565
  -8281285.001 9  -6435516.55648  22309852.211    22309853.3324   22309858.9034
      2637.985        2055.573
 96 10 17 16  9 29.9990000  0  9 17  1 28  3 26  6 23 22 21         -0.000024286
  -1840158.589 9  -1422270.15248  20543430.425    20543431.5194   20543436.5864
       293.026         228.332
  -2114730.850 8  -1328675.12945  25117333.142    25117333.4574   25117341.1694
      4135.846        3222.737
  -6205556.816 9  -4820894.718 9  20576831.895    20576833.192    20576837.395
      1473.159        1147.916
  -9725230.155 9  -7564984.91647  23504349.417    23504350.9644   23504356.1684
      3683.353        2870.145
   1719242.979 9   1341452.21147  22693396.209    22693398.0774   22693402.4064
     -1454.968       -1133.741
   5879576.144 9   4573977.80347  22170076.643    22170078.1914   22170083.5914
     -2699.397       -2103.426
  -3362872.356 9  -2611062.97348  20599142.443    20599143.6794   20599148.7844
       621.352         484.170
    892874.363 9    698499.02046  23845398.417    23845398.9834   23845404.6944
      -969.927        -755.787
  -8360290.979 9  -6497079.65448  22294817.833    22294818.9964   22294824.5734
      2628.952        2048.534
 96 10 17 16  9 59.9990000  0  9 17  1 28  3 26  6 23 22 21         -0.000033066
  -1848837.251 9  -1429032.75248  20541778.900    20541780.0524   20541785.1024
       285.493         222.462
  -2238865.723 8  -1425403.56945  25093711.669    25093711.2254   25093719.2164
      4139.753        3225.782
  -6249493.503 9  -4855131.102 9  20568471.063    20568472.347    20568476.530
      1455.982        1134.531
  -9835619.154 9  -7651002.29747  23483343.008    23483344.6344   23483349.8274
      3675.872        2864.316
   1763116.444 9   1375639.31247  22701745.143    22701746.9234   22701751.2784
     -1469.804       -1145.302
   5960708.999 9   4637198.18147  22185515.682    22185517.2774   22185522.6934
     -2709.230       -2111.088
  -3381336.296 9  -2625450.45648  20595628.846    20595630.0904   20595635.2184
       609.881         475.232
    922138.576 9    721302.28946  23850967.223    23850967.7964   23850973.4304
      -980.940        -764.369
  -8439041.427 9  -6558443.63548  22279832.154    22279833.3214   22279838.8664
      2621.192        2042.487
 96 10 17 16 10 29.9990000  0  9 17  1 28  3 26  6 23 22 21         -0.000041861
  -1857273.941 9  -1435606.79948  20540173.530    20540174.6434   20540179.6524
       277.087         215.912
  -2363093.211 8  -1522204.17545  25070071.612    25070071.7314   25070079.4164
      4142.163        3227.659
  -6292902.963 9  -4888956.659 9  20560210.490    20560211.797    20560215.997
      1437.958        1120.487
  -9945764.098 9  -7736829.51447  23462383.267    23462384.7624   23462389.9604
      3667.215        2857.570
   1807443.079 9   1410179.53847  22710180.254    22710182.0054   22710186.3494
     -1485.351       -1157.416
   6042137.518 9   4700648.94847  22201011.029    22201012.6704   22201018.0774
     -2719.446       -2119.049
  -3399456.075 9  -2639569.75948  20592180.710    20592182.0104   20592187.1394
       598.125         466.071
    951743.510 9    744371.04446  23856600.750    23856601.4264   23856607.0784
      -992.764        -773.582
  -8517548.830 9  -6619618.23248  22264892.767    22264893.8714   22264899.4204
      2612.578        2035.775
 96 10 17 16 10 59.9990000  0  9 17  1 28  3 26  6 23 22 21         -0.000050649
  -1865465.255 9  -1441989.64648  20538614.812    20538615.9114   20538620.9294
       269.088         209.679
  -2487393.890 8  -1619061.82345  25046417.504    25046418.0694   25046425.8324
      4144.399        3229.402
  -6335764.090 9  -4922354.946 9  20552054.251    20552055.609    20552059.806
      1419.444        1106.060
 -10055646.124 9  -7822451.84947  23441473.470    23441474.9324   23441480.1384
      3658.222        2850.562
   1852257.297 9   1445099.69947  22718708.037    22718709.8934   22718714.2054
     -1502.237       -1170.574
   6123883.874 9   4764347.38247  22216566.918    22216568.5154   22216573.9444
     -2730.283       -2127.493
  -3417222.763 9  -2653413.92848  20588799.881    20588801.1294   20588806.2634
       586.413         456.945
    981710.145 9    767721.65446  23862303.233    23862303.9644   23862309.5934
     -1004.895        -783.035
  -8595794.272 9  -6680588.70248  22250003.132    22250004.2114   22250009.8194
      2603.796        2028.932
 96 10 17 16 11 29.9990000  0  9 17  1 28  3 26  6 23 22 21         -0.000059415
  -1873409.340 9  -1448179.84648  20537103.130    20537104.1974   20537109.2284
       260.560         203.034
  -2611752.896 8  -1715964.92145  25022751.582    25022753.1894   25022761.0224
      4146.418        3230.975
  -6378060.594 9  -4955313.266 9  20544005.525    20544006.867    20544011.053
      1400.451        1091.261
 -10165252.869 9  -7907859.68247  23420616.014    23420617.4494   23420622.7104
      3649.038        2843.406
   1897586.486 9   1480421.12747  22727333.894    22727335.8074   22727340.1004
     -1519.578       -1184.087
   6205957.700 9   4828300.97647  22232184.993    22232186.6914   22232192.1714
     -2741.156       -2135.966
  -3434633.450 9  -2666980.69348  20585486.722    20585487.9874   20585493.0864
       574.510         447.670
   1012042.668 9    791357.36646  23868075.227    23868076.0044   23868081.7564
     -1016.917        -792.403
  -8673764.276 9  -6741344.55048  22235165.898    22235167.0134   22235172.6274
      2594.301        2021.533
 96 10 17 16 11 59.9990000  0  9 17  1 28  3 26  6 23 22 21         -0.000068168
  -1881118.022 9  -1454186.61648  20535636.190    20535637.3074   20535642.3144
       253.138         197.250
  -2736184.700 8  -1812924.73045  24999072.931    24999074.6144   24999082.5094
      4148.978        3232.970
  -6419806.102 9  -4987842.240 9  20536061.661    20536062.983    20536067.159
      1382.507        1077.278
 -10274605.735 9  -7993069.69647  23399806.708    23399808.3114   23399813.5804
      3641.068        2837.196
   1943420.759 9   1516136.13147  22736055.954    22736057.7804   22736062.0704
     -1536.130       -1196.984
   6288338.747 9   4892493.96747  22247861.695    22247863.3284   22247868.8194
     -2750.932       -2143.583
  -3451713.579 9  -2680289.88248  20582236.502    20582237.7154   20582242.8274
       564.158         439.604
   1042707.699 9    815252.18246  23873910.592    23873911.3674   23873917.0814
     -1027.382        -800.557
  -8751467.504 9  -6801892.52048  22220379.390    22220380.5564   22220386.2044
      2585.841        2014.941
 96 10 17 16 12 29.9990000  0  9 17  1 28  3 26  6 23 22 21         -0.000076914
  -1888596.977 9  -1460014.37848  20534213.008    20534214.1524   20534219.1014
       245.177         191.047
  -2860685.210 8  -1909938.11945  24975381.601    24975383.1474   24975390.6824
      4150.913        3234.478
  -6461009.787 9  -5019949.012 9  20528220.846    20528222.185    20528226.369
      1364.141        1062.967
 -10383724.288 9  -8078097.12647  23379042.144    23379043.6904   23379049.0184
      3633.351        2831.183
   1989761.572 9   1552245.84447  22744874.355    22744876.1494   22744880.4274
     -1553.430       -1210.465
   6371014.078 9   4956916.27247  22263594.300    22263595.9574   22263601.4724
     -2760.977       -2151.411
  -3468481.018 9  -2693355.41648  20579045.726    20579046.9744   20579052.0584
       553.264         431.115
   1073679.903 9    839386.34846  23879804.352    23879805.1304   23879810.9334
     -1037.792        -808.669
  -8828915.516 9  -6862241.62048  22205641.524    22205642.7244   22205648.3234
      2577.171        2008.185
 96 10 17 16 12 59.9990000  0  9 17  1 28  3 26  6 23 22 21         -0.000085664
  -1895831.354 9  -1465651.55948  20532836.382    20532837.5374   20532842.4394
       236.570         184.340
  -2985246.579 8  -2006998.91345  24951678.249    24951679.9794   24951687.2574
      4152.498        3235.713
  -6501663.183 9  -5051626.986 9  20520484.757    20520486.107    20520490.297
      1345.609        1048.526
 -10492618.604 9  -8162949.82247  23358320.339    23358321.8144   23358327.1034
      3625.728        2825.243
   2036612.395 9   1588752.96847  22753789.763    22753791.5994   22753795.8744
     -1570.261       -1223.580
   6453985.851 9   5021569.57147  22279383.437    22279385.0214   22279390.5284
     -2770.929       -2159.165
  -3484915.121 9  -2706161.20848  20575918.422    20575919.6864   20575924.7584
       541.814         422.193
   1104966.856 9    863765.76846  23885758.149    23885758.8574   23885764.5934
     -1048.585        -817.079
  -8906117.502 9  -6922399.00448  22190950.559    22190951.7054   22190957.2504
      2569.173        2001.953
 96 10 17 16 13 29.9990000  0  9 17  1 28  3 26  6 23 22 21         -0.000094437
  -1902812.039 9  -1471091.05948  20531508.028    20531509.1574   20531514.0824
       228.494         178.047
  -3109859.456 9  -2104099.83745  24927965.194    24927966.7504   24927974.2524
      4154.740        3237.460
  -6541772.594 9  -5082881.080 9  20512852.192    20512853.554    20512857.729
      1328.097        1034.881
 -10601301.247 9  -8247637.57647  23337638.705    23337640.1664   23337645.4194
      3619.500        2820.390
   2083938.433 9   1625630.38647  22762795.546    22762797.4444   22762801.6994
     -1584.975       -1235.045
   6537240.211 9   5086443.06747  22295226.229    22295227.8374   22295233.3604
     -2779.721       -2166.016
  -3501017.132 9  -2718708.22848  20572854.426    20572855.6014   20572860.6464
       531.445         414.113
   1136567.312 9    888389.48646  23891771.673    23891772.2734   23891777.9404
     -1058.610        -824.891
  -8983091.151 9  -6982378.47448  22176302.974    22176304.1134   22176309.6564
      2562.092        1996.435
 96 10 17 16 13 59.9990000  0  9 17  1 28  3 26  6 23 22 21         -0.000103238
  -1909536.214 9  -1476330.67948  20530228.463    20530229.5884   20530234.5054
       219.474         171.019
  -3234518.945 9  -2201237.06745  24904243.126    24904244.8934   24904252.2604
      4155.551        3238.092
  -6581341.194 9  -5113713.763 9  20505322.590    20505323.929    20505328.085
      1309.425        1020.331
 -10709784.784 9  -8332170.18847  23316995.061    23316996.3844   23317001.6654
      3612.333        2814.805
   2131714.999 9   1662858.86547  22771887.345    22771889.0584   22771893.2784
     -1600.466       -1247.116
   6620772.504 9   5151533.13447  22311121.983    22311123.5444   22311129.0544
     -2789.343       -2173.514
  -3516795.526 9  -2731003.08348  20569851.888    20569853.0844   20569858.1434
       519.978         405.178
   1168496.888 9    913269.65546  23897847.656    23897848.3174   23897853.9234
     -1070.597        -834.231
  -9059837.562 9  -7042180.87048  22161698.603    22161699.7544   22161705.3374
      2553.988        1990.120
 96 10 17 16 14 29.9990000  0  9 17  1 28  3 26  6 23 22 21         -0.000112061
  -1915989.271 9  -1481359.04248  20529000.482    20529001.6404   20529006.5114
       210.874         164.317
  -3359209.606 9  -2298398.59145  24880515.451    24880516.9844   24880524.4094
      4157.334        3239.481
  -6620351.285 9  -5144111.241 9  20497899.229    20497900.557    20497904.728
      1291.377        1006.268
 -10818050.966 9  -8416533.43547  23296392.590    23296394.0184   23296399.2714
      3605.251        2809.286
   2179945.657 9   1700441.18347  22781065.377    22781067.0674   22781071.2864
     -1614.662       -1258.178
   6704587.374 9   5216843.39547  22327071.327    22327073.0554   22327078.5314
     -2798.212       -2180.425
  -3532223.351 9  -2743024.76248  20566916.139    20566917.2854   20566922.3404
       508.703         396.392
   1200794.028 9    938436.24246  23903993.653    23903994.3174   23903999.8674
     -1082.502        -843.508
  -9136341.518 9  -7101794.34048  22147140.378    22147141.5384   22147147.1194
      2546.364        1984.180
 96 10 17 16 14 59.9990000  0  9 17  1 28  3 26  6 23 22 21         -0.000120906
  -1922173.992 9  -1486178.31148  20527823.594    20527824.7344   20527829.5754
       201.782         157.233
  -3483955.379 9  -2395603.05245  24856777.144    24856778.7104   24856785.9164
      4159.337        3241.042
  -6658813.409 9  -5174081.736 9  20490580.109    20490581.453    20490585.634
      1273.019         991.963
 -10926087.412 9  -8500717.66247  23275833.865    23275835.3594   23275840.6074
      3597.328        2803.113
   2228601.758 9   1738355.00847  22790324.388    22790326.0614   22790330.2874
     -1628.835       -1269.222
   6788682.734 9   5282372.21447  22343074.321    22343075.9174   22343081.3484
     -2807.842       -2187.929
  -3547312.271 9  -2754782.36248  20564044.818    20564045.9744   20564051.0034
       497.612         387.750
   1233459.894 9    963890.15746  23910209.765    23910210.4954   23910215.9844
     -1094.880        -853.153
  -9212605.754 9  -7161221.02048  22132627.725    22132628.9664   22132634.5174
      2538.080        1977.725
 96 10 17 16 15 29.9990000  0  9 17  1 28  3 26  6 23 22 21         -0.000129752
  -1928075.748 9  -1490777.08348  20526700.506    20526701.6854   20526706.5034
       191.816         149.467
  -3608753.878 9  -2492848.58945  24833029.200    24833030.1834   24833037.5014
      4160.761        3242.151
  -6696713.446 9  -5203614.236 9  20483367.991    20483369.345    20483373.521
      1253.765         976.960
 -11033869.178 9  -8584703.44247  23255323.784    23255325.1984   23255330.3884
      3588.291        2796.071
   2277699.399 9   1776612.88847  22799667.577    22799669.0704   22799673.2994
     -1644.331       -1281.297
   6873074.173 9   5348131.74847  22359133.506    22359135.0654   22359140.5344
     -2818.178       -2195.983
  -3562063.837 9  -2766277.08948  20561237.640    20561238.8354   20561243.8664
       485.953         378.665
   1266500.562 9    989636.10946  23916497.192    23916497.9574   23916503.3924
     -1107.602        -863.066
  -9288598.028 9  -7220435.77948  22118166.962    22118168.1164   22118173.6604
      2528.158        1969.993
 96 10 17 16 15 59.9990000  0  9 17  1 28  3 26  6 23 22 21         -0.000138596
  -1933690.313 9  -1495152.07748  20525632.160    20525633.2794   20525638.0994
       182.223         141.992
  -3733608.541 9  -2590137.89845  24809270.441    24809271.2044   24809278.4324
      4162.479        3243.490
  -6734043.772 9  -5232702.810 9  20476264.294    20476265.627    20476269.810
      1234.531         961.972
 -11141383.719 9  -8668480.99547  23234864.453    23234865.8874   23234871.0464
      3578.851        2788.715
   2327260.368 9   1815231.81047  22809098.770    22809100.2184   22809104.4634
     -1660.150       -1293.623
   6957757.134 9   5414118.44247  22375248.056    22375249.7024   22375255.1984
     -2827.809       -2203.488
  -3576470.267 9  -2777502.87848  20558496.213    20558497.4034   20558502.4104
       474.023         369.369
   1299904.115 9   1015664.83146  23922853.709    23922854.4674   23922859.8434
     -1119.477        -872.320
  -9364303.337 9  -7279426.92948  22103760.739    22103761.8964   22103767.4354
      2518.638        1962.575
 96 10 17 16 16 29.9990000  0  9 17  1 28  3 26  6 23 22 21         -0.000147438
  -1939023.660 9  -1499307.93448  20524617.307    20524618.3954   20524623.2124
       173.238         134.991
  -3858519.100 9  -2687470.77146  24785500.741    24785501.5304   24785508.6574
      4164.627        3245.164
  -6770801.980 9  -5261345.576 9  20469269.422    20469270.758    20469274.981
      1215.861         947.424
 -11248613.960 9  -8752037.01447  23214459.217    23214460.6624   23214465.7704
      3569.598        2781.505
   2377293.965 9   1854219.01147  22818619.796    22818621.2914   22818625.5264
     -1675.617       -1305.676
   7042732.666 9   5480333.11347  22391418.495    22391420.0104   22391425.5674
     -2837.392       -2210.955
  -3590521.646 9  -2788452.00448  20555822.327    20555823.4754   20555828.4944
       462.764         360.595
   1333646.566 9   1041957.64546  23929274.668    23929275.4814   23929280.8434
     -1130.064        -880.569
  -9439742.443 9  -7338210.64648  22089405.221    22089406.3344   22089411.8874
      2510.545        1956.269
 96 10 17 16 16 59.9990000  0  9 17  1 28  3 26  6 23 22 21         -0.000156289
  -1944107.736 9  -1503269.55648  20523649.873    20523650.9524   20523655.7564
       165.495         128.957
  -3983506.300 9  -2784863.33846  24761716.796    24761717.2924   24761724.3064
      4167.426        3247.345
  -6807010.229 9  -5289559.803 9  20462379.263    20462380.591    20462384.782
      1197.644         933.229
 -11355582.541 9  -8835389.14947  23194103.943    23194105.2004   23194110.3374
      3561.411        2775.125
   2427787.400 9   1893564.52947  22828228.190    22828229.8424   22828234.1234
     -1690.975       -1317.643
   7127979.190 9   5546758.93747  22407640.438    22407641.9164   22407647.5474
     -2846.028       -2217.684
  -3604258.715 9  -2799156.21248  20553208.202    20553209.3844   20553214.4154
       452.585         352.664
   1367683.803 9   1068480.14146  23935751.724    23935752.5754   23935757.9554
     -1139.383        -887.831
  -9514953.488 9  -7396816.65148  22075093.058    22075094.1664   22075099.6974
      2503.112        1950.477
 96 10 17 16 17 29.9990000  0  9 17  1 28  3 26  6 23 22 21         -0.000165153
  -1948959.012 9  -1507049.77948  20522726.646    20522727.7534   20522732.5714
       157.743         122.917
  -4108551.854 9  -2882301.37446  24737921.511    24737921.9364   24737928.8644
      4168.757        3248.382
  -6842658.616 9  -5317337.773 9  20455595.616    20455596.938    20455601.136
      1178.683         918.454
 -11462296.494 9  -8918542.86447  23173796.828    23173798.2284   23173803.3454
      3552.587        2768.250
   2478752.735 9   1933277.75147  22837926.618    22837928.2414   22837932.5054
     -1706.945       -1330.087
   7213495.617 9   5613395.08347  22423913.650    22423915.1774   22423920.8864
     -2855.420       -2225.003
  -3617671.436 9  -2809607.68648  20550655.870    20550657.0334   20550662.0464
       441.261         343.840
   1402002.413 9   1095221.89946  23942282.415    23942283.1914   23942288.6124
     -1148.726        -895.111
  -9589925.819 9  -7455236.64948  22060826.347    22060827.4074   22060832.9324
      2494.888        1944.069
 96 10 17 16 17 59.9990000  0  9 17  1 28  3 26  6 23 22 21         -0.000174017
  -1953577.511 9  -1510648.61548  20521847.802    20521848.8894   20521853.7094
       150.356         117.160
  -4233629.396 9  -2979764.37046  24714120.133    24714120.4834   24714127.3134
      4169.881        3249.258
  -6877729.762 9  -5344665.946 9  20448921.764    20448923.122    20448927.335
      1159.551         903.546
 -11568728.799 9  -9001477.11247  23153543.337    23153544.8174   23153549.9174
      3542.964        2760.751
   2530204.204 9   1973369.79347  22847717.475    22847719.1684   22847723.3854
     -1722.907       -1342.525
   7299308.144 9   5680261.95747  22440243.393    22440244.8104   22440250.5554
     -2865.294       -2232.697
  -3630734.380 9  -2819786.60448  20548170.029    20548171.2424   20548176.2694
       429.819         334.924
   1436610.462 9   1122189.18346  23948868.137    23948868.8344   23948874.2994
     -1158.327        -902.592
  -9664648.936 9  -7513462.44848  22046607.016    22046608.0824   22046613.6274
      2486.875        1937.825
 96 10 17 16 18 29.9990000  0  9 17  1 28  3 26  6 23 22 21         -0.000182881
  -1957984.083 9  -1514082.30948  20521009.371    20521010.3574   20521015.1764
       143.193         111.579
  -4358745.730 9  -3077257.56246  24690311.021    24690311.5644   24690318.4394
      4171.331        3250.388
  -6912241.268 9  -5371558.034 9  20442354.390    20442355.826    20442360.031
      1141.043         889.124
 -11674881.125 9  -9084193.19647  23133343.229    23133344.6614   23133349.7964
      3533.771        2753.588
   2582120.692 9   2013824.18347  22857596.792    22857598.5394   22857602.7634
     -1738.346       -1354.555
   7385411.060 9   5747355.09647  22456628.182    22456629.6374   22456635.4234
     -2874.917       -2240.195
  -3643476.792 9  -2829715.75148  20545745.247    20545746.4594   20545751.4754
       419.564         326.933
   1471498.494 9   1149374.64846  23955507.138    23955507.8264   23955513.2334
     -1167.702        -909.898
  -9739139.167 9  -7571506.77648  22032431.918    22032433.0584   22032438.6224
      2478.806        1931.537
 96 10 17 16 18 59.9990000  0  9 17  1 28  3 26  6 23 22 21         -0.000191728
  -1962155.489 9  -1517332.76248  20520215.612    20520216.5804   20520221.3894
       134.988         105.185
  -4483888.147 9  -3174771.08146  24666496.811    24666497.6644   24666504.6994
      4171.602        3250.599
  -6946180.846 9  -5398004.467 9  20435895.968    20435897.349    20435901.557
      1121.779         874.114
 -11780740.525 9  -9166681.03247  23113198.755    23113200.2914   23113205.4004
      3523.733        2745.766
   2634513.610 9   2054649.81747  22867566.766    22867568.5614   22867572.8004
     -1754.120       -1366.847
   7471815.440 9   5814683.15247  22473070.362    22473071.8514   22473077.6404
     -2885.281       -2248.271
  -3655894.839 9  -2839392.15148  20543382.225    20543383.4054   20543388.3994
       408.295         318.152
   1506680.437 9   1176789.13246  23962202.067    23962202.7234   23962208.2284
     -1177.553        -917.574
  -9813351.312 9  -7629334.41948  22018309.837    22018310.9654   22018316.5244
      2468.845        1923.775
 96 10 17 16 19 29.9990000  0  9 17  1 28  3 26  6 23 22 21         -0.000200568
  -1966075.549 9  -1520387.35848  20519469.576    20519470.6064   20519475.4464
       126.136          98.288
  -4609042.559 8  -3272293.95846  24642680.867    24642681.5634   24642688.5084
      4171.898        3250.830
  -6979550.648 9  -5424006.917 9  20429545.948    20429547.280    20429551.485
      1102.784         859.312
 -11886301.417 9  -9248936.25747  23093111.238    23093112.6624   23093117.7774
      3513.441        2737.746
   2687361.921 9   2095830.30947  22877623.336    22877625.2374   22877629.5004
     -1769.266       -1378.649
   7558524.514 9   5882248.62847  22489570.440    22489572.0924   22489577.8554
     -2895.385       -2256.144
  -3667973.473 9  -2848804.07048  20541083.802    20541084.9154   20541089.9134
       396.983         309.337
   1542152.455 9   1204429.64846  23968952.382    23968952.9154   23968958.3654
     -1187.372        -925.225
  -9887274.607 9  -7686936.98548  22004242.683    22004243.8524   22004249.4074
      2459.468        1916.469
 96 10 17 16 19 59.9990000  0  9 17  1 28  3 26  6 23 22 21         -0.000209397
  -1969725.875 9  -1523231.76948  20518774.908    20518775.9674   20518780.8004
       116.745          90.970
  -4734211.503 8  -3369828.14346  24618861.627    24618862.6024   24618869.6314
      4172.187        3251.055
  -7012354.463 9  -5449568.334 9  20423303.488    20423304.920    20423309.145
      1083.729         844.464
 -11991552.239 9  -9330949.88247  23073082.605    23073084.0524   23073089.1804
      3503.013        2729.620
   2740663.943 9   2137364.34247  22887766.587    22887768.3024   22887772.5674
     -1784.559       -1390.565
   7645525.897 9   5950041.88547  22506126.271    22506127.8944   22506133.7084
     -2904.992       -2263.630
  -3679720.671 9  -2857957.72848  20538848.392    20538849.5014   20538854.4884
       385.793         300.618
   1577920.390 9   1232300.74846  23975758.863    23975759.4154   23975764.8074
     -1197.510        -933.125
  -9960929.815 9  -7744330.64748  21990226.585    21990227.7394   21990233.3004
      2450.478        1909.463
 96 10 17 16 20 29.9990000  0  9 17  1 28  3 26  6 23 22 21         -0.000218229
  -1973092.412 9  -1525855.05048  20518134.302    20518135.3374   20518140.1784
       107.626          83.864
  -4859393.539 8  -3467372.53646  24595040.411    24595041.2594   24595048.2354
      4173.283        3251.909
  -7044590.783 9  -5474687.554 9  20417169.162    20417170.574    20417174.780
      1065.264         830.076
 -12096510.327 9  -9412735.39147  23053109.726    23053111.2014   23053116.3504
      3494.288        2722.822
   2794415.752 9   2179248.84847  22897995.237    22897996.9624   22898001.2404
     -1798.835       -1401.690
   7732799.822 9   6018047.49347  22522733.828    22522735.5544   22522741.4254
     -2913.222       -2270.043
  -3691135.311 9  -2866852.24948  20536676.214    20536677.3584   20536682.3724
       375.082         292.272
   1613984.242 9   1260402.42146  23982621.663    23982622.1254   23982627.6044
     -1206.719        -940.301
 -10034321.182 9  -7801518.72548  21976260.691    21976261.8324   21976267.4074
      2442.277        1903.073
 96 10 17 16 20 59.9990000  0  9 17  1 28  3 26  6 23 22 21         -0.000227085
  -1976169.851 9  -1528253.05648  20517548.641    20517549.7294   20517554.5564
        98.418          76.689
  -4984582.493 8  -3564922.31646  24571217.522    24571218.5454   24571225.4724
      4173.382        3251.986
  -7076251.474 9  -5499358.229 9  20411144.424    20411145.750    20411149.978
      1046.245         815.256
 -12201196.854 9  -9494309.29847  23033188.617    23033190.0354   23033195.1374
      3485.632        2716.077
   2848606.067 9   2221475.05847  22908307.450    22908309.0444   22908313.3194
     -1812.888       -1412.640
   7820333.720 9   6086255.68547  22539391.055    22539392.7624   22539398.6344
     -2921.567       -2276.546
  -3702202.156 9  -2875475.76048  20534570.253    20534571.3974   20534576.4204
       363.601         283.325
   1650337.484 9   1288729.60447  23989539.279    23989539.9394   23989545.4184
     -1216.082        -947.596
 -10107454.621 9  -7858505.81448  21962343.941    21962345.0324   21962350.5664
      2434.196        1896.776
 96 10 17 16 21 29.9990000  0  9 17  1 28  3 26  6 23 22 21         -0.000236031
  -1978975.600 9  -1530439.36348  20517014.721    20517015.8104   20517020.6204
        88.985          69.339
  -5109773.965 8  -3662474.04146  24547393.984    24547395.2244   24547402.3544
      4173.082        3251.752
  -7107341.187 9  -5523583.988 9  20405228.246    20405229.576    20405233.814
      1026.696         800.023
 -12305625.362 9  -9575682.14947  23013316.548    23013317.9474   23013322.9994
      3476.562        2709.009
   2903218.025 9   2264029.81347  22918699.576    22918701.3324   22918705.6104
     -1827.618       -1424.118
   7908110.224 9   6154652.92347  22556094.560    22556096.1094   22556101.9534
     -2929.731       -2282.907
  -3712929.591 9  -2883834.79848  20532528.841    20532530.0354   20532535.0684
       352.096         274.361
   1686984.360 9   1317285.59146  23996512.888    23996513.5954   23996519.1354
     -1226.678        -955.853
 -10180356.214 9  -7915312.24848  21948471.280    21948472.3224   21948477.8244
      2426.245        1890.581
 96 10 17 16 21 59.9990000  0  9 17  1 28  3 26  6 23 22 21         -0.000244935
  -1981504.256 9  -1532409.74548  20516533.623    20516534.6374   20516539.4414
        79.597          62.024
  -5234957.334 8  -3760019.45246  24523572.285    24523573.5524   24523580.7164
      4172.280        3251.127
  -7137842.548 9  -5547351.289 9  20399424.030    20399425.376    20399429.611
      1006.654         784.406
 -12409781.066 9  -9656842.43647  22993496.555    22993497.8014   22993502.8144
      3467.082        2701.622
   2958267.980 9   2306925.87447  22929175.376    22929177.0344   22929181.2884
     -1842.323       -1435.576
   7996128.070 9   6223238.21747  22572843.831    22572845.4014   22572851.2414
     -2938.257       -2289.551
  -3723314.020 9  -2891926.56148  20530552.791    20530553.9364   20530558.9754
       340.263         265.140
   1723949.737 9   1346089.76347  24003547.154    24003547.8674   24003553.4574
     -1237.625        -964.383
 -10253013.374 9  -7971928.21348  21934645.063    21934646.1064   21934651.5984
      2417.481        1883.751
 96 10 17 16 22 29.9990000  0  9 17  1 28  3 26  6 23 22 21         -0.000253860
  -1983771.059 9  -1534176.09448  20516102.230    20516103.2964   20516108.0934
        71.633          55.818
  -5360134.726 8  -3857560.19146  24499752.065    24499752.9744   24499760.3014
      4172.922        3251.628
  -7167760.423 9  -5570663.929 9  20393730.876    20393732.212    20393736.443
       987.958         769.837
 -12513672.362 9  -9737796.67047  22973726.780    22973727.9054   22973732.9404
      3458.803        2695.171
   3013733.947 9   2350146.08947  22939730.273    22939731.8884   22939736.0964
     -1855.197       -1445.608
   8084384.236 9   6292009.22247  22589638.530    22589640.0314   22589645.8954
     -2945.552       -2295.235
  -3733369.617 9  -2899762.09048  20528639.265    20528640.4094   20528645.4204
       330.192         257.292
   1761220.893 9   1375132.18947  24010639.465    24010640.3414   24010645.9364
     -1247.172        -971.822
 -10325424.466 9  -8028352.43648  21920865.619    21920866.7304   21920872.2114
      2409.960        1877.891
 96 10 17 16 22 59.9990000  0  9 17  1 28  3 26  6 23 22 21         -0.000262803
  -1985789.312 9  -1535748.76248  20515718.167    20515719.2444   20515724.0414
        63.110          49.177
  -5485310.554 8  -3955099.72846  24475931.660    24475932.7774   24475940.1314
      4172.641        3251.409
  -7197105.639 9  -5593530.341 9  20388146.695    20388148.015    20388152.222
       968.660         754.800
 -12617281.889 9  -9818531.35147  22954010.453    22954011.6434   22954016.6914
      3448.524        2687.162
   3069597.782 9   2393676.34247  22950360.734    22950362.4034   22950366.5954
     -1868.948       -1456.323
   8172880.688 9   6360967.45247  22606478.850    22606480.4124   22606486.3034
     -2954.024       -2301.837
  -3743112.060 9  -2907353.60148  20526785.386    20526786.5034   20526791.4994
       319.588         249.030
   1798797.694 9   1404412.78947  24017790.154    24017790.9794   24017796.5734
     -1257.644        -979.982
 -10397599.294 9  -8084592.56048  21907131.219    21907132.3164   21907137.7994
      2401.850        1871.571
 96 10 17 16 23 29.9990000  0  9 17  1 28  3 26  6 23 22 21         -0.000271741
  -1987543.802 9  -1537115.90348  20515384.357    20515385.3934   20515390.1784
        53.816          41.934
  -5610487.217 8  -4052639.92346  24452111.042    24452112.4404   24452119.7104
      4172.613        3251.387
  -7225868.833 9  -5615943.224 9  20382673.240    20382674.579    20382678.788
       948.901         739.403
 -12720570.526 9  -9899015.99047  22934355.337    22934356.4804   22934361.5324
      3437.332        2678.441
   3125884.819 9   2437536.35947  22961071.885    22961073.4794   22961077.6664
     -1883.485       -1467.651
   8261633.719 9   6430125.62047  22623368.047    22623369.6304   22623375.4904
     -2962.826       -2308.696
  -3752536.121 9  -2914697.02248  20524992.056    20524993.1774   20524998.1474
       308.681         240.531
   1836688.081 9   1433937.74447  24025000.574    24025001.3134   24025006.9634
     -1268.225        -988.227
 -10469523.598 9  -8140637.46448  21893444.460    21893445.5604   21893451.0714
      2393.077        1864.735
 96 10 17 16 23 59.9990000  0  9 17  1 28  3 26  6 23 22 21         -0.000280681
  -1989040.956 9  -1538282.51948  20515099.460    20515100.5184   20515105.3264
        45.589          35.524
  -5735686.161 8  -4150197.47346  24428286.082    24428287.7564   24428295.0294
      4173.685        3252.222
  -7254058.324 9  -5637909.071 9  20377308.954    20377310.308    20377314.528
       929.969         724.651
 -12823536.230 9  -9979248.99647  22914761.460    22914762.7404   22914767.8094
      3426.709        2670.163
   3182589.484 9   2481721.80647  22971862.476    22971864.0254   22971868.2454
     -1897.266       -1478.389
   8350642.462 9   6499483.04547  22640305.923    22640307.4364   22640313.2534
     -2971.499       -2315.454
  -3761649.603 9  -2921798.43548  20523257.853    20523258.9474   20523263.8894
       298.455         232.562
   1874862.140 9   1463683.72847  24032264.842    24032265.5544   24032271.2874
     -1277.125        -995.162
 -10541200.637 9  -8196489.70048  21879804.723    21879805.8784   21879811.3884
      2384.972        1858.420
 96 10 17 16 24 29.9990000  0  9 17  1 28  3 26  6 23 22 21         -0.000289607
  -1990257.238 9  -1539230.27948  20514867.958    20514869.0374   20514873.8684
        35.833          27.922
  -5860895.840 9  -4247763.39846  24404459.806    24404461.1944   24404468.4134
      4173.859        3252.358
  -7281651.474 9  -5659410.233 9  20372058.155    20372059.508    20372063.738
       909.911         709.022
 -12926158.875 9 -10059214.68547  22895232.872    22895234.3214   22895239.3204
      3415.177        2661.177
   3239743.314 9   2526257.24047  22982738.634    22982740.0654   22982744.2854
     -1912.570       -1490.314
   8439938.291 9   6569064.16647  22657298.220    22657299.8764   22657305.7344
     -2981.089       -2322.926
  -3770426.865 9  -2928637.85748  20521587.555    20521588.6734   20521593.6204
       286.935         223.586
   1913332.404 9   1493660.53647  24039585.647    24039586.2654   24039591.9614
     -1287.320       -1003.106
 -10612608.466 9  -8252132.15548  21866216.276    21866217.4574   21866222.9254
      2375.809        1851.280
 96 10 17 16 24 59.9990000  0  9 17  1 28  3 26  6 23 22 21         -0.000298529
  -1991199.238 9  -1539964.31248  20514688.712    20514689.8154   20514694.6404
        27.238          21.224
  -5986124.759 9  -4345344.33146  24380630.019    24380631.0094   24380638.1294
      4175.027        3253.268
  -7308658.788 9  -5680454.902 9  20366918.824    20366920.196    20366924.427
       890.895         694.204
 -13028455.947 9 -10138926.68447  22875766.404    22875767.8244   22875772.7964
      3405.134        2653.351
   3297343.157 9   2571140.22347  22993699.488    22993700.9514   22993705.2054
     -1927.076       -1501.618
   8529496.134 9   6638849.46047  22674340.690    22674342.1874   22674348.0784
     -2989.035       -2329.118
  -3778874.689 9  -2935220.57848  20519979.959    20519981.1154   20519986.0314
       276.716         215.623
   1952088.519 9   1523860.08447  24046960.657    24046961.3644   24046967.0364
     -1295.964       -1009.842
 -10683753.430 9  -8307569.78448  21852677.895    21852679.0564   21852684.5044
      2367.488        1844.796
 96 10 17 16 25 29.9990000  0  9 17  1 28  3 26  6 23 22 21         -0.000307456
  -1991873.897 9  -1540490.02948  20514560.401    20514561.4624   20514566.2674
        17.604          13.717
  -6111376.748 9  -4442943.25146  24356795.683    24356796.3844   24356803.3264
      4174.802        3253.092
  -7335085.476 9  -5701047.134 9  20361889.967    20361891.367    20361895.623
       870.759         678.514
 -13130450.596 9 -10218403.03147  22856357.485    22856358.9104   22856363.8554
      3394.449        2645.025
   3355381.998 9   2616365.28847  23004743.864    23004745.4134   23004749.6784
     -1942.262       -1513.451
   8619296.500 9   6708823.72547  22691428.921    22691430.6334   22691436.5514
     -2997.723       -2335.888
  -3787017.471 9  -2941565.60148  20518430.448    20518431.5894   20518436.5314
       266.034         207.299
   1991105.502 9   1554262.89147  24054385.293    24054386.1444   24054391.8124
     -1305.454       -1017.237
 -10754632.662 9  -8362800.34948  21839190.040    21839191.1994   21839196.6414
      2357.755        1837.212
 96 10 17 16 25 59.9990000  0  9 17  1 28  3 26  6 23 22 21         -0.000316382
  -1992277.977 9  -1540804.90648  20514483.555    20514484.5684   20514489.3854
         8.877           6.917
  -6236632.385 9  -4540545.01546  24332960.398    24332961.1054   24332967.8594
      4175.054        3253.289
  -7360925.343 9  -5721182.103 9  20356972.787    20356974.211    20356978.479
       851.535         663.534
 -13232143.556 9 -10297644.29347  22837005.888    22837007.3604   22837012.3354
      3384.624        2637.369
   3413865.047 9   2661936.48247  23015872.800    23015874.3134   23015878.6104
     -1956.971       -1524.912
   8709336.445 9   6778984.67947  22708562.799    22708564.6704   22708570.6344
     -3005.193       -2341.709
  -3794859.118 9  -2947675.97548  20516938.223    20516939.3644   20516944.3134
       256.327         199.735
   2030397.429 9   1584879.95147  24061862.490    24061863.2194   24061868.8814
     -1314.417       -1024.221
 -10825238.696 9  -8417818.03448  21825754.160    21825755.3304   21825760.7724
      2348.905        1830.316
 96 10 17 16 26 29.9990000  0  9 17  1 28  3 26  6 23 22 21         -0.000325298
  -1992401.869 9  -1540901.44548  20514459.965    20514460.9844   20514465.8164
        -0.858          -0.668
  -6361873.068 9  -4638135.13146  24309127.706    24309128.4884   24309135.2814
      4173.890        3252.382
  -7386174.401 9  -5740856.697 9  20352168.068    20352169.471    20352173.769
       831.452         647.885
 -13333520.906 9 -10376639.62747  22817714.346    22817715.9054   22817720.8464
      3373.556        2628.745
   3472803.746 9   2707862.73447  23027088.306    23027089.9144   23027094.2744
     -1972.367       -1536.909
   8799606.576 9   6849324.99747  22725740.619    22725742.5204   22725748.5254
     -3013.041       -2347.824
  -3802399.030 9  -2953551.22548  20515503.432    20515504.5554   20515509.5194
       246.087         191.756
   2069973.424 9   1615718.36347  24069393.579    24069394.2694   24069399.9814
     -1324.270       -1031.899
 -10895570.861 9  -8472622.30848  21812370.404    21812371.5584   21812376.9864
      2339.625        1823.084
 96 10 17 16 26 59.9990000  0  9 17  1 28  3 26  6 23 22 21         -0.000334189
  -1992230.681 9  -1540768.05948  20514492.578    20514493.6034   20514498.4134
       -10.112          -7.879
  -6487066.945 9  -4735688.78246  24285303.898    24285305.0064   24285311.6124
      4172.858        3251.578
  -7410814.753 9  -5760056.981 9  20347479.215    20347480.571    20347484.869
       811.721         632.510
 -13434555.436 9 -10455367.82947  22798488.166    22798489.6694   22798494.6014
      3362.512        2620.139
   3532205.036 9   2754149.42747  23038391.946    23038393.6214   23038398.0254
     -1987.221       -1548.484
   8890119.547 9   6919854.54347  22742964.806    22742966.5734   22742972.6394
     -3020.737       -2353.821
  -3809630.860 9  -2959186.41948  20514127.220    20514128.3854   20514133.3394
       236.557         184.330
   2109844.444 9   1646786.66546  24076980.820    24076981.5154   24076987.2174
     -1333.246       -1038.893
 -10965618.877 9  -8527205.17448  21799040.732    21799041.8504   21799047.2864
      2330.838        1816.237
 96 10 17 16 27 29.9990000  0  9 17  1 28  3 26  6 23 22 21         -0.000343073
  -1991795.098 9  -1540428.65348  20514575.493    20514576.5254   20514581.3204
       -19.601         -15.274
  -6612249.092 9  -4833233.29746  24261482.695    24261483.5084   24261490.1564
      4172.002        3250.911
  -7434878.501 9  -5778807.963 9  20342900.011    20342901.412    20342905.707
       791.888         617.056
 -13535270.355 9 -10533846.97747  22779322.719    22779324.2174   22779329.1894
      3351.086        2611.236
   3592039.682 9   2800773.81147  23049778.175    23049779.8084   23049784.2544
     -2002.380       -1560.296
   8980852.395 9   6990555.43147  22760230.811    22760232.5124   22760238.5734
     -3028.716       -2360.038
  -3816586.167 9  -2964606.13848  20512803.719    20512804.8224   20512809.8044
       226.306         176.342
   2149970.311 9   1678053.54946  24084616.584    24084617.1614   24084622.9424
     -1342.615       -1046.194
 -11035423.843 9  -8581598.64648  21785757.317    21785758.4214   21785763.8184
      2322.232        1809.531
 96 10 17 16 27 59.9990000  0  9 17  1 28  3 26  6 23 22 21         -0.000351944
  -1991077.124 9  -1539869.19548  20514712.136    20514713.1894   20514717.9654
       -28.797         -22.439
  -6737403.735 9  -4930756.37946  24237666.677    24237667.3564   24237674.0204
      4170.972        3250.108
  -7458350.212 9  -5797097.616 9  20338433.548    20338434.903    20338439.213
       772.286         601.781
 -13635644.458 9 -10612060.55747  22760222.138    22760223.6854   22760228.6334
      3340.029        2602.620
   3652322.564 9   2847747.46747  23061249.541    23061251.2634   23061255.7224
     -2016.737       -1571.483
   9071824.775 9   7061442.95747  22777542.329    22777543.9904   22777550.0334
     -3036.715       -2366.271
  -3823227.633 9  -2969781.30948  20511539.873    20511540.9854   20511545.9704
       215.743         168.111
   2190375.755 9   1709538.28146  24092305.475    24092306.0194   24092311.8844
     -1351.554       -1053.159
 -11104977.939 9  -8635796.63448  21772521.630    21772522.7254   21772528.1094
      2314.025        1803.136
 96 10 17 16 28 29.9990000  0  9 17  1 28  3 26  6 23 22 21         -0.000360815
  -1990079.046 9  -1539091.48148  20514902.052    20514903.1354   20514907.9394
       -37.849         -29.493
  -6862524.116 9  -5028252.77046  24213857.040    24213857.7684   24213864.3664
      4170.324        3249.603
  -7481227.658 9  -5814924.211 9  20334080.124    20334081.466    20334085.783
       752.774         586.577
 -13735693.730 9 -10690021.03047  22741183.501    22741184.9424   22741189.8384
      3330.027        2594.826
   3713021.556 9   2895045.35747  23072800.246    23072801.8734   23072806.3924
     -2029.829       -1581.685
   9163049.579 9   7132527.17847  22794901.838    22794903.5144   22794909.5474
     -3045.024       -2372.746
  -3829546.766 9  -2974705.30948  20510337.407    20510338.5254   20510343.4894
       205.455         160.095
   2231047.510 9   1741230.51646  24100044.882    24100045.6004   24100051.5064
     -1360.118       -1059.832
 -11174282.386 9  -8689800.09348  21759333.396    21759334.5184   21759339.9064
      2305.996        1796.880
 96 10 17 16 28 59.9990000  0  9 17  1 28  3 26  6 23 22 21         -0.000369703
  -1988802.547 9  -1538096.81048  20515145.011    20515146.0414   20515150.8814
       -46.962         -36.594
  -6987624.029 9  -5125733.21446  24190051.205    24190052.0034   24190058.6674
      4170.067        3249.403
  -7503515.050 9  -5832291.019 9  20329838.903    20329840.308    20329844.637
       733.318         571.417
 -13835448.876 9 -10767752.30247  22722200.735    22722202.1724   22722207.0774
      3320.546        2587.438
   3774115.783 9   2942651.22647  23084426.186    23084427.7584   23084432.2964
     -2042.891       -1591.863
   9254526.487 9   7203807.83947  22812309.426    22812310.9954   22812317.0464
     -3053.076       -2379.020
  -3835546.770 9  -2979380.63848  20509195.705    20509196.7704   20509201.7024
       194.824         151.811
   2271977.663 9   1773124.11646  24107833.503    24107834.3034   24107840.2354
     -1368.400       -1066.286
 -11243324.467 9  -8743599.11748  21746195.127    21746196.2364   21746201.6014
      2297.091        1789.941
 96 10 17 16 29 29.9990000  0  9 17  1 28  3 26  6 23 22 21         -0.000378619
  -1987254.258 9  -1536890.35748  20515439.662    20515440.6934   20515445.5534
       -55.604         -43.328
  -7112721.498 9  -5223211.74546  24166245.815    24166246.7734   24166253.3394
      4170.313        3249.595
  -7525219.464 9  -5849203.560 9  20325708.751    20325710.106    20325714.425
       714.195         556.515
 -13934920.782 9 -10845262.86747  22703271.909    22703273.3194   22703278.2654
      3311.250        2580.195
   3835594.938 9   2990557.04647  23096125.269    23096126.9024   23096131.3644
     -2055.055       -1601.341
   9346245.356 9   7275277.04847  22829763.051    22829764.5334   22829770.5984
     -3060.740       -2384.992
  -3841224.769 9  -2983805.05248  20508115.198    20508116.2704   20508121.2284
       184.259         143.578
   2313159.234 9   1805213.62746  24115670.192    24115670.9544   24115676.7644
     -1376.562       -1072.646
 -11312098.770 9  -8797189.47548  21733107.779    21733108.9404   21733114.2684
      2288.292        1783.085
 96 10 17 16 29 59.9990000  0  9 17  1 28  3 26  6 23 22 21         -0.000387569
  -1985451.846 9  -1535485.88448  20515782.637    20515783.6934   20515788.5594
       -64.343         -50.137
  -7237812.965 9  -5320685.60446  24142441.705    24142442.6514   24142449.2274
      4169.482        3248.947
  -7546345.570 9  -5865665.468 9  20321688.554    20321689.936    20321694.274
       694.498         541.167
 -14034105.707 9 -10922549.81047  22684397.633    22684399.0664   22684404.0394
      3301.280        2572.426
   3897432.130 9   3038741.84547  23107892.509    23107894.1654   23107898.6054
     -2067.236       -1610.833
   9438194.749 9   7346925.88647  22847260.623    22847261.9564   22847268.0484
     -3068.755       -2391.238
  -3846584.834 9  -2987981.72548  20507095.193    20507096.2814   20507101.2124
       173.462         135.165
   2354585.805 9   1837494.03246  24123553.404    24123554.1324   24123560.0024
     -1384.803       -1079.067
 -11380603.666 9  -8850569.90648  21720071.753    21720072.8704   21720078.2064
      2279.089        1775.914
 96 10 17 16 30 29.9990000  0  9 17  1 28  3 26  6 23 22 21         -0.000396542
  -1983370.569 9  -1533864.12348  20516178.699    20516179.7504   20516184.6304
       -74.612         -58.139
  -7362885.608 9  -5418144.79146  24118641.295    24118642.0854   24118648.5444
      4168.336        3248.054
  -7566875.727 9  -5881663.004 9  20317781.826    20317783.174    20317787.528
       673.958         525.162
 -14132974.112 9 -10999590.12347  22665583.636    22665585.0104   22665590.0464
      3289.479        2563.230
   3959648.718 9   3087222.27447  23119731.937    23119733.6364   23119738.0534
     -2080.919       -1621.495
   9530383.373 9   7418761.12747  22864803.345    22864804.9044   22864811.0594
     -3077.132       -2397.765
  -3851618.038 9  -2991903.70648  20506137.429    20506138.5164   20506143.4214
       162.001         126.235
   2396261.025 9   1869968.18146  24131483.918    24131484.7444   24131490.5794
     -1393.881       -1086.141
 -11448828.260 9  -8903731.92348  21707089.061    21707090.1584   21707095.4724
      2268.987        1768.042
 96 10 17 16 30 59.9990000  0  9 17  1 28  3 26  6 23 22 21         -0.000405518
  -1981008.387 9  -1532023.47148  20516628.278    20516629.2714   20516634.1494
       -82.658         -64.409
  -7487933.581 9  -5515584.73046  24094845.310    24094846.0594   24094852.7894
      4168.210        3247.956
  -7586810.399 9  -5897196.527 9  20313988.391    20313989.738    20313994.077
       655.201         510.546
 -14231485.049 9 -11076351.88547  22646837.708    22646838.9674   22646844.0444
      3277.940        2554.239
   4022265.431 9   3136014.49447  23131647.510    23131649.1974   23131653.6514
     -2093.242       -1631.098
   9622788.422 9   7490765.01447  22882387.835    22882389.0674   22882395.2404
     -3083.037       -2402.366
  -3856323.600 9  -2995570.37948  20505241.958    20505243.0754   20505247.9784
       151.972         118.420
   2438192.369 9   1902641.91946  24139463.419    24139464.1404   24139469.8454
     -1401.260       -1091.891
 -11516774.535 9  -8956677.06848  21694159.310    21694160.4094   21694165.7084
      2261.338        1762.082
 96 10 17 16 31 29.9990000  0  9 17  1 28  3 26  6 23 22 21         -0.000414500
  -1978380.226 9  -1529975.56248  20517128.400    20517129.4144   20517134.2814
       -92.162         -71.815
  -7612943.605 9  -5612995.07146  24071056.451    24071057.3624   24071064.1474
      4166.037        3246.263
  -7606159.516 9  -5912273.768 9  20310306.344    20310307.729    20310312.060
       635.119         494.898
 -14329620.033 9 -11152820.68847  22628163.208    22628164.4854   22628169.5844
      3264.702        2543.924
   4085264.925 9   3185104.99047  23143636.050    23143637.6584   23143642.1344
     -2106.271       -1641.250
   9715391.276 9   7562923.04447  22900009.609    22900010.8494   22900016.9994
     -3090.118       -2407.884
  -3860711.469 9  -2998989.49448  20504407.016    20504408.0724   20504413.0164
       141.025         109.890
   2480367.880 9   1935505.92946  24147489.011    24147489.9194   24147495.4764
     -1410.111       -1098.788
 -11584491.693 9  -9009443.67948  21681273.135    21681274.2204   21681279.5714
      2253.491        1755.967
 96 10 17 16 31 59.9990000  0  9 17  1 28  3 26  6 23 22 21         -0.000423479
  -1975476.386 9  -1527712.83648  20517681.003    20517682.0084   20517686.8614
      -102.372         -79.770
  -7737896.256 9  -5710360.71346  24047278.376    24047279.6124   24047286.4804
      4163.426        3244.228
  -7624920.613 9  -5926892.816 9  20306736.253    20306737.617    20306741.948
       614.792         479.059
 -14427373.106 9 -11228991.90047  22609561.318    22609562.6854   22609567.8274
      3251.579        2533.698
   4148646.527 9   3234493.22147  23155697.192    23155698.8474   23155703.2864
     -2119.951       -1651.910
   9808190.814 9   7635234.31747  22917668.851    22917670.0024   22917676.1634
     -3097.425       -2413.578
  -3864795.650 9  -3002171.97048  20503629.790    20503630.8854   20503635.8354
       130.570         101.743
   2522795.554 9   1968566.41746  24155562.917    24155563.5664   24155569.2914
     -1419.067       -1105.766
 -11651993.039 9  -9062042.12448  21668428.044    21668429.1374   21668434.4964
      2245.831        1749.998
 96 10 17 16 32 29.9990000  0  9 17  1 28  3 26  6 23 22 21         -0.000432442
  -1972267.955 9  -1525212.76948  20518291.584    20518292.5584   20518297.4164
      -112.138         -87.380
  -7862785.914 9  -5807677.26246  24023512.765    24023513.9084   24023520.7734
      4161.611        3242.814
  -7643079.067 9  -5941042.273 9  20303280.851    20303282.185    20303286.532
       594.949         463.597
 -14524740.493 9 -11304862.58647  22591032.983    22591034.3244   22591039.4324
      3238.857        2523.785
   4212430.463 9   3284194.96747  23167834.857    23167836.5734   23167840.9744
     -2132.958       -1662.045
   9901202.557 9   7707710.95747  22935368.310    22935369.6584   22935375.7764
     -3104.146       -2418.815
  -3868579.412 9  -3005120.35348  20502909.727    20502910.8614   20502915.8034
       120.985          94.274
   2565483.865 9   2001830.00046  24163686.506    24163686.9654   24163692.6324
     -1427.659       -1112.462
 -11719265.441 9  -9114462.17048  21655626.514    21655627.6494   21655632.9584
      2238.070        1743.951
 96 10 17 16 32 59.9990000  0  9 17  1 28  3 26  6 23 22 21         -0.000441392
  -1968776.951 9  -1522492.51248  20518955.900    20518956.8774   20518961.7594
      -120.814         -94.141
  -7987609.060 9  -5904941.97346  23999759.511    23999760.8064   23999767.6844
      4159.977        3241.541
  -7660637.747 9  -5954724.373 9  20299939.553    20299940.899    20299945.244
       575.526         448.462
 -14621737.057 9 -11380444.32047  22572575.071    22572576.4554   22572581.6024
      3227.474        2514.915
   4276597.933 9   3334195.56647  23180045.549    23180047.2834   23180051.6344
     -2144.948       -1671.388
   9994426.318 9   7780352.80347  22953108.306    22953109.6184   22953115.6994
     -3110.982       -2424.142
  -3872082.805 9  -3007850.27248  20502243.107    20502244.2024   20502249.1234
       112.483          87.649
   2608425.613 9   2035291.06946  24171858.264    24171858.5534   24171864.2464
     -1435.095       -1118.256
 -11786301.227 9  -9166697.84548  21642870.022    21642871.1684   21642876.4384
      2230.760        1738.255
 96 10 17 16 33 29.9990000  0 10 17  1 28  3 26  6 23 22 21  9      -0.000450344
  -1965003.823 9  -1519552.41748  20519673.982    20519674.9104   20519679.8004
      -130.566        -101.740
  -8112385.691 9  -6002170.43246  23976015.067    23976016.5014   23976023.3924
      4158.660        3240.514
  -7677597.135 9  -5967939.488 9  20296712.348    20296713.638    20296718.005
       555.219         432.638
 -14718378.865 9 -11455749.61547  22554184.621    22554186.0984   22554191.2694
      3215.377        2505.488
   4341135.033 9   3384484.20047  23192326.570    23192328.3254   23192332.6094
     -2157.524       -1681.188
  10087873.183 9   7853168.49747  22970890.668    22970892.0474   22970898.1254
     -3118.751       -2430.196
  -3875325.470 9  -3010377.02448  20501626.093    20501627.1494   20501632.0694
       103.745          80.840
   2651604.743 9   2068937.10046  24180074.894    24180075.2554   24180081.0474
     -1443.431       -1124.751
 -11853086.157 9  -9218738.03948  21630161.256    21630162.4174   21630167.6704
      2221.426        1730.981
  -2555331.33018  -1971850.63955  24957552.567    24957553.9865   24957560.2975
      2664.325        2076.097
 96 10 17 16 33 59.9990000  0 10 17  1 28  3 26  6 23 22 21  9      -0.000459299
  -1960956.759 9  -1516398.86748  20520444.127    20520445.0664   20520449.9674
      -139.394        -108.619
  -8237142.417 9  -6099383.39346  23952274.959    23952276.0544   23952283.0074
      4158.276        3240.215
  -7693961.749 9  -5980691.149 9  20293598.285    20293599.578    20293603.937
       535.548         417.310
 -14814670.825 9 -11530782.30347  22535860.858    22535862.3174   22535867.5104
      3203.785        2496.456
   4406036.709 9   3435056.91347  23204676.966    23204678.7134   23204682.9594
     -2169.433       -1690.467
  10181538.529 9   7926154.43547  22988714.402    22988716.0294   22988722.0714
     -3125.752       -2435.651
  -3878320.402 9  -3012710.73248  20501056.170    20501057.2264   20501062.1554
        95.502          74.417
   2695008.658 9   2102758.30146  24188334.348    24188334.6824   24188340.6184
     -1450.212       -1130.035
 -11919591.713 9  -9270560.54548  21617505.669    21617506.8354   21617512.1004
      2212.084        1723.702
  -2635240.774 8  -2034117.72545  24942346.311    24942347.7544   24942353.9904
      2662.665        2074.804
 96 10 17 16 34 29.9990000  0 10 17  1 28  3 26  6 23 22 21  9      -0.000468262
  -1956638.907 9  -1513034.31248  20521265.820    20521266.7224   20521271.6484
      -148.426        -115.657
  -8361872.992 9  -6196575.97146  23928539.510    23928540.6834   23928547.5074
      4156.973        3239.200
  -7709726.362 9  -5992975.275 9  20290598.349    20290599.684    20290604.044
       515.477         401.670
 -14910593.418 9 -11605527.17247  22517607.501    22517608.8764   22517614.0474
      3190.969        2486.469
   4471301.453 9   3485912.52747  23217096.409    23217098.1764   23217102.3884
     -2181.575       -1699.928
  10275417.636 9   7999306.93947  23006579.056    23006580.6584   23006586.6814
     -3132.688       -2441.055
  -3881046.985 9  -3014835.34648  20500537.343    20500538.4134   20500543.3014
        86.147          67.127
   2738615.896 9   2136737.93846  24196632.490    24196632.7654   24196638.8394
     -1457.051       -1135.364
 -11985801.522 9  -9322152.59948  21604906.347    21604907.5294   21604912.7634
      2202.127        1715.943
  -2715086.218 8  -2096334.95445  24927152.034    24927153.5834   24927159.8694
      2660.073        2072.784
 96 10 17 16 34 59.9990000  0 10 17  1 28  3 26  6 23 22 21  9      -0.000477227
  -1952046.391 9  -1509455.73848  20522139.699    20522140.6454   20522145.6004
      -158.208        -123.279
  -8486563.161 9  -6293737.07146  23904811.506    23904812.9254   23904819.6454
      4155.327        3237.917
  -7724887.963 9  -6004789.520 9  20287713.233    20287714.535    20287718.898
       494.929         385.659
 -15006122.716 9 -11679965.58447  22499428.866    22499430.2634   22499435.4564
      3177.344        2475.852
   4536938.842 9   3537058.52447  23229586.945    23229588.5494   23229592.7644
     -2194.647       -1710.115
  10369500.075 9   8072617.87647  23024482.451    23024484.0174   23024489.9914
     -3139.818       -2446.611
  -3883484.663 9  -3016734.83648  20500073.516    20500074.5394   20500079.4264
        75.867          59.117
   2782429.033 9   2170878.01246  24204969.854    24204970.1894   24204976.2494
     -1464.188       -1140.926
 -12051731.405 9  -9373526.52748  21592360.320    21592361.4794   21592366.7154
      2192.832        1708.700
  -2794837.706 8  -2158478.95645  24911976.183    24911977.4324   24911983.8914
      2656.291        2069.837
 96 10 17 16 35 29.9990000  0 10 17  1 28  3 26  6 23 22 21  9      -0.000486199
  -1947172.032 9  -1505657.54148  20523067.258    20523068.2114   20523073.1824
      -166.987        -130.120
  -8611218.559 9  -6390871.06646  23881090.392    23881091.7414   23881098.4494
      4154.535        3237.300
  -7739449.643 9  -6016136.296 9  20284942.255    20284943.561    20284947.918
       475.543         370.553
 -15101261.982 9 -11754100.07247  22481324.577    22481325.8444   22481331.0494
      3165.125        2466.331
   4602957.239 9   3588501.41747  23242149.720    23242151.4194   23242155.5984
     -2206.956       -1719.706
  10463770.395 9   8146075.22047  23042421.511    23042423.0784   23042429.0124
     -3145.285       -2450.871
  -3885617.755 9  -3018396.98448  20499667.594    20499668.6174   20499673.5454
        66.055          51.471
   2826444.655 9   2205175.86846  24213345.710    24213346.2424   24213352.1194
     -1470.442       -1145.799
 -12117401.275 9  -9424697.84648  21579863.810    21579864.9264   21579870.1454
      2185.007        1702.603
  -2874489.472 8  -2220545.25745  24896819.091    24896820.3654   24896826.6524
      2653.547        2067.699
 96 10 17 16 35 59.9990000  0 10 17  1 28  3 26  6 23 22 21  9      -0.000495177
  -1942014.821 9  -1501638.94548  20524048.636    20524049.5914   20524054.5754
      -176.977        -137.904
  -8735808.697 9  -6487954.21646  23857381.545    23857383.0084   23857389.7134
      4151.304        3234.782
  -7753408.802 9  -6027013.574 9  20282285.903    20282287.241    20282291.595
       454.969         354.521
 -15196027.693 9 -11827943.47647  22463291.396    22463292.5624   22463297.7274
      3152.452        2456.456
   4669375.782 9   3640256.10447  23254788.463    23254790.4694   23254794.5934
     -2221.018       -1730.663
  10558230.122 9   8219680.15747  23060396.889    23060398.2534   23060404.1424
     -3152.132       -2456.207
  -3887430.174 9  -3019809.25748  20499322.709    20499323.7134   20499328.6294
        54.654          42.587
   2870659.868 9   2239629.24046  24221759.703    24221760.1844   24221765.9854
     -1477.388       -1151.211
 -12182821.205 9  -9475674.40848  21567414.792    21567415.9334   21567421.1474
      2176.294        1695.813
  -2954033.019 8  -2282527.22345  24881682.735    24881683.8804   24881690.0484
      2649.089        2064.225
 96 10 17 16 36 29.9990000  0 10 17  1 28  3 26  6 23 22 21  9      -0.000504163
  -1936573.299 9  -1497398.80848  20525084.155    20525085.1294   20525090.0634
      -186.011        -144.944
  -8860324.346 9  -6584979.33846  23833687.044    23833688.4734   23833695.1404
      4149.511        3233.385
  -7766770.963 9  -6037425.659 9  20279743.128    20279744.518    20279748.869
       435.608         339.435
 -15290442.624 9 -11901513.55447  22445324.714    22445325.9694   22445331.1314
      3141.666        2448.051
   4736201.546 9   3692328.11247  23267505.128    23267506.9634   23267511.1354
     -2234.183       -1740.922
  10652871.036 9   8293426.27547  23078406.486    23078407.9284   23078413.7694
     -3157.521       -2460.406
  -3888921.274 9  -3020971.15648  20499038.919    20499039.9664   20499044.8654
        44.611          34.762
   2915073.218 9   2274237.00846  24230211.385    24230211.8164   24230217.5904
     -1483.955       -1156.329
 -12248004.788 9  -9526466.80548  21555010.735    21555011.8824   21555017.1274
      2169.030        1690.153
  -3033457.525 8  -2344416.41645  24866568.372    24866569.7064   24866576.1924
      2645.501        2061.429
 96 10 17 16 36 59.9990000  0 10 17  1 28  3 26  6 23 22 21  9      -0.000513163
  -1930858.259 9  -1492945.53648  20526171.682    20526172.6764   20526177.5824
      -194.727        -151.735
  -8984777.949 9  -6681956.12346  23810004.124    23810005.6704   23810012.3974
      4147.532        3231.843
  -7779545.008 9  -6047379.473 9  20277312.336    20277313.722    20277318.048
       416.160         324.281
 -15384535.291 9 -11974832.51147  22427419.392    22427420.7304   22427425.8944
      3131.402        2440.053
   4803424.991 9   3744709.99047  23280297.461    23280299.1564   23280303.3324
     -2246.991       -1750.902
  10747683.290 9   8367305.91847  23096448.581    23096450.1764   23096455.9754
     -3163.107       -2464.759
  -3890111.740 9  -3021898.79648  20498812.351    20498813.4314   20498818.3524
        35.028          27.295
   2959692.495 9   2309005.25046  24238702.051    24238702.6164   24238708.3844
     -1490.503       -1161.431
 -12312959.478 9  -9577080.84048  21542650.338    21542651.4374   21542656.6634
      2161.114        1683.985
  -3112765.309 8  -2406214.65845  24851476.411    24851477.7674   24851484.3794
      2641.950        2058.662
 96 10 17 16 37 29.9990000  0 10 17  1 28  3 26  6 23 22 21  9      -0.000522168
  -1924861.383 9  -1488272.65148  20527312.869    20527313.8414   20527318.7424
      -204.309        -159.202
  -9109141.939 9  -6778863.06746  23786338.550    23786340.0194   23786346.7064
      4144.190        3229.239
  -7791712.510 9  -6056860.655 9  20274996.966    20274998.320    20275002.667
       395.838         308.445
 -15478296.931 9 -12047893.51647  22409577.103    22409578.4854   22409583.6204
      3120.035        2431.196
   4871046.342 9   3797401.93347  23293165.333    23293166.9984   23293171.2814
     -2260.114       -1761.128
  10842688.795 9   8441336.12747  23114527.682    23114529.1324   23114534.9354
     -3169.690       -2469.888
  -3890993.262 9  -3022585.69748  20498644.639    20498645.6894   20498650.6114
        24.667          19.221
   3004536.079 9   2343948.26046  24247235.335    24247236.0524   24247241.8384
     -1498.275       -1167.487
 -12377632.520 9  -9627475.41048  21530343.498    21530344.5954   21530349.8404
      2151.285        1676.326
  -3191945.315 8  -2467913.31845  24836409.150    24836410.3374   24836416.9104
      2637.571        2055.250
 96 10 17 16 37 59.9990000  0 10 17  1 28  3 26  6 23 22 21  9      -0.000531178
  -1918582.407 9  -1483379.95148  20528507.729    20528508.7004   20528513.5944
      -213.765        -166.570
  -9233418.185 9  -6875701.65146  23762689.755    23762690.9534   23762697.6974
      4141.653        3227.262
  -7803280.995 9  -6065875.071 9  20272795.603    20272796.917    20272801.262
       376.013         292.997
 -15571715.831 9 -12120687.46447  22391800.148    22391801.4594   22391806.5944
      3108.260        2422.021
   4939044.191 9   3850387.25447  23306104.971    23306106.5144   23306110.9024
     -2272.204       -1770.549
  10937875.550 9   8515507.58847  23132641.047    23132642.6224   23132648.3944
     -3175.315       -2474.271
  -3891580.205 9  -3023043.05848  20498532.925    20498533.9764   20498538.9264
        15.037          11.717
   3049609.934 9   2379070.71446  24255812.555    24255813.3314   24255819.1284
     -1506.051       -1173.546
 -12442019.900 9  -9677647.39048  21518091.023    21518092.1084   21518097.3494
      2141.971        1669.068
  -3271001.729 8  -2529515.70445  24821365.117    24821366.3194   24821372.8994
      2633.504        2052.081
 96 10 17 16 38 29.9990000  0 10 17  1 28  3 26  6 23 22 21  9      -0.000540195
  -1912011.478 9  -1478259.75648  20529758.103    20529759.1034   20529763.9984
      -223.936        -174.496
  -9357619.746 9  -6972482.06546  23739055.060    23739056.1624   23739062.8914
      4138.716        3224.974
  -7814250.058 9  -6074422.405 9  20270708.259    20270709.596    20270713.937
       355.640         277.122
 -15664761.429 9 -12193190.52147  22374094.201    22374095.5064   22374100.6084
      3094.987        2411.678
   5007391.073 9   3903644.54547  23319110.927    23319112.5184   23319116.9314
     -2283.844       -1779.619
  11033224.920 9   8589805.74847  23150785.584    23150787.0304   23150792.8264
     -3180.945       -2478.658
  -3891875.247 9  -3023272.96248  20498476.802    20498477.8294   20498482.7974
         5.138           4.004
   3094925.582 9   2414381.57946  24264435.886    24264436.6574   24264442.4214
     -1514.517       -1180.143
 -12506135.939 9  -9727607.93348  21505890.118    21505891.2274   21505896.4834
      2132.754        1661.886
  -3349934.716 8  -2591021.89045  24806344.423    24806345.6624   24806352.3734
      2629.233        2048.753
 96 10 17 16 38 59.9990000  0 10 17  1 28  3 26  6 23 22 21  9      -0.000549217
  -1905145.112 9  -1472909.34748  20531064.684    20531065.7144   20531070.6314
      -233.687        -182.094
  -9481739.562 9  -7069198.76346  23715435.767    23715436.9354   23715443.6084
      4136.126        3222.955
  -7824618.294 9  -6082501.564 9  20268735.251    20268736.583    20268740.937
       335.780         261.647
 -15757409.500 9 -12265383.81547  22356463.826    22356465.1494   22356470.2324
      3081.733        2401.350
   5076068.479 9   3957159.38347  23332179.800    23332181.3674   23332185.8504
     -2294.433       -1787.870
  11128735.470 9   8664229.50447  23168961.005    23168962.1394   23168967.9354
     -3186.283       -2482.818
  -3891892.175 9  -3023286.15548  20498473.699    20498474.6544   20498479.5884
        -3.824          -2.980
   3140469.376 9   2449870.22646  24273102.616    24273103.4074   24273109.1184
     -1521.490       -1185.577
 -12569989.511 9  -9777363.95848  21493739.162    21493740.2934   21493745.5744
      2124.250        1655.260
  -3428752.460 8  -2652438.26445  24791345.516    24791347.0954   24791353.9184
      2625.550        2045.883
 96 10 17 16 39 29.9990000  0 10 17  1 28  3 26  6 23 22 21  9      -0.000558244
  -1897970.587 9  -1467318.81648  20532429.937    20532430.9994   20532435.9154
      -244.500        -190.519
  -9605777.652 9  -7165851.79846  23691832.056    23691833.2274   23691839.8444
      4133.279        3220.737
  -7834386.741 9  -6090113.355 9  20266876.420    20266877.701    20266882.080
       315.576         245.903
 -15849649.262 9 -12337258.95547  22338911.107    22338912.4694   22338917.5304
      3067.716        2390.428
   5145069.203 9   4010926.15247  23345310.166    23345311.7564   23345316.3064
     -2305.569       -1796.547
  11224415.625 9   8738785.40646  23187168.429    23187169.4954   23187175.3584
     -3192.176       -2487.410
  -3891633.172 9  -3023084.33948  20498522.991    20498523.9574   20498528.9224
       -13.282         -10.350
   3186229.672 9   2485527.57546  24281810.600    24281811.3814   24281817.0934
     -1528.932       -1191.376
 -12633592.117 9  -9826924.43048  21481636.044    21481637.1124   21481642.3984
      2116.186        1648.976
  -3507460.692 8  -2713769.30645  24776367.713    24776369.4004   24776376.1914
      2621.756        2042.927
 96 10 17 16 39 59.9990000  0 10 17  1 28  3 26  6 23 22 21  9      -0.000567274
  -1890483.269 9  -1461484.55048  20533854.689    20533855.8104   20533860.7054
      -254.992        -198.695
  -9729743.883 9  -7262448.84346  23668241.916    23668243.1744   23668249.7314
      4130.537        3218.600
  -7843561.520 9  -6097262.546 9  20265130.488    20265131.819    20265136.177
       295.599         230.337
 -15941481.164 9 -12408816.26947  22321436.161    22321437.4424   22321442.5004
      3053.989        2379.732
   5214395.301 9   4064946.46147  23358502.584    23358504.0754   23358508.6334
     -2316.617       -1805.156
  11320259.655 9   8813469.01146  23205407.082    23205408.0034   23205413.9484
     -3197.951       -2491.910
  -3891109.775 9  -3022676.49948  20498622.592    20498623.5474   20498628.5234
       -22.072         -17.199
   3232190.875 9   2521341.45346  24290556.616    24290557.5044   24290563.3344
     -1535.413       -1196.426
 -12696974.996 9  -9876313.67548  21469574.709    21469575.7424   21469581.0414
      2108.822        1643.238
  -3586066.966 8  -2775020.92345  24761409.382    24761411.0854   24761417.8734
      2618.084        2040.065
 96 10 17 16 40 29.9990000  0 10 17  1 28  3 26  6 23 22 21  9      -0.000576299
  -1882677.768 9  -1455402.35348  20535340.079    20535341.1684   20535346.0294
      -265.221        -206.666
  -9853614.219 9  -7358971.16146  23644670.247    23644671.3894   23644677.9054
      4127.556        3216.277
  -7852128.011 9  -6103937.751 9  20263500.353    20263501.685    20263506.042
       275.574         214.733
 -16032897.552 9 -12480049.81947  22304040.173    22304041.4704   22304046.5224
      3040.626        2369.319
   5284064.543 9   4119234.15647  23371760.163    23371761.7324   23371766.2964
     -2328.124       -1814.123
  11416296.045 9   8888302.50946  23223682.242    23223683.1384   23223689.1284
     -3204.416       -2496.948
  -3890319.560 9  -3022060.75648  20498772.974    20498773.9264   20498778.9144
       -30.505         -23.770
   3278338.988 9   2557301.00246  24299338.378    24299339.2264   24299345.0444
     -1541.106       -1200.862
 -12760121.490 9  -9925518.73048  21457558.287    21457559.3704   21457564.6724
      2100.734        1636.936
  -3664550.450 8  -2836176.84245  24746474.811    24746475.9854   24746482.7254
      2614.045        2036.918
 96 10 17 16 40 59.9990000  0 10 17  1 28  3 26  6 23 22 21  9      -0.000585318
  -1874571.100 9  -1449085.48048  20536882.812    20536883.8494   20536888.6764
      -274.966        -214.259
  -9977397.260 9  -7455425.47146  23621115.158    23621116.2824   23621122.7794
      4124.961        3214.255
  -7860090.185 9  -6110142.054 9  20261985.226    20261986.544    20261990.917
       255.444         199.047
 -16123918.064 9 -12550974.88547  22286719.509    22286720.8144   22286725.9104
      3027.556        2359.135
   5354092.707 9   4173801.53347  23385086.149    23385087.7414   23385092.2684
     -2340.198       -1823.531
  11512533.634 9   8963292.77846  23241995.492    23241996.5934   23242002.5154
     -3211.254       -2502.276
  -3889274.169 9  -3021246.16948  20498971.922    20498972.8594   20498977.8274
       -39.215         -30.557
   3324661.234 9   2593396.22846  24308153.300    24308154.0504   24308159.8924
     -1546.997       -1205.452
 -12823013.022 9  -9974525.11048  21445590.466    21445591.5164   21445596.8334
      2092.134        1630.234
  -3742897.667 8  -2897226.57345  24731565.681    24731567.0004   24731573.6134
      2609.277        2033.203
 96 10 17 16 41 29.9990000  0 10 17  1 28  3 26  6 23 22 21  9      -0.000594327
  -1866174.790 9  -1442542.91148  20538480.581    20538481.6244   20538486.4324
      -284.480        -221.673
 -10101102.061 9  -7551818.79846  23597574.680    23597576.0044   23597582.5084
      4122.181        3212.089
  -7867443.515 9  -6115871.934 9  20260585.957    20260587.259    20260591.619
       235.014         183.128
 -16214541.907 9 -12621590.86147  22269474.272    22269475.6414   22269480.8174
      3014.179        2348.711
   5424495.993 9   4228661.20847  23398483.376    23398485.0814   23398489.5664
     -2353.017       -1833.520
  11608976.311 9   9038442.85246  23260347.915    23260348.9994   23260354.9264
     -3217.811       -2507.385
  -3887953.515 9  -3020217.08948  20499223.188    20499224.1504   20499229.1354
       -48.599         -37.869
   3371178.530 9   2629643.44846  24317005.315    24317006.0314   24317011.8534
     -1553.840       -1210.784
 -12885637.810 9 -10023323.64448  21433673.366    21433674.4194   21433679.7174
      2083.099        1623.194
  -3821093.930 8  -2958158.70145  24716685.284    24716686.6654   24716693.3154
      2604.039        2029.121
 96 10 17 16 41 59.9990000  0 10 17  1 28  3 26  6 23 22 21  9      -0.000603336
  -1857521.420 9  -1435800.03648  20540127.294    20540128.3074   20540133.1054
      -292.692        -228.072
 -10224740.281 9  -7648160.25246  23574047.146    23574048.3654   23574054.8944
      4120.141        3210.499
  -7874203.274 9  -6121139.288 9  20259299.629    20259300.940    20259305.301
       215.361         167.814
 -16304785.045 9 -12691910.18447  22252301.598    22252302.9254   22252308.1394
      3001.679        2338.971
   5495264.106 9   4283805.16947  23411950.073    23411951.8414   23411956.2974
     -2364.924       -1842.798
  11705590.019 9   9113726.20546  23278732.962    23278733.9854   23278739.9144
     -3223.438       -2511.770
  -3886373.326 9  -3018985.77748  20499523.852    20499524.8434   20499529.8454
       -57.133         -44.519
   3417881.041 9   2666034.97946  24325892.501    24325893.1924   24325899.0574
     -1559.883       -1215.493
 -12948008.587 9 -10071924.23748  21421804.592    21421805.6554   21421810.9434
      2074.674        1616.629
  -3899143.300 8  -3018976.34545  24701833.694    24701834.4114   24701840.8504
      2598.924        2025.136
 96 10 17 16 42 29.9990000  0 10 17  1 28  3 26  6 23 22 21  9      -0.000612353
  -1848620.825 9  -1428864.51848  20541821.026    20541822.0554   20541826.8494
      -300.522        -234.173
 -10348318.663 9  -7744455.09446  23550531.040    23550532.2054   23550538.6264
      4118.719        3209.391
  -7880367.018 9  -6125942.219 9  20258126.728    20258128.029    20258132.389
       195.771         152.549
 -16394644.459 9 -12761930.50847  22235201.932    22235203.2694   22235208.5124
      2989.051        2329.131
   5566383.798 9   4339223.07847  23425483.846    23425485.5344   23425490.0154
     -2376.229       -1851.607
  11802370.964 9   9189139.88946  23297149.632    23297150.7694   23297156.7274
     -3228.301       -2515.559
  -3884523.362 9  -3017544.24948  20499875.898    20499876.8614   20499881.8824
       -66.059         -51.474
   3464767.507 9   2702569.85746  24334814.679    24334815.4794   24334821.2694
     -1565.871       -1220.159
 -13010118.069 9 -10120321.23148  21409985.578    21409986.6124   21409991.8924
      2066.157        1609.992
  -3977030.388 8  -3079667.52245  24687012.189    24687012.8974   24687019.5034
      2593.821        2021.159
 96 10 17 16 42 59.9990000  0 10 17  1 28  3 26  6 23 22 21  9      -0.000621380
  -1839473.282 9  -1421736.57648  20543561.768    20543562.7884   20543567.5864
      -309.014        -240.790
 -10471842.827 9  -7840707.65646  23527025.206    23527026.2824   23527032.6674
      4116.504        3207.665
  -7885933.810 9  -6130279.991 9  20257067.415    20257068.736    20257073.074
       175.743         136.942
 -16484105.952 9 -12831640.75847  22218178.020    22218179.3154   22218184.4944
      2975.401        2318.494
   5637847.771 9   4394909.26147  23439083.018    23439084.7704   23439089.2624
     -2387.436       -1860.340
  11899305.050 9   9264672.89046  23315595.466    23315596.6574   23315602.6264
     -3233.506       -2519.615
  -3882387.078 9  -3015879.61448  20500282.361    20500283.3634   20500288.4144
       -76.014         -59.232
   3511851.758 9   2739258.85946  24343774.630    24343775.3414   24343781.0574
     -1572.661       -1225.450
 -13071972.480 9 -10168519.46648  21398214.999    21398216.1114   21398221.3864
      2057.889        1603.550
  -4054759.337 8  -3140235.50845  24672220.742    24672221.5934   24672228.0594
      2588.619        2017.106
 96 10 17 16 43 29.9990000  0 10 17  1 28  3 26  6 23 22 21  9      -0.000630419
  -1830060.427 9  -1414401.89048  20545352.981    20545354.0114   20545358.8054
      -319.137        -248.678
 -10595285.612 9  -7936896.80346  23503534.414    23503535.7494   23503542.1274
      4112.528        3204.567
  -7890898.415 9  -6134148.521 9  20256122.695    20256124.010    20256128.339
       154.845         120.658
 -16573155.761 9 -12901030.21547  22201232.441    22201233.7144   22201238.8364
      2960.861        2307.164
   5709639.553 9   4450850.87447  23452744.548    23452746.3584   23452750.8124
     -2399.079       -1869.412
  11996384.975 9   9340319.54046  23334069.116    23334070.4174   23334076.3034
     -3238.873       -2523.797
  -3879950.956 9  -3013981.33648  20500745.863    20500746.9134   20500752.0104
       -86.672         -67.537
   3559131.101 9   2776099.87846  24352771.563    24352772.2244   24352778.0574
     -1579.574       -1230.837
 -13133573.356 9 -10216520.13948  21386492.779    21386493.8414   21386499.1424
      2048.449        1596.194
  -4132334.610 8  -3200683.69445  24657458.837    24657459.5714   24657466.0124
      2582.742        2012.526
 96 10 17 16 43 59.9990000  0 10 17  1 28  3 26  6 23 22 21  9      -0.000639465
  -1820348.798 9  -1406834.40148  20547201.096    20547202.1114   20547206.8854
      -328.781        -256.193
 -10718615.094 9  -8032997.68046  23480065.748    23480066.9564   23480073.2324
      4109.176        3201.955
  -7895252.136 9  -6137541.043 9  20255294.213    20255295.531    20255299.870
       135.064         105.245
 -16661779.935 9 -12970088.01347  22184367.794    22184369.0814   22184374.1964
      2947.111        2296.450
   5781758.059 9   4507047.08247  23466468.406    23466470.1224   23466474.5894
     -2409.136       -1877.249
  12093617.777 9   9416085.30146  23352572.005    23352573.1994   23352579.1654
     -3243.639       -2527.511
  -3877213.854 9  -3011848.53548  20501266.742    20501267.7664   20501272.8864
       -96.119         -74.898
   3606589.842 9   2813080.68446  24361802.650    24361803.3134   24361809.2014
     -1584.609       -1234.760
 -13194906.282 9 -10264312.01948  21374821.520    21374822.5764   21374827.8894
      2040.082        1589.674
  -4209745.648 8  -3261003.93445  24642727.862    24642728.7614   24642735.2474
      2577.815        2008.687
 96 10 17 16 44 29.9990000  0 10 17  1 28  3 26  6 23 22 21  9      -0.000648526
  -1810335.978 9  -1399032.21548  20549106.480    20549107.4914   20549112.2814
      -339.012        -264.165
 -10841841.654 9  -8129018.35946  23456616.441    23456617.6974   23456623.9454
      4105.557        3199.135
  -7899008.974 9  -6140468.463 9  20254579.332    20254580.642    20254584.969
       115.161          89.736
 -16749984.111 9 -13038818.53947  22167583.078    22167584.3814   22167589.4554
      2932.986        2285.444
   5854186.264 9   4563484.60747  23480251.041    23480252.8084   23480257.2844
     -2419.710       -1885.488
  12190991.662 9   9491961.00246  23371101.625    23371102.8694   23371108.8044
     -3248.222       -2531.082
  -3874189.764 9  -3009492.10748  20501842.222    20501843.2364   20501848.3724
      -105.638         -82.315
   3654200.418 9   2850179.81146  24370862.825    24370863.4084   24370869.2544
     -1589.802       -1238.807
 -13255984.025 9 -10311905.06548  21363198.732    21363199.8734   21363205.1674
      2031.514        1582.998
  -4287013.377 8  -3321212.49645  24628024.323    24628025.1584   24628031.5834
      2573.214        2005.102
 96 10 17 16 44 59.9990000  0 10 17  1 28  3 26  6 23 22 21  9      -0.000657589
  -1800000.745 9  -1390978.79248  20551073.211    20551074.2304   20551079.0144
      -349.638        -272.445
 -10964934.277 9  -8224934.64946  23433192.589    23433193.8404   23433200.0954
      4100.962        3195.555
  -7902160.126 9  -6142923.914 9  20253979.746    20253981.000    20253985.319
        95.188          74.172
 -16837763.858 9 -13107218.33247  22150879.184    22150880.4634   22150885.5654
      2919.370        2274.834
   5926939.236 9   4620175.19447  23494095.432    23494097.2974   23494101.7494
     -2430.008       -1893.513
  12288515.136 9   9567953.25046  23389659.663    23389660.9534   23389666.9424
     -3252.998       -2534.804
  -3870873.579 9  -3006908.06748  20502473.272    20502474.2814   20502479.3784
      -115.087         -89.678
   3701981.001 9   2887411.42246  24379955.266    24379955.7384   24379961.6594
     -1595.224       -1243.032
 -13316796.322 9 -10359291.25548  21351626.633    21351627.6534   21351632.9874
      2022.850        1576.247
  -4364141.602 8  -3381312.35945  24613346.748    24613348.0844   24613354.3574
      2568.887        2001.730
 96 10 17 16 45 29.9990000  0 10 17  1 28  3 26  6 23 22 21  9      -0.000666662
  -1789342.859 9  -1382673.95948  20553101.363    20553102.3704   20553107.1664
      -360.358        -280.798
 -11087884.672 9  -8320740.12346  23409796.077    23409797.1944   23409803.3934
      4096.297        3191.920
  -7904708.497 9  -6144909.673 9  20253494.796    20253496.073    20253500.377
        75.149          58.558
 -16925135.620 9 -13175300.22247  22134252.909    22134254.1894   22134259.2814
      2905.803        2264.262
   5999998.809 9   4677104.69647  23507998.449    23508000.1194   23508004.5984
     -2440.215       -1901.466
  12386179.293 9   9644055.12546  23408244.507    23408245.9054   23408251.8224
     -3257.657       -2538.434
  -3867283.012 9  -3004110.22848  20503156.549    20503157.5244   20503162.6114
      -123.825         -96.487
   3749924.515 9   2924769.96646  24389078.548    24389079.1364   24389085.0614
     -1600.559       -1247.189
 -13377339.175 9 -10406467.49648  21340105.712    21340106.7434   21340112.0914
      2013.878        1569.255
  -4441130.673 8  -3441303.79945  24598696.099    24598697.4424   24598703.7694
      2564.173        1998.057
 96 10 17 16 45 59.9990000  0 10 17  1 28  3 26  6 23 22 21  9      -0.000675738
  -1778370.753 9  -1374124.27548  20555189.302    20555190.2884   20555195.1034
      -371.061        -289.138
 -11210700.132 9  -8416440.45946  23386424.914    23386426.2224   23386432.3844
      4091.457        3188.148
  -7906654.153 9  -6146425.781 9  20253124.597    20253125.844    20253130.155
        54.477          42.450
 -17012093.161 9 -13243059.34147  22117705.428    22117706.7354   22117711.7984
      2891.341        2252.993
   6073368.529 9   4734275.86247  23521960.450    23521961.9284   23521966.4234
     -2451.132       -1909.973
  12483991.732 9   9720272.55346  23426857.549    23426859.1604   23426864.9794
     -3263.136       -2542.703
  -3863426.342 9  -3001105.03048  20503890.401    20503891.4184   20503896.4984
      -133.370        -103.925
   3798035.891 9   2962259.33646  24398234.039    24398234.4704   24398240.4464
     -1606.995       -1252.204
 -13437623.459 9 -10453442.25448  21328633.965    21328635.0244   21328640.3644
      2005.008        1562.344
  -4517972.569 8  -3501180.55545  24584073.207    24584074.7744   24584081.2214
      2558.420        1993.574
 96 10 17 16 46 29.9990000  0 10 17  1 28  3 26  6 23 22 21  9      -0.000684820
  -1767099.197 9  -1365341.25248  20557334.177    20557335.2014   20557340.0064
      -380.653        -296.613
 -11333386.874 9  -8512040.47546  23363078.369    23363079.6674   23363085.9074
      4087.383        3184.974
  -7907994.974 9  -6147470.589 9  20252869.426    20252870.710    20252875.024
        34.592          26.955
 -17098635.348 9 -13310494.80947  22101236.979    22101238.3224   22101243.3614
      2877.801        2242.442
   6147044.311 9   4791685.53147  23535980.288    23535981.9734   23535986.4994
     -2460.900       -1917.584
  12581946.419 9   9796600.82746  23445497.787    23445499.4244   23445505.2784
     -3267.442       -2546.059
  -3859299.032 9  -2997888.94748  20504675.794    20504676.8344   20504681.9074
      -142.104        -110.730
   3846330.228 9   2999891.24746  24407424.187    24407424.6484   24407430.6644
     -1612.940       -1256.836
 -13497659.859 9 -10500223.85348  21317209.355    21317210.4504   21317215.8044
      1997.072        1556.160
  -4594654.667 8  -3560932.80645  24569481.043    24569482.6174   24569488.9984
      2553.155        1989.471
 96 10 17 16 46 59.9990000  0 10 17  1 28  3 26  6 23 22 21  9      -0.000693906
  -1755527.444 9  -1356324.31148  20559536.251    20559537.2724   20559542.0534
      -390.097        -303.972
 -11455939.660 9  -8607536.12146  23339757.428    23339758.6424   23339764.9514
      4083.590        3182.018
  -7908726.371 9  -6148040.525 9  20252730.264    20252731.549    20252735.864
        14.845          11.568
 -17184757.475 9 -13377602.96448  22084848.542    22084849.8704   22084854.9024
      2864.301        2231.923
   6221023.634 9   4849331.71347  23550058.020    23550059.7624   23550064.3654
     -2470.406       -1924.992
  12680045.703 9   9873041.77346  23464165.549    23464167.1714   23464173.0694
     -3271.746       -2549.412
  -3854892.982 9  -2994455.66248  20505514.232    20505515.2744   20505520.3514
      -150.913        -117.595
   3894814.076 9   3037670.81746  24416650.416    24416650.7744   24416656.8484
     -1618.483       -1261.156
 -13557443.315 9 -10546808.35548  21305832.963    21305834.0244   21305839.3804
      1989.140        1549.979
  -4671153.542 8  -3620542.27845  24554924.063    24554925.3664   24554931.6304
      2547.284        1984.897
 96 10 17 16 47 29.9990000  0 10 17  1 28  3 26  6 23 22 21  9      -0.000703006
  -1743673.779 9  -1347087.69848  20561792.025    20561792.9794   20561797.7814
      -399.771        -311.510
 -11578389.105 9  -8702951.23946  23316456.356    23316457.2404   23316463.6254
      4080.139        3179.329
  -7908865.935 9  -6148149.290 9  20252703.671    20252705.000    20252709.314
        -5.056          -3.940
 -17270464.794 9 -13444387.88348  22068539.081    22068540.3274   22068545.3204
      2849.916        2220.714
   6295299.951 9   4907209.32346  23564192.397    23564194.1394   23564198.7474
     -2481.142       -1933.357
  12778269.503 9   9949579.73046  23482856.868    23482858.6454   23482864.5284
     -3276.100       -2552.805
  -3850231.276 9  -2990823.17448  20506401.364    20506402.3414   20506407.4184
      -159.522        -124.303
   3943450.672 9   3075569.44946  24425905.649    24425906.0294   24425912.2314
     -1623.449       -1265.025
 -13616994.438 9 -10593211.81948  21294500.776    21294501.8344   21294507.2024
      1981.431        1543.972
  -4747465.674 8  -3680006.24045  24540402.387    24540403.5974   24540409.8514
      2540.745        1979.801
 96 10 17 16 47 59.9990000  0 10 17  1 28  3 26  6 23 22 21  9      -0.000712106
  -1731533.523 9  -1337627.76748  20564102.322    20564103.2304   20564108.0224
      -409.629        -319.191
 -11700738.443 9  -8798288.35246  23293173.816    23293174.8964   23293181.3344
      4076.409        3176.423
  -7908412.038 9  -6147795.615 9  20252790.034    20252791.364    20252795.700
       -25.259         -19.682
 -17355740.073 9 -13510836.14748  22052311.689    22052312.9434   22052317.9944
      2835.115        2209.180
   6369912.207 9   4965348.71146  23578390.492    23578392.3684   23578397.0354
     -2492.905       -1942.523
  12876621.879 9  10026217.88746  23501572.988    23501574.5384   23501580.4644
     -3280.673       -2556.369
  -3845301.172 9  -2986981.53548  20507339.533    20507340.5004   20507345.6044
      -169.088        -131.757
   3992234.608 9   3113582.88746  24435188.895    24435189.3764   24435195.6084
     -1628.745       -1269.152
 -13676318.236 9 -10639438.14448  21283211.875    21283212.8864   21283218.2324
      1973.330        1537.660
  -4823586.706 8  -3739321.29445  24525917.064    24525918.3054   24525924.5094
      2534.058        1974.591
 96 10 17 16 48 29.9990000  0 10 17  1 28  3 26  6 23 22 21  9      -0.000721198
  -1719093.576 9  -1327934.31148  20566469.509    20566470.4644   20566475.2634
      -419.669        -327.015
 -11822971.459 9  -8893534.82247  23269913.665    23269914.7714   23269921.1254
      4072.367        3173.273
  -7907351.382 9  -6146969.146 9  20252991.939    20252993.222    20252997.556
       -45.450         -35.416
 -17440571.497 9 -13576938.55248  22036168.908    22036170.0734   22036175.1044
      2820.322        2197.653
   6444874.058 9   5023760.49946  23592655.325    23592657.1264   23592661.8384
     -2504.528       -1951.580
  12975109.204 9  10102961.19346  23520314.782    23520316.0704   23520322.0744
     -3285.215       -2559.908
  -3840093.829 9  -2982923.87848  20508330.366    20508331.4144   20508336.5264
      -178.015        -138.713
   4041170.728 9   3151714.90846  24444501.044    24444501.5504   24444507.8274
     -1633.516       -1272.870
 -13735384.711 9 -10685463.96448  21271971.893    21271972.9134   21271978.2384
      1964.393        1530.696
  -4899513.834 8  -3798485.22945  24511468.525    24511469.7554   24511476.1474
      2527.866        1969.766
 96 10 17 16 48 59.9990000  0 10 17  1 28  3 26  6 23 22 21  9      -0.000730283
  -1706352.248 9  -1318006.01148  20568894.104    20568895.0494   20568899.8694
      -429.562        -334.724
 -11945083.707 9  -8988687.18047  23246676.481    23246677.5964   23246683.9974
      4068.519        3170.274
  -7905686.845 9  -6145672.117 9  20253308.749    20253310.010    20253314.320
       -65.359         -50.929
 -17524961.354 9 -13642696.87648  22020109.961    22020111.2204   22020116.2404
      2805.829        2186.360
   6520185.094 9   5082444.37846  23606986.516    23606988.4084   23606992.9724
     -2515.809       -1960.371
  13073738.703 9  10179815.28846  23539083.429    23539084.6814   23539090.7194
     -3289.917       -2563.572
  -3834622.095 9  -2978660.19148  20509371.671    20509372.6634   20509377.7504
      -186.400        -145.247
   4090241.322 9   3189951.69446  24453838.985    24453839.3984   24453845.7044
     -1637.603       -1276.054
 -13794176.755 9 -10731275.94048  21260784.125    21260785.1614   21260790.4704
      1955.334        1523.637
  -4975267.005 8  -3857513.62746  24497053.158    24497054.3684   24497060.5974
      2522.489        1965.576
 96 10 17 16 49 29.9990000  0 10 17  1 28  3 26  6 23 22 21  9      -0.000739361
  -1693311.225 9  -1307844.18748  20571375.689    20571376.6804   20571381.5284
      -439.068        -342.131
 -12067073.417 9  -9083744.07247  23223462.455    23223463.7244   23223470.1424
      4064.743        3167.332
  -7903422.387 9  -6143907.620 9  20253739.665    20253740.923    20253745.256
       -84.885         -66.144
 -17608910.617 9 -13708111.88548  22004134.887    22004136.2004   22004141.2274
      2791.590        2175.265
   6595827.126 9   5141386.19146  23621380.825    23621382.6514   23621387.1564
     -2526.130       -1968.413
  13172511.903 9  10256781.36446  23557879.422    23557880.7004   23557886.7034
     -3294.235       -2566.936
  -3828907.501 9  -2974207.26748  20510459.163    20510460.1194   20510465.1944
      -193.840        -151.044
   4139434.243 9   3228283.80546  24463199.962    24463200.5484   24463206.8494
     -1641.360       -1278.982
 -13852692.324 9 -10776872.47948  21249649.024    21249650.0244   21249655.3214
      1946.416        1516.688
  -5050861.666 8  -3916418.48746  24482667.819    24482669.1404   24482675.2024
      2517.928        1962.022
 96 10 17 16 49 59.9990000  0 10 17  1 28  3 26  6 23 22 21  9      -0.000748440
  -1679978.487 9  -1297455.04948  20573912.868    20573913.8424   20573918.6804
      -450.052        -350.690
 -12188939.652 9  -9178704.73547  23200272.205    23200273.3194   23200279.7674
      4059.406        3163.174
  -7900565.864 9  -6141681.771 9  20254283.264    20254284.516    20254288.863
      -105.830         -82.465
 -17692429.687 9 -13773191.67348  21988241.752    21988243.0464   21988248.1064
      2776.024        2163.136
   6671767.159 9   5200560.20746  23635831.696    23635833.5094   23635838.0044
     -2536.544       -1976.528
  13271424.321 9  10333855.89946  23576701.757    23576703.1944   23576709.2124
     -3300.139       -2571.537
  -3822968.117 9  -2969579.17848  20511589.394    20511590.3604   20511595.3954
      -202.285        -157.625
   4188755.689 9   3266716.05546  24472585.897    24472586.1784   24472592.4864
     -1646.920       -1283.314
 -13910928.495 9 -10822251.30948  21238567.014    21238568.0444   21238573.3224
      1935.724        1508.356
  -5126314.677 8  -3975212.98746  24468309.366    24468310.7714   24468316.9604
      2511.829        1957.269
 96 10 17 16 50 29.9990000  0 10 17  1 28  3 26  6 23 22 21  9      -0.000757515
  -1666327.543 9  -1286817.95848  20576510.641    20576511.5524   20576516.3894
      -459.843        -358.319
 -12310658.071 9  -9273550.22947  23177110.146    23177111.1144   23177117.5214
      4055.326        3159.994
  -7897095.886 9  -6138977.904 9  20254943.621    20254944.848    20254949.202
      -125.332         -97.661
 -17775497.047 9 -13837919.48948  21972434.536    21972435.8094   21972440.8944
      2761.786        2152.041
   6747989.328 9   5259954.06946  23650336.169    23650338.0754   23650342.6524
     -2544.808       -1982.967
  13370489.866 9  10411049.76746  23595553.653    23595554.7694   23595560.8344
     -3304.055       -2574.588
  -3816799.569 9  -2964772.51948  20512763.270    20512764.2134   20512769.2234
      -208.972        -162.835
   4238229.425 9   3305266.98346  24482000.431    24482000.7124   24482007.0384
     -1651.104       -1286.575
 -13968854.044 9 -10867388.09448  21227544.175    21227545.1744   21227550.4214
      1926.274        1500.993
  -5201584.886 8  -4033865.03946  24453986.295    24453987.3134   24453993.5264
      2506.204        1952.886
 96 10 17 16 50 59.9990000  0 10 17  1 28  3 26  6 23 22 21  9      -0.000766599
  -1652368.119 9  -1275940.49148  20579167.094    20579167.9834   20579172.7844
      -470.338        -366.497
 -12432242.423 9  -9368291.25047  23153973.272    23153974.3784   23153980.7964
      4050.649        3156.350
  -7893029.700 9  -6135809.461 9  20255717.394    20255718.627    20255722.987
      -145.332        -113.246
 -17858116.168 9 -13902298.02948  21956712.624    21956713.9194   21956719.0224
      2746.523        2140.148
   6824467.346 9   5319547.30546  23664889.697    23664891.3974   23664895.9624
     -2553.288       -1989.575
  13469677.200 9  10488338.53046  23614428.525    23614429.5464   23614435.6944
     -3307.767       -2577.481
  -3810412.268 9  -2959795.40748  20513978.805    20513979.6904   20513984.7294
      -216.551        -168.741
   4287840.747 9   3343925.13346  24491441.278    24491441.4484   24491447.8364
     -1656.063       -1290.439
 -14026494.938 9 -10912303.07648  21216575.444    21216576.4654   21216581.7094
      1917.106        1493.849
  -5276663.476 9  -4092367.78246  24439699.359    24439700.4054   24439706.5254
      2499.338        1947.536
 96 10 17 16 51 29.9990000  0 10 17  1 28  3 26  6 23 22 21  9      -0.000775690
  -1638102.180 9  -1264824.18848  20581881.870    20581882.7264   20581887.5474
      -480.713        -374.582
 -12553682.113 9  -9462919.54647  23130864.237    23130865.1794   23130871.6224
      4045.415        3152.271
  -7888365.089 9  -6132174.713 9  20256605.071    20256606.268    20256610.636
      -165.592        -129.033
 -17940276.962 9 -13966319.42548  21941077.948    21941079.2894   21941084.3754
      2730.813        2127.906
   6901201.920 9   5379340.44246  23679491.729    23679493.4234   23679498.0414
     -2562.490       -1996.745
  13568962.742 9  10565703.82846  23633321.701    23633323.0714   23633329.2244
     -3311.127       -2580.099
  -3803795.354 9  -2954639.37148  20515237.949    20515238.8324   20515243.8734
      -224.680        -175.075
   4337606.202 9   3382703.36746  24500911.224    24500911.4964   24500917.9744
     -1661.473       -1294.654
 -14083874.309 9 -10957014.27248  21205656.566    21205657.5414   21205662.7754
      1908.417        1487.078
  -5351530.654 8  -4150705.78046  24425452.596    24425453.6154   24425459.8124
      2491.843        1941.696
 96 10 17 16 51 59.9990000  0 10 17  1 28  3 26  6 23 22 21  9      -0.000784780
  -1623525.407 9  -1253465.66848  20584655.772    20584656.5964   20584661.4324
      -491.228        -382.775
 -12674966.833 9  -9557427.08747  23107784.365    23107785.4544   23107791.9184
      4040.075        3148.110
  -7883096.201 9  -6128069.095 9  20257607.703    20257608.914    20257613.279
      -185.886        -144.846
 -18021966.231 9 -14029973.39748  21925533.029    21925534.3944   21925539.4564
      2714.879        2115.490
   6978218.327 9   5439353.19646  23694147.530    23694149.1334   23694153.7744
     -2572.168       -2004.287
  13668340.026 9  10643140.58346  23652232.740    23652234.0384   23652240.1544
     -3314.185       -2582.482
  -3796929.268 9  -2949289.17248  20516544.494    20516545.4094   20516550.4304
      -233.530        -181.971
   4387524.169 9   3421600.44646  24510410.487    24510410.5914   24510417.0994
     -1666.537       -1298.600
 -14141010.441 9 -11001535.92948  21194783.878    21194784.8714   21194790.1034
      1900.505        1480.913
  -5426164.282 9  -4208861.79746  24411250.323    24411251.2954   24411257.4584
      2483.392        1935.111
 96 10 17 16 52 29.9990000  0 10 17  1 28  3 26  6 23 22 21  9      -0.000793881
  -1608650.579 9  -1241874.90148  20587486.266    20587487.1604   20587492.0224
      -501.127        -390.489
 -12796102.684 9  -9651818.63347  23084733.057    23084733.9884   23084740.4814
      4034.840        3144.031
  -7877233.673 9  -6123500.911 9  20258723.299    20258724.527    20258728.902
      -205.620        -160.223
 -18103194.720 9 -14093268.32448  21910075.850    21910077.1314   21910082.2134
      2699.736        2103.690
   7055514.718 9   5499584.11646  23708856.433    23708858.1754   23708862.8504
     -2581.569       -2011.612
  13767788.720 9  10720633.00546  23671157.346    23671158.5564   23671164.7324
     -3316.547       -2584.322
  -3789795.615 9  -2943730.49048  20517901.945    20517902.9134   20517907.9284
      -242.809        -189.202
   4437571.408 9   3460598.24646  24519934.205    24519934.2994   24519940.8024
     -1670.552       -1301.729
 -14197936.052 9 -11045893.54548  21183951.289    21183952.2774   21183957.5174
      1893.869        1475.742
  -5500566.043 8  -4266837.13746  24397092.158    24397093.1364   24397099.2244
      2476.063        1929.400
 96 10 17 16 52 59.9990000  0 10 17  1 28  3 26  6 23 22 21  9      -0.000802992
  -1593475.971 9  -1230050.53848  20590373.904    20590374.7894   20590379.6544
      -511.141        -398.292
 -12917077.722 9  -9746084.87347  23061712.218    23061713.1394   23061719.6764
      4029.591        3139.941
  -7870775.975 9  -6118468.952 9  20259952.287    20259953.418    20259957.768
      -225.503        -175.717
 -18183971.986 9 -14156211.64948  21894704.428    21894705.7214   21894710.8074
      2684.962        2092.178
   7133102.310 9   5560041.94846  23723620.794    23723622.6124   23723627.2494
     -2591.580       -2019.413
  13867321.993 9  10798191.32446  23690098.299    23690099.2334   23690105.4424
     -3319.662       -2586.750
  -3782375.496 9  -2937948.58348  20519313.845    20519314.9314   20519319.9134
      -252.345        -196.632
   4487741.042 9   3499691.43746  24529481.025    24529481.2834   24529487.7224
     -1674.781       -1305.024
 -14254670.261 9 -11090102.01848  21173155.135    21173156.1264   21173161.3694
      1887.693        1470.930
  -5574753.025 9  -4324645.11446  24382974.884    24382975.7864   24382981.9354
      2469.192        1924.046
 96 10 17 16 53 29.9990000  0 10 17  1 28  3 26  6 23 22 21  9      -0.000812107
  -1578000.196 9  -1217991.50548  20593318.804    20593319.7234   20593324.6074
      -520.824        -405.837
 -13037900.934 9  -9840232.79947  23038720.240    23038721.2304   23038727.7824
      4025.250        3136.558
  -7863723.704 9  -6112973.690 9  20261294.279    20261295.417    20261299.799
      -244.816        -190.766
 -18264316.453 9 -14218817.72748  21879415.374    21879416.6534   21879421.8204
      2671.172        2081.433
   7210996.480 9   5620738.66646  23738443.788    23738445.4494   23738450.0174
     -2601.444       -2027.099
  13966961.023 9  10875832.04646  23709059.005    23709060.0084   23709066.2104
     -3323.244       -2589.541
  -3774678.263 9  -2931950.74248  20520778.632    20520779.6714   20520784.6614
      -260.924        -203.317
   4538037.329 9   3538883.30446  24539051.971    24539052.3984   24539058.8684
     -1678.274       -1307.746
 -14311215.455 9 -11134163.20648  21162394.916    21162395.9104   21162401.1714
      1881.615        1466.194
  -5648731.806 9  -4382290.88046  24368897.289    24368898.1114   24368904.2724
      2462.530        1918.855
 96 10 17 16 53 59.9990000  0 10 17  1 28  3 26  6 23 22 21  9      -0.000821228
  -1562210.130 9  -1205687.56748  20596323.596    20596324.4844   20596329.3854
      -531.370        -414.055
 -13158584.850 9  -9934272.19247  23015754.942    23015755.8654   23015762.3694
      4020.621        3132.951
  -7856074.094 9  -6107012.968 9  20262749.895    20262751.104    20262755.486
      -264.875        -206.396
 -18344234.516 9 -14281091.54648  21864207.474    21864208.7704   21864213.9564
      2656.960        2070.358
   7289201.237 9   5681677.40746  23753325.816    23753327.4044   23753331.9784
     -2611.679       -2035.075
  14066723.482 9  10953568.94646  23728043.309    23728044.2104   23728050.3764
     -3327.335       -2592.729
  -3766702.993 9  -2925736.24748  20522296.374    20522297.3204   20522302.3184
      -270.455        -210.744
   4588456.183 8   3578170.67546  24548646.523    24548646.8884   24548653.3074
     -1682.830       -1311.296
 -14367545.922 9 -11178057.06748  21151675.553    21151676.5564   21151681.8354
      1873.784        1460.091
  -5722485.033 9  -4439760.87346  24354862.673    24354863.3054   24354869.4754
      2454.803        1912.834
 96 10 17 16 54 29.9990000  0 10 17  1 28  3 26  6 23 22 21  9      -0.000830356
  -1546112.961 9  -1193144.32948  20599386.750    20599387.6614   20599392.5794
      -541.437        -421.899
 -13279130.423 9 -10028203.79447  22992815.787    22992816.8244   22992823.2554
      4015.934        3129.299
  -7847825.522 9  -6100585.526 9  20264319.559    20264320.755    20264325.153
      -284.717        -221.857
 -18423724.591 9 -14343031.86448  21849081.012    21849082.3034   21849087.4834
      2642.626        2059.189
   7367706.935 9   5742850.64046  23768265.166    23768266.6394   23768271.1674
     -2621.655       -2042.848
  14166606.271 9  11031399.61746  23747050.256    23747051.2674   23747057.3814
     -3331.153       -2595.704
  -3758453.751 9  -2919308.27048  20523866.173    20523867.1304   20523872.0924
      -278.945        -217.360
   4639010.697 8   3617563.74646  24558266.534    24558267.0904   24558273.5574
     -1687.076       -1314.605
 -14423625.841 9 -11221755.70148  21141003.894    21141004.9174   21141010.1764
      1864.988        1453.237
  -5796019.030 9  -4497060.04846  24340869.372    24340870.2744   24340876.3564
      2447.779        1907.360
 96 10 17 16 54 59.9990000  0 10 17  1 28  3 26  6 23 22 21  9      -0.000839488
  -1529729.904 9  -1180378.31948  20602504.444    20602505.2894   20602510.2144
      -550.144        -428.684
 -13399546.294 9 -10122034.31847  22969901.352    22969902.4404   22969908.8254
      4012.393        3126.540
  -7838988.389 9  -6093699.462 9  20266001.178    20266002.403    20266006.815
      -303.785        -236.716
 -18502784.872 9 -14404637.28048  21834036.282    21834037.6154   21834042.7854
      2628.645        2048.295
   7446507.003 9   5804253.25046  23783260.355    23783261.8264   23783266.3454
     -2630.994       -2050.125
  14266590.522 9  11109309.34246  23766076.747    23766077.6554   23766083.9184
     -3333.694       -2597.684
  -3749978.595 9  -2912704.25648  20525479.002    20525479.9084   20525484.8524
      -285.402        -222.391
   4689691.746 8   3657055.41746  24567910.709    24567911.2774   24567917.8604
     -1690.871       -1317.562
 -14479435.481 9 -11265243.72648  21130383.715    21130384.6874   21130389.9554
      1856.303        1446.470
  -5869338.294 9  -4554191.89546  24326916.890    24326917.9964   24326924.0204
      2440.781        1901.907
 96 10 17 16 55 29.9990000  0 10 17  1 28  3 26  6 23 22 21  9      -0.000848628
  -1513074.570 9  -1167400.14948  20605673.865    20605674.7034   20605679.6234
      -560.730        -436.932
 -13519835.387 9 -10215766.06647  22947011.162    22947012.2004   22947018.4974
      4006.091        3121.629
  -7829565.967 9  -6086357.329 9  20267794.183    20267795.432    20267799.855
      -324.932        -253.194
 -18581403.975 9 -14465898.92048  21819075.675    21819076.9334   21819082.0864
      2611.932        2035.272
   7525587.991 9   5865874.76146  23798308.898    23798310.4734   23798314.9364
     -2641.443       -2058.267
  14366657.723 8  11187283.70546  23785119.378    23785119.8104   23785126.0914
     -3337.763       -2600.854
  -3741297.226 9  -2905939.55648  20527131.017    20527131.9114   20527136.8444
      -293.974        -229.071
   4740489.835 8   3696638.28646  24577577.291    24577577.8134   24577584.4924
     -1695.892       -1321.474
 -14534965.773 9 -11308514.07648  21119816.649    21119817.6244   21119822.8874
      1845.195        1437.814
  -5942430.221 9  -4611146.59446  24313007.804    24313008.9184   24313015.0184
      2431.535        1894.703
 96 10 17 16 55 59.9990000  0 10 17  1 28  3 26  6 23 22 21  9      -0.000857730
  -1496134.069 9  -1154199.76948  20608897.493    20608898.3844   20608903.3174
      -569.058        -443.422
 -13639949.691 9 -10309361.60947  22924154.332    22924155.2064   22924161.4334
      4000.937        3117.613
  -7819538.166 9  -6078543.468 9  20269702.462    20269703.663    20269708.099
      -343.990        -268.044
 -18659544.168 9 -14526787.37448  21804206.069    21804207.3434   21804212.5144
      2596.809        2023.488
   7604944.419 9   5927710.90246  23813409.927    23813411.6114   23813416.0004
     -2649.322       -2064.407
  14466805.738 9  11265321.02946  23804176.376    23804177.2334   23804183.7954
     -3339.186       -2601.963
  -3732386.251 9  -2898995.94248  20528826.710    20528827.6364   20528832.5364
      -300.476        -234.137
   4791397.662 8   3736306.67546  24587264.970    24587265.3164   24587271.9604
     -1698.333       -1323.376
 -14590191.689 9 -11351547.25048  21109307.498    21109308.4964   21109313.7434
      1836.243        1430.839
  -6015285.509 9  -4667916.89446  24299143.908    24299145.0224   24299151.1164
      2425.290        1889.836
 96 10 17 16 56 29.9990000  0 10 17  1 28  3 26  6 23 22 21  9      -0.000866902
  -1478925.981 9  -1140790.88348  20612172.089    20612172.9954   20612177.9254
      -578.973        -451.148
 -13759895.682 9 -10402826.00347  22901329.482    22901330.2604   22901336.4084
      3994.782        3112.817
  -7808931.174 9  -6070278.293 9  20271720.923    20271722.120    20271726.554
      -363.769        -283.456
 -18737211.193 9 -14587307.13748  21789426.441    21789427.7884   21789432.9914
      2580.417        2010.715
   7684542.839 9   5989735.60746  23828557.121    23828558.6654   23828563.0814
     -2657.899       -2071.090
  14567010.794 9  11343402.82246  23823244.057    23823245.6894   23823252.3114
     -3341.770       -2603.977
  -3723276.376 9  -2891897.34548  20530560.324    20530561.1954   20530566.0864
      -307.414        -239.543
   4842378.014 8   3776031.56546  24596966.186    24596966.5814   24596973.2554
     -1701.036       -1325.483
 -14645151.412 9 -11394373.00648  21098848.984    21098850.0264   21098855.2654
      1827.356        1423.914
  -6087964.980 9  -4724550.20046  24285313.220    24285314.5024   24285320.6274
      2419.146        1885.049
 96 10 17 16 56 59.9990000  0 10 17  1 28  3 26  6 23 22 21  9      -0.000876033
  -1461394.942 9  -1127130.34448  20615508.163    20615509.0214   20615513.9724
      -590.136        -459.846
 -13879642.017 9 -10496134.81647  22878542.425    22878543.2634   22878549.4084
      3988.127        3107.631
  -7797720.178 9  -6061542.464 9  20273854.305    20273855.515    20273859.951
      -383.931        -299.167
 -18814374.330 9 -14647434.25448  21774742.853    21774744.1254   21774749.3574
      2563.498        1997.531
   7764404.154 9   6051965.16046  23843754.403    23843755.7714   23843760.3044
     -2666.414       -2077.725
  14667309.902 9  11421557.90946  23842330.403    23842332.0074   23842338.6484
     -3345.267       -2606.702
  -3713939.131 9  -2884621.57548  20532337.137    20532338.0104   20532342.8904
      -315.508        -245.850
   4893453.412 8   3815830.51846  24606685.484    24606685.8364   24606692.5704
     -1704.193       -1327.943
 -14699852.962 9 -11436997.58448  21088439.638    21088440.6464   21088445.8774
      1819.234        1417.585
  -6160445.835 9  -4781028.73646  24271520.782    24271521.8624   24271527.9214
      2412.534        1879.897
 96 10 17 16 57 29.9990000  0 10 17  1 28  3 26  6 23 22 21  9      -0.000885171
  -1443523.617 9  -1113204.64348  20618908.932    20618909.8284   20618914.8084
      -599.916        -467.467
 -13999193.312 9 -10589291.65447  22855792.569    22855793.3704   22855799.4804
      3983.253        3103.834
  -7785911.162 9  -6052340.650 9  20276101.487    20276102.704    20276107.151
      -402.015        -313.258
 -18891034.514 9 -14707169.46148  21760154.971    21760156.1434   21760161.3904
      2548.454        1985.808
   7844506.600 9   6114382.59946  23858997.517    23858998.7634   23859003.4144
     -2672.580       -2082.530
  14767713.567 9  11499794.46146  23861436.823    23861438.1704   23861444.8514
     -3346.951       -2608.014
  -3704353.126 9  -2877151.96848  20534161.329    20534162.1784   20534167.0374
      -322.277        -251.125
   4944610.726 8   3855693.30546  24616420.577    24616420.8604   24616427.5574
     -1705.155       -1328.692
 -14754320.544 9 -11479439.84948  21078074.777    21078075.8054   21078081.0324
      1813.166        1412.857
  -6232743.207 9  -4837364.29346  24257762.951    24257764.0164   24257770.0724
      2408.388        1876.666
 96 10 17 16 57 59.9990000  0 10 17  1 28  3 26  6 23 22 21  9      -0.000894340
  -1425341.952 9  -1099037.12348  20622368.772    20622369.6844   20622374.6594
      -612.032        -476.908
 -14118589.284 9 -10682327.46647  22833072.313    22833073.0504   22833079.1344
      3976.703        3098.730
  -7773546.858 9  -6042706.143 9  20278454.303    20278455.555    20278460.011
      -422.166        -328.961
 -18967229.713 9 -14766542.34448  21745655.492    21745656.6964   21745661.9084
      2531.239        1972.394
   7924823.164 9   6176966.89046  23874281.247    23874282.5284   23874287.2424
     -2681.672       -2089.615
  14868187.137 9  11578085.47346  23880556.379    23880557.7904   23880564.3834
     -3351.259       -2611.371
  -3694549.863 9  -2869513.06648  20536026.814    20536027.7064   20536032.5424
      -331.209        -258.085
   4995820.999 8   3895597.35646  24626165.558    24626165.9554   24626172.4824
     -1709.017       -1331.702
 -14808591.535 9 -11521728.93248  21067747.317    21067748.3884   21067753.6034
      1804.952        1406.456
  -6304894.639 9  -4893586.13246  24244033.018    24244034.0584   24244040.0394
      2401.566        1871.350
 96 10 17 16 58 29.9990000  0 10 17  1 28  3 26  6 23 22 21  9      -0.000903506
  -1406799.282 9  -1084588.29548  20625897.320    20625898.2664   20625903.2374
      -623.765        -486.051
 -14237802.651 9 -10775220.99647  22810386.663    22810387.4834   22810393.5514
      3970.977        3094.268
  -7760582.776 9  -6032604.277 9  20280921.267    20280922.543    20280927.010
      -441.918        -344.352
 -19042911.694 9 -14825515.31848  21731253.762    21731254.9364   21731260.1244
      2514.523        1959.369
   8005407.425 9   6239759.76946  23889616.116    23889617.2244   23889621.9574
     -2690.260       -2096.306
  14968789.889 9  11656477.15546  23899700.351    23899701.8784   23899708.6314
     -3355.256       -2614.485
  -3684481.131 9  -2861667.30748  20537942.833    20537943.7554   20537948.5924
      -339.821        -264.796
   5047152.729 8   3935596.05046  24635933.558    24635934.0014   24635940.5674
     -1712.911       -1334.736
 -14862622.765 9 -11563831.17748  21057465.559    21057466.5864   21057471.8054
      1797.196        1400.412
  -6376822.103 8  -4949633.44046  24230345.402    24230346.6194   24230352.5574
      2393.446        1865.023
 96 10 17 16 58 59.9990000  0 10 17  1 28  3 26  6 23 22 21  9      -0.000912662
  -1387899.572 9  -1069861.26148  20629493.828    20629494.7554   20629499.7204
      -635.237        -494.990
 -14356820.784 9 -10867962.38847  22787738.102    22787739.0844   22787745.1664
      3964.377        3089.125
  -7747003.377 9  -6022022.947 9  20283505.346    20283506.609    20283511.107
      -462.558        -360.435
 -19118075.464 9 -14884084.49748  21716950.521    21716951.7254   21716956.9304
      2497.275        1945.928
   8086261.366 9   6302762.78946  23905002.109    23905003.2924   23905007.9964
     -2699.164       -2103.245
  15069525.209 9  11734972.16946  23918869.840    23918871.2004   23918878.0794
     -3359.608       -2617.876
  -3674128.514 9  -2853600.34048  20539912.859    20539913.7954   20539918.6484
      -349.471        -272.315
   5098623.848 9   3975703.35546  24645728.073    24645728.6184   24645735.2424
     -1717.605       -1338.394
 -14916390.259 9 -11605727.92248  21047233.997    21047234.9984   21047240.1874
      1787.948        1393.206
  -6448454.910 9  -5005451.17046  24216714.069    24216715.2274   24216721.2054
      2382.913        1856.815
 96 10 17 16 59 29.9990000  0 10 17  1 28  3 26  6 23 22 21  9      -0.000921808
  -1368674.726 9  -1054880.87248  20633152.243    20633153.1294   20633158.1084
      -645.448        -502.946
 -14475655.294 9 -10960560.69847  22765124.673    22765125.6214   22765131.6874
      3958.755        3084.744
  -7732819.179 9  -6010970.343 9  20286204.549    20286205.795    20286210.288
      -482.162        -375.711
 -19192737.265 9 -14942262.52248  21702742.777    21702744.0404   21702749.2524
      2481.160        1933.371
   8167370.595 9   6365964.73046  23920436.751    23920437.8764   23920442.5604
     -2707.229       -2109.529
  15170369.650 9  11813552.18946  23938060.288    23938061.3844   23938068.2244
     -3362.315       -2619.986
  -3663507.434 9  -2845324.18148  20541933.956    20541934.9144   20541939.7824
      -357.644        -278.684
   5150221.771 9   4015909.49246  24655546.808    24655547.4124   24655554.0684
     -1721.378       -1341.333
 -14969879.929 9 -11647408.17748  21037055.225    21037056.2464   21037061.4144
      1778.958        1386.201
  -6519778.647 8  -5061028.06146  24203141.481    24203142.7344   24203148.7684
      2372.848        1848.972
 96 10 17 16 59 59.9990000  0 10 17  1 28  3 26  6 23 22 21  9      -0.000930961
  -1349153.904 9  -1039669.85048  20636866.921    20636867.8324   20636872.8234
      -655.880        -511.075
 -14594328.632 9 -11053033.41447  22742541.687    22742542.8074   22742548.8784
      3952.874        3080.162
  -7718054.916 9  -5999465.742 9  20289014.111    20289015.332    20289019.836
      -501.987        -391.159
 -19266927.672 9 -15000073.22748  21688624.823    21688626.0764   21688631.2844
      2465.017        1920.792
   8248707.179 9   6429343.84246  23935914.572    23935915.8194   23935920.4734
     -2715.023       -2115.602
  15271280.226 9  11892183.73846  23957263.097    23957264.1724   23957270.7974
     -3364.894       -2621.995
  -3652656.237 9  -2836868.70748  20543998.907    20543999.8124   20544004.6784
      -365.570        -284.860
   5201925.096 9   4056197.75346  24665385.627    24665386.2984   24665392.9664
     -1725.181       -1344.297
 -15023108.330 9 -11688884.84948  21026926.217    21026927.2164   21026932.3854
      1769.748        1379.024
  -6590801.948 8  -5116370.83046  24189626.219    24189627.3884   24189633.3634
      2362.335        1840.781
 96 10 17 17  0 29.9990000  0 10 17  1 28  3 26  6 23 22 21  9      -0.000940129
  -1329330.802 9  -1024223.29348  20640639.156    20640640.0684   20640645.0274
      -665.908        -518.889
 -14712834.696 9 -11145375.80047  22719990.708    22719991.8434   22719997.9244
      3947.068        3075.637
  -7702706.718 9  -5987506.127 9  20291934.822    20291936.030    20291940.511
      -521.565        -406.414
 -19340650.052 9 -15057519.23948  21674595.941    21674597.1824   21674602.3514
      2449.547        1908.738
   8330255.502 9   6492887.93946  23951432.702    23951433.9354   23951438.6194
     -2721.993       -2121.034
  15372244.345 9  11970857.03346  23976476.021    23976477.0704   23976483.7774
     -3366.360       -2623.138
  -3641584.309 9  -2828241.24048  20546105.817    20546106.7174   20546111.5844
      -372.811        -290.502
   5253717.192 9   4096555.18246  24675241.445    24675242.0344   24675248.7724
     -1727.917       -1346.429
 -15076076.367 9 -11730158.64448  21016846.731    21016847.7434   21016852.9134
      1761.111        1372.294
  -6661535.147 8  -5171487.55546  24176166.192    24176167.2454   24176173.2744
      2352.966        1833.480
 96 10 17 17  0 59.9990000  0 10 17  1 28  3 26  6 23 22 21  9      -0.000949311
  -1309205.062 9  -1008540.91048  20644468.983    20644469.8954   20644474.8634
      -675.685        -526.508
 -14831160.579 9 -11237577.77447  22697474.075    22697475.1444   22697481.2534
      3941.451        3071.261
  -7686766.338 9  -5975085.072 9  20294968.162    20294969.400    20294973.908
      -540.888        -421.471
 -19413904.017 9 -15114600.25248  21660656.139    21660657.4204   21660662.5814
      2434.254        1896.821
   8412026.855 9   6556605.81946  23966993.214    23966994.5854   23966999.3274
     -2729.391       -2126.798
  15473255.565 9  12049567.02345  23995697.618    23995698.9054   23995705.4694
     -3367.537       -2624.055
  -3630296.721 9  -2819445.72148  20548253.849    20548254.7014   20548259.5494
      -379.422        -295.654
   5305588.789 9   4136974.54746  24685112.436    24685112.9514   24685119.5974
     -1729.984       -1348.039
 -15128780.221 9 -11771226.58448  21006817.593    21006818.5574   21006823.7014
      1752.759        1365.786
  -6731994.325 8  -5226390.76446  24162757.923    24162759.3284   24162765.3104
      2344.862        1827.165
 96 10 17 17  1 29.9990000  0 10 17  1 28  3 26  6 23 22 21  9      -0.000958507
  -1288770.006 9   -992617.50248  20648357.665    20648358.5664   20648363.5484
      -686.727        -535.112
 -14949303.191 9 -11329636.94547  22674992.286    22674993.3594   22674999.4264
      3934.424        3065.785
  -7670238.738 9  -5962206.441 9  20298113.306    20298114.501    20298119.043
      -561.087        -437.211
 -19486685.663 9 -15171313.22248  21646806.209    21646807.5114   21646812.7224
      2417.672        1883.900
   8494042.743 9   6620514.24746  23982600.292    23982601.6734   23982606.5364
     -2738.384       -2133.806
  15574306.364 9  12128307.84845  24014926.638    24014928.3844   24014934.8064
     -3369.360       -2625.475
  -3618804.296 9  -2810490.59248  20550440.817    20550441.6764   20550446.4854
      -386.978        -301.541
   5357529.413 9   4177447.72646  24694996.346    24694996.9654   24695003.5924
     -1732.998       -1350.388
 -15181227.017 9 -11812094.21248  20996837.290    20996838.2354   20996843.3944
      1743.635        1358.677
  -6802219.497 9  -5281111.63546  24149394.377    24149395.8174   24149401.8784
      2336.678        1820.788
 96 10 17 17  1 59.9990000  0 10 17  1 28  3 26  6 23 22 21  9      -0.000967710
  -1268025.911 9   -976453.28148  20652305.159    20652306.0254   20652311.0224
      -696.759        -542.929
 -15067243.875 9 -11421538.77247  22652548.988    22652550.0004   22652556.0554
      3927.763        3060.595
  -7653123.939 9  -5948870.250 9  20301370.138    20301371.356    20301375.914
      -580.430        -452.283
 -19558989.714 9 -15227654.04548  21633047.219    21633048.5194   21633053.7354
      2401.983        1871.675
   8576313.462 9   6684621.24946  23998255.781    23998257.2794   23998262.2224
     -2746.908       -2140.448
  15675398.180 9  12207080.63546  24034163.541    24034165.5384   24034172.0984
     -3370.696       -2626.516
  -3607101.831 9  -2801371.79448  20552667.707    20552668.5904   20552673.4004
      -393.799        -306.856
   5409538.565 9   4217974.28646  24704893.176    24704893.9914   24704900.6574
     -1734.873       -1351.849
 -15233420.407 9 -11852764.38448  20986905.202    20986906.1394   20986911.2974
      1735.350        1352.221
  -6872218.798 9  -5335656.49846  24136073.956    24136075.3914   24136081.4394
      2329.358        1815.084
 96 10 17 17  2 29.9990000  0 10 17  1 28  3 26  6 23 22 21  9      -0.000976913
  -1246982.471 9   -960055.80548  20656309.573    20656310.4534   20656315.4604
      -706.279        -550.347
 -15184981.159 9 -11513282.09947  22630144.474    22630145.3664   22630151.3944
      3921.109        3055.410
  -7635424.634 9  -5935078.601 9  20304738.234    20304739.438    20304743.996
      -599.714        -467.310
 -19630811.320 9 -15283618.93248  21619380.105    21619381.3394   21619386.5434
      2385.856        1859.109
   8658852.460 9   6748937.30146  24013962.354    24013963.9344   24013968.8884
     -2755.831       -2147.401
  15776538.561 9  12285891.28045  24053409.901    24053411.9294   24053418.3924
     -3372.286       -2627.755
  -3595181.429 9  -2792083.17648  20554936.084    20554936.9504   20554941.7794
      -401.219        -312.638
   5461608.152 9   4258547.94646  24714801.958    24714802.5504   24714809.1174
     -1736.826       -1353.371
 -15285362.193 9 -11893238.50048  20977021.048    20977021.9574   20977027.0934
      1727.201        1345.871
  -6941986.367 8  -5390020.79446  24122797.469    24122798.9624   24122805.0734
      2321.433        1808.909
 96 10 17 17  2 59.9990000  0 11 17  1 28  3 26  6 23 22 21  9 31   -0.000986110
  -1225647.999 9   -943431.55548  20660369.339    20660370.2734   20660375.3044
      -716.194        -558.073
 -15302507.843 9 -11604861.32347  22607779.870    22607780.7474   22607786.8464
      3913.713        3049.646
  -7617145.049 9  -5920834.788 9  20308216.746    20308217.939    20308222.512
      -619.035        -482.365
 -19702141.793 9 -15339201.12548  21605806.291    21605807.5934   21605812.7724
      2369.327        1846.229
   8741665.698 9   6813467.03946  24029721.261    24029722.6504   24029727.7764
     -2764.972       -2154.524
  15877736.511 9  12364746.76046  24072667.580    24072669.3624   24072675.8154
     -3374.393       -2629.397
  -3583026.410 9  -2782611.73848  20557249.104    20557249.9634   20557254.8104
      -409.285        -318.923
   5513745.611 9   4299174.48046  24724723.423    24724724.0484   24724730.5844
     -1739.167       -1355.195
 -15337057.305 9 -11933520.40748  20967183.805    20967184.7094   20967189.8214
      1718.992        1339.474
  -7011506.259 8  -5444192.10046  24109568.455    24109569.7434   24109575.8584
      2313.054        1802.380
  -2013213.24918  -1553377.28455  24787545.284    24787546.0685   24787551.1865
      3791.488        2954.406
 96 10 17 17  3 29.9990000  0 11 17  1 28  3 26  6 23 22 21  9 31   -0.000995292
  -1204008.364 9   -926569.51148  20664487.225    20664488.1594   20664493.1974
      -726.315        -565.960
 -15419796.828 9 -11696255.33347  22585460.591    22585461.3984   22585467.4934
      3905.715        3043.414
  -7598277.803 9  -5906133.055 9  20311807.114    20311808.276    20311812.858
      -638.726        -497.709
 -19772964.706 9 -15394387.80748  21592329.142    21592330.4344   21592335.6454
      2352.217        1832.896
   8824748.662 9   6878206.95746  24045531.339    24045532.8704   24045538.0264
     -2773.590       -2161.239
  15979012.605 8  12443663.12246  24091940.144    24091941.7064   24091948.2114
     -3377.329       -2631.685
  -3570615.952 9  -2772941.25148  20559610.785    20559611.6084   20559616.4334
      -418.049        -325.752
   5565963.061 9   4339863.35846  24734660.082    24734660.7064   24734667.2994
     -1741.904       -1357.328
 -15388493.482 9 -11973600.53748  20957395.801    20957396.7224   20957401.8654
      1710.131        1332.570
  -7080757.192 9  -5498153.81946  24096389.831    24096391.6814   24096397.7754
      2303.624        1795.032
  -2126851.876 8  -1641926.84845  24765920.916    24765921.4404   24765926.4324
      3784.428        2948.905
 96 10 17 17  3 59.9990000  0 11 17  1 28  3 26  6 23 22 21  9 31   -0.001004470
  -1182082.616 9   -909484.52248  20668659.676    20668660.5014   20668665.5434
      -735.898        -573.427
 -15536871.147 9 -11787482.05847  22563181.995    22563182.9014   22563188.9974
      3898.967        3038.156
  -7578836.107 9  -5890983.703 9  20315506.740    20315507.941    20315512.507
      -657.788        -512.562
 -19843289.343 9 -15449186.22648  21578946.830    21578948.1084   21578953.3434
      2335.634        1819.975
   8908065.198 9   6943128.89446  24061385.790    24061387.4084   24061392.6764
     -2781.216       -2167.181
  16080366.149 8  12522639.82746  24111227.462    24111228.6024   24111235.1864
     -3379.902       -2633.690
  -3557962.786 9  -2763081.64648  20562018.650    20562019.4154   20562024.2414
      -425.768        -331.767
   5618240.903 9   4380599.30246  24744608.297    24744608.9554   24744615.4304
     -1743.504       -1358.575
 -15439684.640 9 -12013489.75048  20947654.494    20947655.3664   20947660.5084
      1702.270        1326.444
  -7149737.854 9  -5551904.95246  24083263.257    24083265.0654   24083271.1674
      2294.644        1788.034
  -2240291.478 8  -1730321.35645  24744334.068    24744334.9144   24744339.8074
      3777.595        2943.581
 96 10 17 17  4 29.9980000  0 11 17  1 28  3 26  6 23 22 21  9 31   -0.001013640
  -1159853.244 9   -892162.94548  20672889.701    20672890.6084   20672895.6654
      -745.664        -581.037
 -15653730.909 9 -11878541.60347  22540944.233    22540945.2004   22540951.3594
      3892.276        3032.942
  -7558811.112 9  -5875379.832 9  20319317.360    20319318.585    20319323.157
      -676.799        -527.376
 -19913094.739 9 -15503580.04148  21565663.304    21565664.5784   21565669.8084
      2318.692        1806.773
   8991614.827 9   7008232.45446  24077284.795    24077286.3814   24077291.5374
     -2788.394       -2172.774
  16181795.064 8  12601675.26546  24130528.961    24130529.9084   24130536.5604
     -3381.859       -2635.215
  -3545072.762 9  -2753037.47648  20564471.485    20564472.3024   20564477.1484
      -433.028        -337.424
   5670574.876 9   4421378.97746  24754567.278    24754567.8104   24754574.3334
     -1745.109       -1359.825
 -15490630.785 9 -12053188.03948  20937959.682    20937960.6454   20937965.7664
      1694.685        1320.534
  -7218444.400 9  -5605442.48246  24070188.992    24070190.5664   24070196.6614
      2286.339        1781.563
  -2353511.416 9  -1818544.68645  24722789.039    24722789.7724   24722795.0114
      3771.161        2938.567
 96 10 17 17  4 59.9980000  0 11 17  1 28  3 26  6 23 22 21  9 31   -0.001022812
  -1137315.207 9   -874600.85348  20677178.557    20677179.4784   20677184.5304
      -757.138        -589.978
 -15770382.609 9 -11969439.01247  22518746.219    22518747.1354   22518753.2334
      3884.271        3026.705
  -7538209.931 9  -5859326.986 9  20323237.654    20323238.887    20323243.448
      -696.817        -542.974
 -19982391.051 9 -15557577.16648  21552476.707    21552477.9504   21552483.1424
      2300.809        1792.838
   9075380.201 9   7073504.12646  24093224.792    24093226.4524   24093231.5884
     -2796.071       -2178.757
  16283289.630 8  12680761.82945  24149842.615    24149843.6364   24149850.4074
     -3384.605       -2637.354
  -3531968.447 9  -2742826.32848  20566965.132    20566965.9984   20566970.8104
      -440.608        -343.331
   5722967.894 9   4462204.66146  24764537.433    24764537.8924   24764544.3984
     -1747.853       -1361.963
 -15541343.733 9 -12092704.62248  20928309.344    20928310.2824   20928315.3974
      1685.853        1313.652
  -7286893.153 9  -5658779.14246  24057163.488    24057165.1804   24057171.3114
      2276.648        1774.011
  -2466540.525 9  -1906619.38745  24701280.243    24701280.9024   24701286.4324
      3763.865        2932.882
 96 10 17 17  5 29.9980000  0 11 17  1 28  3 26  6 23 22 21  9 31   -0.001031979
  -1114446.927 9   -856781.43448  20681530.309    20681531.1934   20681536.2384
      -767.392        -597.968
 -15886814.570 9 -12060165.20847  22496590.027    22496590.8724   22496596.9814
      3878.136        3021.924
  -7517024.734 9  -5842819.058 9  20327269.106    20327270.325    20327274.856
      -715.384        -557.442
 -20051161.078 9 -15611164.20148  21539390.171    21539391.4244   21539396.6554
      2283.982        1779.726
   9159354.493 9   7138938.60946  24109204.474    24109206.2384   24109211.4044
     -2802.144       -2183.489
  16384838.311 8  12759890.56345  24169167.219    24169167.6984   24169174.3434
     -3385.078       -2637.723
  -3518662.075 9  -2732457.73148  20569497.320    20569498.1634   20569502.9454
      -446.387        -347.834
   5775421.443 9   4503077.49946  24774519.039    24774519.5214   24774526.0174
     -1748.934       -1362.806
 -15591800.556 9 -12132021.61648  20918707.758    20918708.6894   20918713.7944
      1678.098        1307.609
  -7355062.699 9  -5711898.23346  24044191.379    24044192.8854   24044199.0574
      2268.080        1767.335
  -2579365.410 9  -1994534.88745  24679810.128    24679811.0434   24679816.8434
      3757.931        2928.258
 96 10 17 17  5 59.9980000  0 11 17  1 28  3 26  6 23 22 21  9 31   -0.001041151
  -1091237.566 9   -838696.23348  20685946.857    20685947.7874   20685952.8424
      -779.756        -607.602
 -16003041.807 9 -12150731.86647  22474472.711    22474473.5484   22474479.6824
      3870.279        3015.802
  -7495262.029 9  -5825861.124 9  20331410.399    20331411.638    20331416.183
      -735.303        -572.963
 -20119404.343 9 -15664340.77248  21526403.927    21526405.1534   21526410.3634
      2265.681        1765.466
   9243538.834 9   7204536.74146  24125224.353    24125225.9884   24125231.1184
     -2809.936       -2189.561
  16486409.368 8  12839036.71245  24188495.625    24188496.0564   24188502.8814
     -3386.110       -2638.527
  -3505161.854 9  -2721938.08348  20572066.352    20572067.1734   20572071.9374
      -453.487        -353.366
   5827926.584 9   4543990.54846  24784510.652    24784510.9734   24784517.3904
     -1751.283       -1364.636
 -15642014.786 9 -12171149.58248  20909152.293    20909153.2114   20909158.3494
      1669.551        1300.949
  -7422952.703 9  -5764799.50846  24031272.304    24031273.8614   24031279.9714
      2258.068        1759.534
  -2691997.544 9  -2082300.20945  24658377.150    24658378.0904   24658383.7294
      3750.844        2922.736
 96 10 17 17  6 29.9980000  0 11 17  1 28  3 26  6 23 22 21  9 31   -0.001050399
  -1067662.532 9   -820326.10348  20690433.133    20690433.9814   20690439.0334
      -791.599        -616.830
 -16119026.559 9 -12241109.58047  22452401.426    22452402.3974   22452408.4934
      3862.143        3009.462
  -7472911.530 9  -5808445.174 9  20335663.542    20335664.812    20335669.352
      -754.482        -587.908
 -20187109.332 9 -15717097.91248  21513520.190    21513521.2984   21513526.4974
      2248.186        1751.833
   9327940.247 9   7270304.03746  24141285.380    24141287.1204   24141292.0914
     -2816.497       -2194.673
  16587999.990 8  12918198.09645  24207827.076    24207828.2764   24207835.1794
     -3386.507       -2638.837
  -3491448.103 9  -2711252.05348  20574675.957    20574676.8094   20574681.5654
      -460.712        -358.996
   5880501.213 9   4584957.74746  24794515.336    24794515.6554   24794522.0724
     -1753.384       -1366.273
 -15691973.705 9 -12210078.60748  20899645.414    20899646.3494   20899651.4744
      1661.222        1294.459
  -7490540.535 9  -5817465.33946  24018411.012    24018412.2694   24018418.3354
      2248.058        1751.734
  -2804424.403 9  -2169905.59145  24636983.277    24636983.9044   24636989.5324
      3744.460        2917.761
 96 10 17 17  6 59.9980000  0 11 17  1 28  3 26  6 23 22 21  9 31   -0.001059562
  -1043728.823 9   -801676.47348  20694987.582    20694988.4204   20694993.5004
      -803.669        -626.236
 -16234759.828 9 -12331291.32647  22430378.328    22430379.0944   22430385.1674
      3853.743        3002.917
  -7449981.241 9  -5790577.433 9  20340027.115    20340028.311    20340032.847
      -773.967        -603.091
 -20254284.759 9 -15769442.39448  21500737.075    21500738.2724   21500743.4274
      2230.313        1737.906
   9412537.284 9   7336223.76346  24157383.751    24157385.4424   24157390.4044
     -2823.064       -2199.790
  16689606.488 8  12997371.85945  24227161.741    24227163.5004   24227169.9394
     -3386.969       -2639.197
  -3477502.834 9  -2700385.61148  20577329.664    20577330.4944   20577335.2514
      -468.719        -365.236
   5933131.896 9   4625968.61446  24804530.684    24804530.9874   24804537.3424
     -1754.927       -1367.476
 -15741674.717 9 -12248806.65848  20890187.646    20890188.5314   20890193.7024
      1652.429        1287.607
  -7557811.439 9  -5869884.20546  24005609.716    24005611.0354   24005616.9604
      2237.112        1743.204
  -2916650.572 9  -2257354.54345  24615627.116    24615628.0214   24615633.5344
      3737.335        2912.209
 96 10 17 17  7 29.9980000  0 11 17  1 28  3 26  6 23 22 21  9 31   -0.001068736
  -1019461.748 9   -782767.08148  20699605.546    20699606.3264   20699611.3854
      -814.759        -634.877
 -16350265.443 9 -12421295.66947  22408398.388    22408399.1094   22408405.1774
      3845.981        2996.868
  -7426488.245 9  -5772271.222 9  20344497.749    20344498.908    20344503.420
      -792.968        -617.897
 -20320939.273 9 -15821380.97448  21488053.098    21488054.3434   21488059.4814
      2212.787        1724.250
   9497312.964 9   7402282.69046  24173516.382    24173517.7654   24173522.6584
     -2829.423       -2204.745
  16791210.475 8  13076543.66445  24246496.730    24246498.3474   24246504.8034
     -3387.416       -2639.545
  -3463332.502 9  -2689343.80148  20580026.183    20580027.0334   20580031.8114
      -476.705        -371.458
   5985787.607 9   4666999.00546  24814550.839    24814551.1124   24814557.4734
     -1756.129       -1368.412
 -15791140.747 9 -12287351.60948  20880774.572    20880775.4724   20880780.6464
      1644.694        1281.580
  -7624782.905 9  -5922069.74746  23992865.454    23992866.7384   23992872.6734
      2227.075        1735.383
  -3028682.101 9  -2344651.83545  24594308.269    24594309.1074   24594314.6584
      3730.539        2906.914
 96 10 17 17  7 59.9980000  0 11 17  1 28  3 26  6 23 22 21  9 31   -0.001077922
   -994861.365 9   -763597.97148  20704286.896    20704287.6424   20704292.6864
      -825.100        -642.935
 -16465527.730 9 -12511110.40947  22386464.692    22386465.3914   22386471.4584
      3838.275        2990.864
  -7402417.903 9  -5753515.137 9  20349078.204    20349079.368    20349083.871
      -811.627        -632.437
 -20387070.633 9 -15872911.90748  21475468.713    21475469.9864   21475475.1084
      2196.104        1711.250
   9582284.384 9   7468494.16046  24189685.921    24189687.4274   24189692.1114
     -2835.111       -2209.177
  16892839.917 8  13155735.33246  24265836.470    24265837.9624   24265844.4504
     -3387.848       -2639.881
  -3448911.851 9  -2678106.94048  20582770.257    20582771.1904   20582775.9934
      -484.405        -377.458
   6038485.759 9   4708062.45045  24824578.759    24824579.3654   24824585.5524
     -1757.030       -1369.114
 -15840372.509 9 -12325714.01548  20871406.062    20871406.9574   20871412.1694
      1637.303        1275.821
  -7691453.042 9  -5974020.48046  23980178.460    23980179.8634   23980185.7394
      2217.708        1728.084
  -3140495.493 9  -2431779.13745  24573030.964    24573031.8254   24573037.1064
      3723.518        2901.443
 96 10 17 17  8 29.9980000  0 11 17  1 28  3 26  6 23 22 21  9 31   -0.001087130
   -969955.764 9   -744191.02448  20709026.264    20709027.0334   20709032.0944
      -835.515        -651.051
 -16580560.685 9 -12600746.44447  22364574.508    22364575.2974   22364581.3944
      3830.358        2984.695
  -7377782.914 9  -5734319.061 9  20353766.131    20353767.266    20353771.758
      -830.961        -647.502
 -20452692.543 9 -15924045.86548  21462981.337    21462982.5924   21462987.6854
      2178.341        1697.409
   9667429.650 9   7534841.08046  24205888.842    24205889.9534   24205894.7134
     -2841.610       -2214.242
  16994489.872 8  13234942.98446  24285179.429    24285181.3524   24285187.8544
     -3389.077       -2640.839
  -3434256.163 9  -2666686.93048  20585559.161    20585560.0914   20585564.9004
      -492.734        -383.949
   6091215.985 9   4749150.89345  24834613.198    24834613.6104   24834619.8064
     -1758.528       -1370.282
 -15889363.428 9 -12363888.74948  20862083.430    20862084.3314   20862089.5054
      1628.703        1269.119
  -7757831.667 9  -6025744.07146  23967547.140    23967548.3994   23967554.2664
      2207.378        1720.035
  -3252082.483 9  -2518730.01846  24551796.630    24551797.6844   24551802.9524
      3715.376        2895.098
 96 10 17 17  8 59.9980000  0 11 17  1 28  3 26  6 23 22 21  9 31   -0.001096337
   -944744.777 9   -724546.11948  20713823.625    20713824.5404   20713829.5884
      -845.265        -658.648
 -16695365.372 9 -12690204.61147  22342727.711    22342728.6694   22342734.7794
      3823.365        2979.245
  -7352569.906 9  -5714672.584 9  20358564.057    20358565.161    20358569.655
      -849.911        -662.268
 -20517778.780 9 -15974762.41448  21450595.904    21450597.1214   21450602.1844
      2160.753        1683.704
   9752779.714 9   7601347.56046  24222130.466    24222131.6244   24222136.2814
     -2848.471       -2219.588
  17096178.047 8  13314180.39546  24304530.257    24304532.0354   24304538.5074
     -3390.092       -2641.630
  -3419371.593 9  -2655088.57448  20588391.716    20588392.5704   20588397.3514
      -499.411        -389.151
   6143990.554 9   4790273.88845  24844655.750    24844656.3274   24844662.2854
     -1759.915       -1371.362
 -15938104.469 9 -12401868.77448  20852808.325    20852809.2154   20852814.4054
      1620.756        1262.927
  -7823903.315 9  -6077228.46846  23954974.416    23954975.4794   23954981.2124
      2197.567        1712.390
  -3363426.282 9  -2605491.40446  24530608.490    24530609.7014   24530614.9684
      3707.414        2888.894
 96 10 17 17  9 29.9980000  0 11 17  1 28  3 26  6 23 22 21  9 31   -0.001105550
   -919244.299 9   -704675.63248  20718676.166    20718677.1184   20718682.1864
      -854.754        -666.042
 -16809959.218 9 -12779498.48447  22320921.186    22320922.1624   22320928.2524
      3816.271        2973.718
  -7326789.035 9  -5694583.613 9  20363469.977    20363471.115    20363475.600
      -868.735        -676.936
 -20582338.547 9 -16025068.72748  21438310.658    21438311.8104   21438316.8584
      2143.401        1670.183
   9838343.588 9   7668020.66546  24238412.731    24238413.9754   24238418.6454
     -2855.627       -2225.164
  17197897.522 8  13393442.20646  24323886.839    24323888.7224   24323895.1464
     -3391.017       -2642.351
  -3404295.542 9  -2643341.00748  20591260.634    20591261.4604   20591266.2064
      -505.596        -393.971
   6196816.901 9   4831437.26945  24854708.030    24854708.6974   24854714.7934
     -1761.791       -1372.824
 -15986606.564 9 -12439662.60948  20843578.724    20843579.5464   20843584.7434
      1612.778        1256.710
  -7889688.099 9  -6128489.33146  23942455.973    23942457.0714   23942462.8264
      2188.061        1704.983
  -3474522.068 9  -2692059.53646  24509467.627    24509468.7984   24509474.1724
      3698.920        2882.275
 96 10 17 17  9 59.9980000  0 11 17  1 28  3 26  6 23 22 21  9 31   -0.001114754
   -893457.767 9   -684582.24548  20723583.226    20723584.1704   20723589.2294
      -864.109        -673.332
 -16924339.824 9 -12868626.20247  22299155.396    22299156.2254   22299162.3124
      3809.227        2968.229
  -7300446.014 9  -5674056.609 9  20368482.900    20368484.040    20368488.533
      -887.222        -691.342
 -20646382.657 9 -16074973.23048  21426123.467    21426124.6284   21426129.7004
      2126.274        1656.837
   9924119.118 9   7734858.68046  24254734.719    24254736.5114   24254741.2584
     -2862.473       -2230.498
  17299641.243 8  13472722.91446  24343247.984    24343249.9644   24343256.4194
     -3391.564       -2642.777
  -3389037.462 9  -2631451.60148  20594164.132    20594164.9844   20594169.7164
      -511.339        -398.446
   6249693.563 9   4872639.83845  24864770.072    24864770.7804   24864776.8094
     -1763.014       -1373.777
 -16034861.106 9 -12477263.53948  20834396.100    20834396.9684   20834402.1784
      1604.536        1250.288
  -7955179.307 9  -6179521.44346  23929993.329    23929994.5254   23930000.1094
      2178.204        1697.302
  -3585356.753 9  -2778424.19046  24488376.677    24488377.6814   24488383.0414
      3690.316        2875.571
 96 10 17 17 10 29.9980000  0 11 17  1 28  3 26  6 23 22 21  9 31   -0.001123934
   -867374.914 9   -664257.96148  20728546.757    20728547.6034   20728552.6534
      -874.461        -681.398
 -17038492.095 9 -12957575.98247  22277432.818    22277433.7634   22277439.8404
      3801.134        2961.923
  -7273531.333 9  -5653084.150 9  20373604.596    20373605.755    20373610.235
      -906.731        -706.544
 -20709884.482 9 -16124455.17348  21414039.467    21414040.6094   21414045.7154
      2107.626        1642.306
  10010122.587 9   7801874.32146  24271100.640    24271102.4044   24271107.1964
     -2870.743       -2236.943
  17401416.519 8  13552028.21146  24362615.432    24362617.1614   24362623.7324
     -3393.176       -2644.033
  -3373593.100 9  -2619417.04148  20597103.149    20597103.9694   20597108.6644
      -517.944        -403.593
   6302619.644 9   4913880.97445  24874841.639    24874842.3014   24874848.1014
     -1764.945       -1375.282
 -16082861.428 9 -12514666.38148  20825261.933    20825262.7944   20825268.0094
      1596.012        1243.646
  -8020348.725 9  -6230302.81946  23917592.117    23917593.2374   23917598.7294
      2166.867        1688.468
  -3695922.689 9  -2864579.44246  24467336.524    24467337.6434   24467343.0534
      3681.145        2868.425
 96 10 17 17 10 59.9980000  0 11 17  1 28  3 26  6 23 22 21  9 31   -0.001133093
   -840987.436 9   -643696.30748  20733568.140    20733568.9724   20733574.0434
      -884.646        -689.335
 -17152409.168 9 -13046342.50447  22255755.211    22255756.0394   22255762.1434
      3793.506        2955.979
  -7246046.904 9  -5631667.732 9  20378834.744    20378835.898    20378840.361
      -925.438        -721.120
 -20772849.273 9 -16173518.64948  21402057.616    21402058.8144   21402063.9044
      2090.258        1628.772
  10096355.752 9   7869068.93246  24287510.107    24287512.1674   24287516.9784
     -2877.785       -2242.430
  17503238.410 9  13631369.83946  24381991.600    24381993.2854   24381999.9244
     -3394.566       -2645.116
  -3357963.501 9  -2607238.14148  20600077.354    20600078.1844   20600082.8794
      -524.020        -408.327
   6355586.730 9   4955153.93545  24884921.015    24884921.5654   24884927.1574
     -1766.020       -1376.119
 -16130629.720 9 -12551888.41948  20816171.881    20816172.7814   20816177.9894
      1588.516        1237.805
  -8085197.375 9  -6280834.23646  23905251.900    23905252.9594   23905258.5244
      2156.664        1680.517
  -3806230.470 9  -2950533.54546  24446345.571    24446346.6894   24446352.0604
      3672.686        2861.833
 96 10 17 17 11 29.9980000  0 11 17  1 28  3 26  6 23 22 21  9 31   -0.001142259
   -814286.803 9   -622890.63348  20738649.115    20738649.9504   20738655.0374
      -895.241        -697.590
 -17266092.710 9 -13134927.05247  22234121.930    22234122.7734   22234128.8224
      3785.460        2949.709
  -7218000.478 9  -5609813.395 9  20384171.873    20384172.988    20384177.433
      -944.125        -735.682
 -20835299.661 9 -16222181.28848  21390173.665    21390174.9254   21390179.9954
      2073.179        1615.464
  10182782.515 9   7936414.39646  24303956.603    24303958.7774   24303963.5904
     -2883.719       -2247.054
  17605093.367 9  13710737.22446  24401373.934    24401375.7544   24401382.3884
     -3395.482       -2645.830
  -3342138.056 9  -2594906.62948  20603088.830    20603089.6734   20603094.3534
      -530.905        -413.692
   6408582.253 9   4996449.11245  24895006.012    24895006.6104   24895011.7154
     -1766.807       -1376.733
 -16178171.978 9 -12588934.32448  20807124.937    20807125.8014   20807131.0114
      1581.041        1231.980
  -8149735.527 9  -6331123.69646  23892970.505    23892971.7974   23892977.3034
      2146.073        1672.265
  -3916282.707 9  -3036288.52546  24425403.359    24425404.4274   24425409.7864
      3664.335        2855.326
 96 10 17 17 11 59.9980000  0 11 17  1 28  3 26  6 23 22 21  9 31   -0.001151432
   -787255.263 9   -601827.11348  20743793.081    20743793.8974   20743798.9904
      -906.488        -706.354
 -17379517.317 9 -13223309.83247  22212537.915    22212538.8034   22212544.7954
      3776.541        2942.759
  -7189384.377 9  -5587515.155 9  20389617.361    20389618.476    20389622.923
      -963.205        -750.549
 -20897222.289 9 -16270432.69048  21378390.198    21378391.4594   21378396.5244
      2055.253        1601.496
  10269392.141 9   8003902.34746  24320437.985    24320440.1694   24320445.0194
     -2889.831       -2251.816
  17706983.966 9  13790132.39745  24420763.390    24420764.9944   24420771.6404
     -3396.857       -2646.901
  -3326089.038 9  -2582400.91048  20606142.929    20606143.7204   20606148.3964
      -538.527        -419.631
   6461604.770 9   5037765.30045  24905096.393    24905096.3424   24905102.1044
     -1767.629       -1377.373
 -16225477.954 9 -12625796.11748  20798122.858    20798123.7734   20798128.9834
      1573.180        1225.855
  -8213942.954 9  -6381155.46246  23880752.429    23880753.5084   23880758.9544
      2134.938        1663.588
  -4026085.898 9  -3121849.41946  24404508.601    24404509.5184   24404514.8624
      3656.291        2849.058
 96 10 17 17 12 29.9980000  0 11 17  1 28  3 26  6 23 22 21  9 31   -0.001160613
   -759882.581 9   -580497.77048  20749001.943    20749002.7604   20749007.8654
      -918.240        -715.512
 -17492681.209 9 -13311489.45747  22191003.526    22191004.4134   22191010.4054
      3767.753        2935.911
  -7160201.935 9  -5564775.613 9  20395170.631    20395171.733    20395176.172
      -982.191        -765.344
 -20958608.485 9 -16318266.09948  21366708.819    21366710.0694   21366715.1474
      2037.311        1587.515
  10356177.398 9   8071527.14946  24336953.202    24336954.9434   24336959.7874
     -2895.703       -2256.392
  17808911.778 9  13869556.56645  24440159.992    24440161.2304   24440168.0084
     -3398.177       -2647.930
  -3309821.113 9  -2569724.61548  20609238.596    20609239.4374   20609244.1084
      -545.876        -425.358
   6514644.877 9   5079095.22845  24915189.484    24915189.5344   24915195.3614
     -1768.369       -1377.950
 -16272555.727 9 -12662480.08848  20789164.267    20789165.1594   20789170.3974
      1565.176        1219.618
  -8277826.906 9  -6430935.17446  23868595.551    23868596.9084   23868602.3054
      2124.147        1655.179
  -4135652.231 9  -3207225.76646  24383658.674    24383659.8124   24383665.0974
      3648.133        2842.701
 96 10 17 17 12 59.9980000  0 11 17  1 28  3 26  6 23 22 21  9 31   -0.001169816
   -732165.625 9   -558900.15948  20754276.406    20754277.1504   20754282.2674
      -929.722        -724.459
 -17605584.589 9 -13399466.08747  22169518.745    22169519.6364   22169525.5724
      3758.956        2929.057
  -7130461.198 9  -5541601.033 9  20400830.125    20400831.216    20400835.663
     -1000.813        -779.854
 -21019467.964 9 -16365689.07448  21355127.678    21355128.8904   21355133.9824
      2019.593        1573.709
  10443119.322 9   8139274.03746  24353497.729    24353499.4374   24353504.4324
     -2900.719       -2260.301
  17910861.718 9  13948997.99245  24459560.475    24459561.6794   24459568.3554
     -3398.656       -2648.303
  -3293339.752 9  -2556882.00548  20612374.987    20612375.7544   20612380.4214
      -553.108        -430.993
   6567697.047 8   5120434.55145  24925285.091    24925285.1514   24925290.8854
     -1768.794       -1378.281
 -16319386.249 9 -12698971.39048  20780252.723    20780253.6144   20780258.8634
      1556.476        1212.838
  -8341403.652 9  -6480475.50146  23856497.175    23856498.6104   23856504.1724
      2113.991        1647.266
  -4244980.385 9  -3292416.51346  24362854.148    24362855.3304   24362860.6114
      3640.024        2836.382
 96 10 17 17 13 29.9980000  0 11 17  1 28  3 26  6 23 22 21  9 31   -0.001179034
   -704107.328 9   -537036.56748  20759615.699    20759616.4864   20759621.6004
      -940.531        -732.881
 -17718221.655 9 -13487235.20347  22148084.573    22148085.5094   22148091.3994
      3750.535        2922.495
  -7100159.912 9  -5517989.662 9  20406596.264    20406597.375    20406601.818
     -1018.974        -794.006
 -21079783.699 9 -16412688.35048  21343649.957    21343651.1794   21343656.2484
      2001.670        1559.743
  10530219.269 9   8207144.05446  24370072.613    24370074.1424   24370079.1204
     -2905.776       -2264.241
  18012818.874 9  14028445.03245  24478961.973    24478963.5634   24478970.3594
     -3398.252       -2647.988
  -3276641.340 9  -2543870.26348  20615552.590    20615553.3834   20615558.0434
      -559.688        -436.120
   6620766.749 8   5161787.54145  24935383.762    24935383.9314   24935389.9654
     -1768.900       -1378.364
 -16365948.705 9 -12735253.80748  20771392.155    20771393.0464   20771398.3294
      1547.986        1206.223
  -8404668.307 9  -6529772.63346  23844458.244    23844459.6724   23844465.2454
      2103.907        1639.408
  -4354065.869 9  -3377418.15846  24342095.773    24342097.0364   24342102.3404
      3632.549        2830.558
 96 10 17 17 13 59.9980000  0 11 17  1 28  3 26  6 23 22 21  9 31   -0.001188258
   -675717.755 9   -514914.84048  20765018.039    20765018.8714   20765023.9964
      -952.266        -742.025
 -17830605.257 9 -13574806.81047  22126698.663    22126699.5784   22126705.5114
      3741.658        2915.578
  -7069309.352 9  -5493950.285 9  20412466.944    20412468.054    20412472.490
     -1037.911        -808.762
 -21139550.693 9 -16459260.03748  21332276.724    21332277.9114   21332282.9514
      1982.602        1544.885
  10617488.294 8   8275145.81346  24386679.350    24386680.9344   24386685.9324
     -2912.217       -2269.260
  18114774.106 8  14107890.61545  24498363.447    24498365.1104   24498371.4214
     -3398.928       -2648.515
  -3259745.576 9  -2530704.74248  20618767.804    20618768.5494   20618773.2094
      -566.766        -441.636
   6673836.544 8   5203140.55945  24945482.465    24945482.8094   24945489.1504
     -1769.348       -1378.713
 -16412245.705 9 -12771329.38648  20762582.125    20762583.0304   20762588.3094
      1538.510        1198.839
  -8467623.354 9  -6578828.50746  23832478.436    23832479.8194   23832485.3354
      2092.929        1630.854
  -4462917.648 9  -3462237.69746  24321382.181    24321383.1864   24321388.5604
      3623.928        2823.840
 96 10 17 17 14 29.9980000  0 11 17  1 28  3 26  6 23 22 21  9 31   -0.001197483
   -646997.135 9   -492535.15048  20770483.443    20770484.2374   20770489.3474
      -962.775        -750.214
 -17942745.870 9 -13662189.06947  22105359.058    22105359.9234   22105365.8514
      3733.883        2909.519
  -7037907.632 9  -5469481.430 9  20418442.481    20418443.613    20418448.050
     -1055.932        -822.804
 -21198759.120 9 -16505396.47748  21321009.737    21321010.9374   21321015.9844
      1964.340        1530.655
  10704930.721 9   8343282.70946  24403318.962    24403320.8264   24403325.8024
     -2917.523       -2273.395
  18216723.852 8  14187331.91245  24517764.130    24517765.7154   24517772.0794
     -3398.000       -2647.792
  -3242664.873 9  -2517395.10748  20622018.057    20622018.9034   20622023.5884
      -572.439        -446.056
   6726903.770 8   5244491.62245  24955580.963    24955581.4124   24955587.5904
     -1768.990       -1378.434
 -16458279.129 9 -12807199.57648  20753822.297    20753823.1734   20753828.4484
      1529.922        1192.147
  -8530260.859 9  -6627636.94646  23820559.047    23820560.3634   23820565.7184
      2082.468        1622.702
  -4571519.230 8  -3546862.27746  24300716.140    24300717.0124   24300722.3724
      3615.765        2817.479
 96 10 17 17 14 59.9980000  0 11 17  1 28  3 26  6 23 22 21  9 31   -0.001206714
   -617960.681 9   -469909.36348  20776008.955    20776009.7274   20776014.8054
      -973.385        -758.482
 -18054642.536 9 -13749381.25047  22084065.833    22084066.7114   22084072.6364
      3725.613        2903.075
  -7005960.486 9  -5444587.573 9  20424521.833    20424522.977    20424527.402
     -1074.172        -837.017
 -21257418.677 9 -16551105.22948  21309847.206    21309848.4214   21309853.4704
      1945.945        1516.321
  10792531.717 8   8411543.14346  24419988.940    24419990.7304   24419995.7954
     -2922.797       -2277.504
  18318649.312 8  14266754.27345  24537160.385    24537161.5754   24537167.7624
     -3397.326       -2647.267
  -3225403.688 9  -2503944.84048  20625302.747    20625303.5994   20625308.2864
      -578.541        -450.811
   6779962.323 8   5285835.86045  24965677.506    24965678.2014   24965684.4604
     -1768.593       -1378.124
 -16504053.427 9 -12842867.85248  20745111.735    20745112.6044   20745117.8774
      1521.679        1185.724
  -8592578.789 9  -6676196.36646  23808700.354    23808701.6374   23808706.9654
      2071.694        1614.307
  -4679874.700 8  -3631295.07046  24280096.519    24280097.6034   24280103.0914
      3607.626        2811.137
 96 10 17 17 15 29.9980000  0 11 17  1 28  3 26  6 23 22 21  9 31   -0.001215938
   -588588.413 9   -447021.90048  20781598.314    20781599.1134   20781604.1784
      -984.846        -767.412
 -18166280.435 9 -13836371.78847  22062821.879    22062822.7064   22062828.6484
      3716.908        2896.292
  -6973454.656 9  -5419258.373 9  20430707.483    20430708.640    20430713.065
     -1092.854        -851.575
 -21315515.558 9 -16596375.53048  21298791.727    21298792.9494   21298797.9874
      1927.176        1501.696
  10880311.449 8   8479942.86646  24436692.514    24436694.6284   24436699.8794
     -2929.065       -2282.388
  18420566.911 8  14346170.56345  24556555.065    24556555.5354   24556561.7934
     -3397.178       -2647.152
  -3207951.487 9  -2490345.73248  20628623.770    20628624.6194   20628629.2954
      -584.970        -455.821
   6833025.599 8   5327183.80745  24975774.923    24975775.9294   24975782.1874
     -1768.736       -1378.236
 -16549579.753 9 -12878342.90148  20736448.344    20736449.2164   20736454.4964
      1513.398        1179.271
  -8654548.979 9  -6724484.80346  23796907.844    23796909.0914   23796914.4264
      2059.708        1604.967
  -4787970.391 8  -3715525.45646  24259526.345    24259527.6384   24259533.2544
      3598.566        2804.077
 96 10 17 17 15 59.9980000  0 11 17  1 28  3 26  6 23 22 21  9 31   -0.001225154
   -558881.331 9   -423873.54148  20787251.368    20787252.1804   20787257.2834
      -995.587        -775.782
 -18277654.786 9 -13923156.97547  22041627.996    22041628.8914   22041634.7924
      3707.908        2889.279
  -6940395.575 9  -5393498.070 9  20436998.437    20436999.570    20437004.017
     -1111.177        -865.852
 -21373056.025 9 -16641212.25548  21287842.150    21287843.3494   21287848.3794
      1908.782        1487.363
  10968268.151 9   8548480.47146  24453430.136    24453432.1604   24453437.4424
     -2934.699       -2286.778
  18522476.418 8  14425580.49045  24575947.891    24575948.5404   24575955.0114
     -3396.890       -2646.927
  -3190309.566 9  -2476598.78848  20631981.004    20631981.7884   20631986.4344
      -591.274        -460.733
   6886077.276 8   5368522.70945  24985870.609    24985871.4844   24985877.7244
     -1768.122       -1377.757
 -16594869.095 9 -12913633.28748  20727830.069    20727830.9444   20727836.2234
      1505.885        1173.417
  -8716167.142 9  -6772498.92946  23785182.435    23785183.5344   23785188.8814
      2048.217        1596.013
  -4895787.966 8  -3799539.11646  24239009.414    24239010.6054   24239016.1894
      3589.112        2796.711
 96 10 17 17 16 29.9980000  0 11 17  1 28  3 26  6 23 22 21  9 31   -0.001234365
   -528856.942 9   -400477.93648  20792964.829    20792965.6764   20792970.7674
     -1005.900        -783.818
 -18388750.143 9 -14009724.75547  22020487.340    22020488.1174   22020494.0154
      3698.661        2882.073
  -6906787.132 9  -5367309.698 9  20443393.904    20443395.071    20443399.486
     -1129.142        -879.851
 -21430049.122 9 -16685622.46648  21276996.852    21276997.9384   21277002.9554
      1891.124        1473.603
  11056387.548 9   8617144.88046  24470198.822    24470200.7634   24470206.0524
     -2939.755       -2290.718
  18624377.791 8  14504984.02445  24595339.301    24595339.5354   24595346.5374
     -3396.305       -2646.471
  -3172479.108 9  -2462704.93348  20635374.029    20635374.8184   20635379.4684
      -597.266        -465.402
   6939113.251 8   5409849.36045  24995963.795    24995963.7974   24995970.3004
     -1767.458       -1377.240
 -16639933.281 9 -12948748.23448  20719254.614    20719255.5034   20719260.7874
      1498.522        1167.679
  -8777441.557 9  -6820245.20246  23773522.199    23773523.3234   23773528.6624
      2036.993        1587.267
  -5003318.889 9  -3883329.42446  24218546.931    24218548.2514   24218553.7404
      3579.801        2789.455
 96 10 17 17 16 59.9980000  0 11 17  1 28  3 26  6 23 22 21  9 31   -0.001243608
   -498506.594 9   -376828.32548  20798740.334    20798741.1824   20798746.2754
     -1017.210        -792.631
 -18499560.213 9 -14096070.23547  21999400.952    21999401.6354   21999407.5174
      3688.924        2874.486
  -6872632.667 9  -5340695.844 9  20449893.281    20449894.460    20449898.871
     -1147.626        -894.254
 -21486507.626 9 -16729616.10748  21266253.207    21266254.2614   21266259.2834
      1872.912        1459.412
  11144676.416 9   8685941.33146  24486999.633    24487001.6114   24487006.8794
     -2945.995       -2295.581
  18726281.016 8  14584389.03545  24614730.729    24614731.2494   24614738.2904
     -3397.005       -2647.017
  -3154450.053 9  -2448656.32048  20638804.880    20638805.6604   20638810.3244
      -604.369        -470.937
   6992138.724 8   5451167.80845  25006054.040    25006053.4274   25006060.8354
     -1767.465       -1377.245
 -16684769.944 9 -12983685.88348  20710722.513    20710723.3604   20710728.6634
      1490.764        1161.634
  -8838374.605 9  -6867725.45146  23761927.057    23761928.0374   23761933.4114
      2025.262        1578.126
  -5110558.412 9  -3966892.65546  24198140.195    24198141.2114   24198146.6574
      3569.627        2781.528
 96 10 17 17 17 29.9980000  0 10 17  1 28  3 26  6 23 21  9 31      -0.001252800
   -467835.789 9   -352929.01948  20804576.828    20804577.6544   20804582.7654
     -1027.234        -800.442
 -18610092.041 9 -14182198.90947  21978367.432    21978368.1324   21978374.0044
      3679.982        2867.518
  -6837938.846 9  -5313661.721 9  20456495.347    20456496.486    20456500.912
     -1165.144        -907.904
 -21542433.227 9 -16773194.50348  21255610.969    21255612.0064   21255617.0014
      1855.499        1445.843
  11233139.864 9   8754873.82546  24503834.039    24503835.6854   24503841.0284
     -2951.151       -2299.598
  18828190.20917  14663798.68955  24634123.381    24634124.1065   24634131.3535
     -3396.870       -2646.912
  -3136224.630 9  -2434454.70648  20642273.123    20642273.8434   20642278.5184
      -610.490        -475.706
 -16729384.659 9 -13018450.59148  20702232.580    20702233.4314   20702238.7754
      1483.488        1155.965
  -8898967.182 8  -6914940.40646  23750396.448    23750397.6564   23750403.0404
      2014.385        1569.651
  -5217498.537 9  -4050222.60046  24177790.070    24177791.1884   24177796.6724
      3559.759        2773.838
 96 10 17 17 17 59.9980000  0 10 17  1 28  3 26  6 23 21  9 31      -0.001262009
   -436854.051 9   -328787.42848  20810472.519    20810473.3144   20810478.4204
     -1037.928        -808.775
 -18720331.729 9 -14268099.94447  21957389.479    21957390.1874   21957396.0714
      3669.689        2859.498
  -6802700.677 9  -5286203.430 9  20463200.931    20463202.102    20463206.536
     -1183.802        -922.443
 -21597808.572 9 -16816344.12848  21245073.345    21245074.4074   21245079.4054
      1836.483        1431.026
  11321761.832 9   8823929.84046  24520697.940    24520699.9964   24520705.2514
     -2956.544       -2303.801
  18930098.584 7  14743207.71645  24653516.195    24653516.5914   24653523.6154
     -3396.974       -2646.993
  -3117799.150 9  -2420097.19748  20645779.301    20645780.0804   20645784.7584
      -617.519        -481.184
 -16773758.498 9 -13053027.60448  20693788.492    20693789.3704   20693794.7094
      1475.030        1149.374
  -8959213.665 8  -6961885.67746  23738932.035    23738933.1534   23738938.5694
      2002.287        1560.224
  -5324127.837 9  -4133310.35446  24157499.282    24157500.3324   24157505.8164
      3549.287        2765.678
 96 10 17 17 18 29.9980000  0 10 17  1 28  3 26  6 23 21  9 31      -0.001271216
   -405557.198 9   -304400.29248  20816428.175    20816428.9474   20816434.0244
     -1048.547        -817.050
 -18830281.488 9 -14353775.05247  21936466.673    21936467.4034   21936473.3014
      3660.342        2852.215
  -6766917.150 9  -5258320.183 9  20470010.350    20470011.498    20470015.946
     -1201.681        -936.375
 -21652629.129 9 -16859061.44648  21234641.256    21234642.3914   21234647.4014
      1818.343        1416.891
  11410529.178 9   8893099.11446  24537589.996    24537591.9414   24537597.2064
     -2961.181       -2307.414
  19031998.17417  14822609.84855  24672906.869    24672907.3355   24672914.4085
     -3396.115       -2646.323
  -3099179.252 9  -2405588.19248  20649322.589    20649323.3024   20649327.9984
      -623.892        -486.150
 -16817889.783 9 -13087415.61448  20685390.652    20685391.4614   20685396.8184
      1467.048        1143.154
  -9019103.567 8  -7008553.07646  23727535.736    23727536.4704   23727541.9474
      1990.315        1550.895
  -5430470.282 9  -4216174.56646  24137262.641    24137263.9734   24137269.5874
      3540.268        2758.650
 96 10 17 17 18 59.9980000  0  9 17  1 28  3 26 23 21  9 31         -0.001280434
   -373941.123 9   -279764.40248  20822444.513    20822445.2744   20822450.3884
     -1059.674        -825.720
 -18939953.185 9 -14439233.49247  21915596.778    21915597.5314   21915603.4574
      3650.386        2844.457
  -6730599.440 9  -5230020.690 9  20476921.401    20476922.544    20476927.019
     -1220.111        -950.736
 -21706900.856 9 -16901351.10648  21224313.720    21224314.8364   21224319.8594
      1799.087        1401.886
  11499433.711 9   8962375.31746  24554508.402    24554510.0554   24554515.3754
     -2966.323       -2311.421
  -3080360.061 9  -2390923.89548  20652903.733    20652904.4624   20652909.1874
      -631.211        -491.853
 -16861783.710 9 -13121618.66948  20677037.887    20677038.7164   20677044.0894
      1458.473        1136.472
  -9078633.396 8  -7054939.90246  23716207.154    23716208.2064   23716213.8014
      1977.739        1541.095
  -5536548.317 9  -4298832.76446  24117076.725    24117077.9904   24117083.5274
      3530.920        2751.366
 96 10 17 17 19 29.9980000  0  9 17  1 28  3 26 23 21  9 31         -0.001289645
   -341995.330 9   -254871.60048  20828523.507    20828524.3644   20828529.4854
     -1070.429        -834.101
 -19049317.349 9 -14524452.30047  21894785.335    21894786.1974   21894792.0804
      3640.302        2836.599
  -6693726.419 9  -5201288.487 9  20483938.135    20483939.265    20483943.744
     -1238.391        -964.980
 -21760586.752 9 -16943184.27848  21214097.680    21214098.7984   21214103.7934
      1779.712        1386.789
  11588486.075 9   9031766.68846  24571454.475    24571456.1334   24571461.5814
     -2970.788       -2314.900
  -3061325.252 9  -2376091.58348  20656525.865    20656526.6734   20656531.4004
      -638.030        -497.166
 -16905412.907 9 -13155615.44548  20668735.572    20668736.3874   20668741.7214
      1449.969        1129.846
  -9137781.298 9  -7101029.13846  23704951.787    23704952.7584   23704958.3094
      1965.170        1531.301
  -5642342.531 9  -4381269.78346  24096944.749    24096945.9454   24096951.4084
      3521.725        2744.201
 96 10 17 17 19 59.9980000  0  9 17  1 28  3 26 23 21  9 31         -0.001298862
   -309725.394 9   -229726.21548  20834664.308    20834665.1394   20834670.2874
     -1080.774        -842.162
 -19158386.532 9 -14609441.25547  21874030.137    21874031.0024   21874036.8654
      3631.042        2829.383
  -6656311.241 9  -5172133.824 9  20491058.004    20491059.142    20491063.643
     -1255.899        -978.623
 -21813696.745 9 -16984568.69248  21203991.218    21203992.2844   21203997.2724
      1761.226        1372.384
  11677672.876 9   9101262.83646  24588426.446    24588427.9474   24588433.2694
     -2975.142       -2318.292
  -3042087.763 9  -2361101.33948  20660186.752    20660187.4594   20660192.1754
      -644.423        -502.148
 -16948797.857 9 -13189421.89748  20660479.685    20660480.4744   20660485.8224
      1442.522        1124.043
  -9196558.557 8  -7146829.54746  23693766.964    23693767.7554   23693773.4234
      1953.350        1522.091
  -5747870.053 9  -4463498.99846  24076863.388    24076864.6624   24076870.1454
      3513.478        2737.775
 96 10 17 17 20 29.9980000  0  9 17  1 28  3 26 23 21  9 31         -0.001308088
   -277122.481 9   -204321.36648  20840868.491    20840869.3174   20840874.4554
     -1092.367        -851.195
 -19267155.840 9 -14694196.53447  21853332.101    21853332.8504   21853338.7204
      3620.656        2821.290
  -6618351.949 9  -5142555.173 9  20498281.430    20498282.560    20498287.081
     -1274.266        -992.935
 -21866243.785 9 -17025514.44148  21193991.860    21193992.8974   21193997.8974
      1742.364        1357.686
  11767026.167 9   9170888.69146  24605429.788    24605431.2944   24605436.7474
     -2981.249       -2323.051
  -3022634.894 9  -2345943.26648  20663888.426    20663889.2204   20663893.9434
      -651.970        -508.029
 -16991938.973 9 -13223038.34948  20652270.218    20652271.0074   20652276.3204
      1433.911        1117.333
  -9254961.424 9  -7192338.22146  23682653.133    23682654.0184   23682659.8024
      1940.681        1512.219
  -5853123.310 9  -4545514.51346  24056834.454    24056835.5754   24056841.1374
      3503.582        2730.064
 96 10 17 17 20 59.9980000  0  9 17  1 28  3 26 23 21  9 31         -0.001317335
   -244202.500 9   -178669.45448  20847133.048    20847133.8194   20847138.9774
     -1102.456        -859.057
 -19375641.355 9 -14778730.67947  21832687.917    21832688.7104   21832694.5474
      3611.453        2814.119
  -6579870.026 9  -5112569.276 9  20505604.293    20505605.438    20505609.967
     -1291.444       -1006.320
 -21918247.680 9 -17066036.95948  21184095.793    21184096.8924   21184101.8814
      1724.241        1343.564
  11856535.146 9   9240635.86346  24622463.056    24622464.3724   24622469.7914
     -2986.061       -2326.801
  -3002990.379 9  -2330635.86148  20667626.775    20667627.4874   20667632.1874
      -657.709        -512.500
 -17034846.457 9 -13256472.74948  20644105.243    20644105.9914   20644111.2844
      1426.389        1111.472
  -9313021.601 9  -7237579.87746  23671604.451    23671605.5524   23671611.2854
      1929.713        1503.672
  -5958092.087 9  -4627308.34746  24036859.874    24036860.7364   24036866.2384
      3493.979        2722.581
 96 10 17 17 21 29.9980000  0  9 17  1 28  3 26 23 21  9 31         -0.001326588
   -210971.959 9   -152775.54648  20853456.713    20853457.4474   20853462.5624
     -1112.789        -867.108
 -19483840.560 9 -14863041.72747  21812098.205    21812099.0504   21812104.8784
      3602.018        2806.767
  -6540864.093 9  -5082175.060 9  20513026.878    20513028.021    20513032.584
     -1308.727       -1019.787
 -21969697.445 9 -17106127.69048  21174305.253    21174306.3674   21174311.3604
      1706.050        1329.390
  11946192.675 8   9310498.77846  24639524.057    24639525.6544   24639531.0774
     -2990.859       -2330.539
  -2983175.781 9  -2315195.92048  20671397.335    20671398.0944   20671402.8084
      -663.017        -516.637
 -17077522.280 9 -13289726.63648  20635984.314    20635985.0394   20635990.3284
      1419.123        1105.810
  -9370734.046 9  -7282550.57047  23660622.060    23660623.1094   23660628.9084
      1918.090        1494.616
  -6062762.032 9  -4708869.34046  24016942.013    24016942.6934   24016948.2684
      3484.096        2714.880
 96 10 17 17 21 59.9980000  0  9 17  1 28  3 26 23 21  9 31         -0.001335843
   -177413.572 9   -126626.17648  20859842.708    20859843.4154   20859848.5334
     -1123.462        -875.425
 -19591740.900 9 -14947119.89947  21791565.453    21791566.2674   21791572.1154
      3592.076        2799.020
  -6501328.541 9  -5051368.160 9  20520550.271    20520551.397    20520555.996
     -1326.156       -1033.368
 -22020593.157 9 -17145786.69548  21164620.064    21164621.2214   21164626.2194
      1687.843        1315.202
  12036005.546 8   9380482.75446  24656614.995    24656616.5294   24656621.9594
     -2995.716       -2334.324
  -2963188.835 9  -2299621.68348  20675200.699    20675201.4634   20675206.2044
      -668.512        -520.918
 -17119965.229 9 -13322799.06748  20627907.641    20627908.3974   20627913.6664
      1411.201        1099.637
  -9428086.489 9  -7327240.75447  23649708.042    23649709.2064   23649715.0204
      1906.259        1485.397
  -6167119.253 9  -4790186.64246  23997083.254    23997084.0774   23997089.7524
      3473.718        2706.793
 96 10 17 17 22 29.9980000  0  9 17  1 28  3 26 23 21  9 31         -0.001345094
   -143531.017 9   -100224.20248  20866290.295    20866291.0474   20866296.1754
     -1135.241        -884.603
 -19699339.188 9 -15030962.69348  21771090.157    21771091.0004   21771096.8344
      3581.393        2790.696
  -6461270.066 9  -5020153.783 9  20528173.121    20528174.278    20528178.885
     -1344.252       -1047.469
 -22070935.515 9 -17185014.51148  21155040.225    21155041.3834   21155046.3774
      1668.390        1300.044
  12125954.785 8   9450572.98345  24673731.977    24673733.4014   24673738.7664
     -3000.407       -2337.979
  -2943046.360 9  -2283926.25648  20679033.689    20679034.4424   20679039.1934
      -674.170        -525.327
 -17162168.826 9 -13355684.97848  20619876.541    20619877.3064   20619882.5814
      1402.522        1092.874
  -9485083.341 9  -7371653.86047  23638861.896    23638863.0444   23638868.8384
      1893.617        1475.546
  -6271158.834 9  -4871256.45246  23977285.055    23977285.9544   23977291.4794
      3462.291        2697.889
 96 10 17 17 22 59.9980000  0  9 17  1 28  3 26 23 21  9 31         -0.001354343
   -109326.023 9    -73570.98048  20872799.289    20872800.0464   20872805.2004
     -1145.267        -892.416
 -19806647.766 9 -15114579.74348  21750670.009    21750670.8364   21750676.6804
      3572.111        2783.463
  -6420698.586 9  -4988539.664 9  20535893.648    20535894.794    20535899.426
     -1360.820       -1060.379
 -22120716.865 9 -17223805.18148  21145567.204    21145568.3194   21145573.2844
      1650.030        1285.738
  12216001.261 8   9520738.97545  24690867.615    24690868.7084   24690873.9954
     -3002.894       -2339.917
  -2922764.774 9  -2268122.42748  20682893.111    20682893.9124   20682898.6534
      -678.363        -528.595
 -17204150.586 9 -13388398.03648  20611887.641    20611888.4604   20611893.7124
      1396.007        1087.798
  -9541728.421 9  -7415792.84447  23628082.851    23628083.9054   23628089.6144
      1882.256        1466.693
  -6374889.267 9  -4952085.37045  23957545.693    23957546.6804   23957552.0834
      3452.834        2690.520
 96 10 17 17 23 29.9980000  0  9 17  1 28  3 26 23 21  9 31         -0.001363587
    -74799.353 9    -46667.10948  20879369.562    20879370.2684   20879375.4374
     -1155.910        -900.709
 -19913654.462 9 -15197961.57248  21730307.305    21730308.1634   21730313.9584
      3562.352        2775.859
  -6379609.049 9  -4956521.866 9  20543712.705    20543713.858    20543718.522
     -1377.732       -1073.557
 -22169928.625 9 -17262152.01548  21136202.457    21136203.6334   21136208.5984
      1631.461        1271.268
  12306137.967 8   9590975.27445  24708019.966    24708021.1274   24708026.6984
     -3005.670       -2342.081
  -2902330.748 9  -2252199.82048  20686781.660    20686782.4014   20686787.1364
      -683.266        -532.415
 -17245917.861 9 -13420943.96748  20603939.658    20603940.4414   20603945.6804
      1389.127        1082.437
  -9598001.945 9  -7459642.32347  23617374.363    23617375.4304   23617381.1324
      1870.064        1457.193
  -6478320.615 9  -5032681.21146  23937863.371    23937864.3534   23937869.6744
      3443.170        2682.990
 96 10 17 17 23 59.9980000  0  9 17  1 28  3 26 23 21  9 31         -0.001372825
    -39932.049 9    -19497.79648  20886004.550    20886005.2984   20886010.4524
     -1168.127        -910.229
 -20020348.293 9 -15281099.59848  21710004.162    21710004.9994   21710010.7704
      3550.952        2766.976
  -6337994.363 9  -4924094.855 9  20551631.715    20551632.861    20551637.571
     -1396.208       -1087.954
 -22218563.813 9 -17300049.56448  21126947.472    21126948.6754   21126953.6504
      1611.105        1255.406
  12396376.519 8   9661290.95945  24725191.996    24725193.1594   24725198.5524
     -3009.953       -2345.418
  -2881726.482 9  -2236144.54948  20690702.458    20690703.2624   20690708.0264
      -690.114        -537.751
 -17287455.435 9 -13453310.90548  20596035.319    20596036.0974   20596041.3414
      1380.343        1075.592
  -9653890.652 9  -7503191.93347  23606739.191    23606740.2184   23606745.8824
      1856.050        1446.273
  -6581444.429 9  -5113037.41245  23918239.681    23918240.4434   23918245.6754
      3432.069        2674.339
 96 10 17 17 24 29.9980000  0  9 17  1 28  3 26 23 21  9 31         -0.001382051
     -4719.572 9      7940.47648  20892705.251    20892706.0084   20892711.1954
     -1179.710        -919.255
 -20126722.111 9 -15363988.26548  21689761.955    21689762.7104   21689768.4964
      3540.399        2758.752
  -6295845.760 9  -4891251.812 9  20559652.336    20559653.510    20559658.213
     -1413.899       -1101.739
 -22266605.313 9 -17337484.51248  21117805.551    21117806.6734   21117811.6864
      1591.482        1240.116
  12486724.048 8   9731691.54345  24742384.520    24742385.7334   24742391.3294
     -3013.489       -2348.173
  -2860925.377 9  -2219935.90848  20694660.715    20694661.5674   20694666.3434
      -696.954        -543.081
 -17328759.885 9 -13485496.19248  20588175.242    20588176.1034   20588181.3224
      1372.977        1069.852
  -9709365.183 9  -7546418.81247  23596182.935    23596183.8084   23596189.4534
      1842.046        1435.361
  -6684259.014 9  -5193152.65645  23898674.780    23898675.5724   23898680.5454
      3421.943        2666.449
 96 10 17 17 24 59.9980000  0  9 17  1 28  3 26 23 21  9 31         -0.001391287
     30825.052 9     35637.56748  20899469.194    20899469.9244   20899475.1204
     -1190.292        -927.500
 -20232788.305 9 -15446637.22348  21669578.198    21669578.9514   21669584.7394
      3530.268        2750.858
  -6253181.328 9  -4858006.820 9  20567771.143    20567772.314    20567777.021
     -1430.797       -1114.907
 -22314074.422 9 -17374473.43548  21108772.521    21108773.6154   21108778.6144
      1572.736        1225.509
  12577174.268 8   9802172.17345  24759596.535    24759597.9074   24759603.6654
     -3017.045       -2350.944
  -2839925.669 9  -2203572.50648  20698656.977    20698657.6924   20698662.4604
      -703.394        -548.099
 -17369852.426 9 -13517516.35548  20580355.660    20580356.4604   20580361.6594
      1366.041        1064.447
  -9764434.871 9  -7589330.23647  23585703.484    23585704.3434   23585710.0304
      1828.984        1425.182
  -6786790.880 9  -5273047.59646  23879163.622    23879164.5114   23879169.3624
      3412.893        2659.397
 96 10 17 17 25 29.9980000  0  9 17  1 28  3 26 23 21  9 31         -0.001400533
     66697.868 9     63590.39048  20906295.503    20906296.3154   20906301.5074
     -1201.783        -936.454
 -20338546.036 9 -15529045.82848  21649453.104    21649453.8464   21649459.6744
      3519.761        2742.671
  -6210002.553 9  -4824361.042 9  20575987.839    20575988.980    20575993.685
     -1448.248       -1128.505
 -22360971.192 9 -17411016.37748  21099848.316    21099849.4494   21099854.4364
      1553.206        1210.290
  12667749.959 8   9872750.54645  24776831.968    24776834.0254   24776839.7714
     -3021.841       -2354.681
  -2818723.675 9  -2187051.47848  20702691.552    20702692.3254   20702697.0794
      -710.327        -553.502
 -17410720.162 9 -13549361.34048  20572578.784    20572579.5764   20572584.8024
      1358.048        1058.219
  -9819105.341 9  -7631930.57847  23575299.924    23575300.8704   23575306.5874
      1815.226        1414.462
  -6889024.277 9  -5352709.98646  23859709.352    23859710.0784   23859714.7754
      3402.048        2650.946
 96 10 17 17 25 59.9980000  0  9 17  1 28  3 26 23 21  9 31         -0.001409780
    102911.420 9     91808.71948  20913186.760    20913187.5564   20913192.7164
     -1212.512        -944.815
 -20443989.123 9 -15611209.25048  21629387.930    21629388.6484   21629394.4814
      3509.665        2734.804
  -6166302.886 9  -4790309.378 9  20584303.603    20584304.779    20584309.476
     -1465.132       -1141.661
 -22407286.951 9 -17447106.58748  21091034.732    21091035.8924   21091040.8554
      1534.331        1195.582
  12758471.982 8   9943442.96945  24794096.019    24794097.9364   24794103.7154
     -3026.265       -2358.129
  -2797320.916 9  -2170374.01548  20706764.250    20706765.1294   20706769.8894
      -716.597        -558.387
 -17451354.071 9 -13581024.13148  20564846.381    20564847.1864   20564852.4224
      1350.813        1052.582
  -9873370.935 9  -7674215.43047  23564973.524    23564974.4984   23564980.1334
      1802.326        1404.410
  -6990933.094 9  -5432119.44745  23840316.694    23840317.4714   23840322.1824
      3391.594        2642.801
 96 10 17 17 26 29.9980000  0  9 17  1 28  3 26 23 21  9 31         -0.001419036
    139453.465 9    120283.02948  20920140.491    20920141.3044   20920146.4504
     -1223.123        -953.083
 -20549122.510 9 -15693131.34648  21609381.606    21609382.3964   21609388.2464
      3499.618        2726.975
  -6122092.551 9  -4755859.784 9  20592716.568    20592717.769    20592722.441
     -1481.663       -1154.543
 -22453031.062 9 -17482751.35448  21082330.100    21082331.1034   21082336.0534
      1515.651        1181.027
  12849329.772 8  10014241.17245  24811386.014    24811387.8024   24811393.3254
     -3030.382       -2361.337
  -2775725.376 9  -2153546.32848  20710873.959    20710874.6454   20710879.3794
      -722.442        -562.942
 -17491766.780 9 -13612514.55648  20557156.056    20557156.9034   20557162.1334
      1343.633        1046.987
  -9927247.530 9  -7716197.16947  23554721.132    23554722.0674   23554727.6814
      1790.125        1394.903
  -7092516.946 9  -5511275.70745  23820985.591    23820986.6454   23820991.3594
      3380.939        2634.498
 96 10 17 17 26 59.9980000  0  9 17  1 28  3 26 23 21  9 31         -0.001428297
    176320.729 9    149010.74648  20927156.186    20927156.9424   20927162.0974
     -1234.191        -961.707
 -20653936.469 9 -15774804.54248  21589436.140    21589436.9654   21589442.7824
      3488.455        2718.277
  -6077376.892 9  -4721016.429 9  20601225.682    20601226.894    20601231.578
     -1498.923       -1167.992
 -22498197.117 9 -17517945.69048  21073735.288    21073736.3034   21073741.2354
      1495.714        1165.491
  12940316.633 8  10085139.94645  24828699.961    24828701.8574   24828707.5794
     -3034.910       -2364.865
  -2753956.334 9  -2136583.44748  20715016.583    20715017.1694   20715021.9084
      -728.360        -567.553
 -17531940.472 9 -13643818.72948  20549511.310    20549512.1064   20549517.3144
      1335.054        1040.302
  -9980758.317 9  -7757893.86147  23544538.305    23544539.3034   23544544.8964
      1777.546        1385.101
  -7193758.530 9  -5590165.23546  23801720.093    23801721.0154   23801725.7194
      3368.819        2625.054
 96 10 17 17 27 29.9980000  0  9 17  1 28  3 26 23 21  9 31         -0.001437559
    213498.645 9    177980.53048  20934230.889    20934231.6744   20934236.8514
     -1244.649        -969.856
 -20758439.100 9 -15856235.14248  21569549.901    21569550.7964   21569556.5784
      3477.950        2710.091
  -6032168.584 9  -4685789.196 9  20609828.530    20609829.764    20609834.456
     -1515.180       -1180.660
 -22542780.675 9 -17552686.13048  21065251.414    21065252.3434   21065257.2434
      1476.243        1150.319
  13031407.100 8  10156119.45845  24846034.218    24846035.9124   24846041.7694
     -3037.936       -2367.223
  -2732038.479 9  -2119504.60548  20719187.236    20719188.0354   20719192.7744
      -733.063        -571.218
 -17571880.425 9 -13674940.76648  20541910.985    20541911.8084   20541916.9884
      1327.362        1034.308
 -10033902.023 9  -7799304.51247  23534425.469    23534426.3904   23534431.9914
      1764.994        1375.320
  -7294657.357 9  -5668787.69246  23782519.715    23782520.5604   23782525.3684
      3357.791        2616.461
 96 10 17 17 27 59.9980000  0  9 17  1 28  3 26 23 21  9 31         -0.001446821
    251008.291 9    207208.80448  20941368.722    20941369.5204   20941374.7164
     -1255.187        -978.068
 -20862602.941 9 -15937401.74848  21549728.238    21549729.0714   21549734.8364
      3466.986        2701.548
  -5986460.222 9  -4650172.312 9  20618526.656    20618527.801    20618532.494
     -1531.284       -1193.208
 -22586763.767 9 -17586958.67948  21056881.713    21056882.6224   21056887.5364
      1456.656        1135.057
  13122589.181 8  10227170.37045  24863385.988    24863387.2224   24863393.2234
     -3040.087       -2368.899
  -2709963.685 9  -2102303.47848  20723387.860    20723388.7434   20723393.5154
      -738.023        -575.083
 -17611569.185 9 -13705867.06848  20534358.446    20534359.2804   20534364.4464
      1319.207        1027.954
 -10086659.807 9  -7840414.46447  23524385.985    23524386.9174   23524392.5034
      1752.877        1365.878
  -7395227.241 9  -5747153.82746  23763382.175    23763382.8024   23763387.5954
      3347.579        2608.503
 96 10 17 17 28 29.9980000  0  9 17  1 28  3 26 23 21  9 31         -0.001456110
    288828.509 9    236679.08448  20948565.755    20948566.4654   20948571.6484
     -1266.568        -986.936
 -20966438.557 9 -16018312.59148  21529969.108    21529969.8234   21529975.5714
      3454.934        2692.156
  -5940275.630 9  -4614184.340 9  20627315.286    20627316.458    20627321.146
     -1548.176       -1206.371
 -22630161.772 9 -17620775.31248  21048623.244    21048624.2554   21048629.1914
      1436.052        1119.002
  13213831.802 8  10298268.43245  24880749.495    24880750.1794   24880756.2624
     -3043.221       -2371.341
  -2687741.728 9  -2084987.67748  20727616.668    20727617.4584   20727622.2184
      -743.901        -579.663
 -17651010.657 9 -13736600.68248  20526853.022    20526853.8174   20526858.9844
      1309.878        1020.684
 -10139052.069 9  -7881239.58747  23514415.849    23514417.0254   23514422.5244
      1739.546        1355.490
  -7495500.365 9  -5825288.70246  23744300.699    23744301.4384   23744306.2854
      3336.631        2599.972
 96 10 17 17 28 59.9980000  0  9 17  1 28  3 26 23 21  9 31         -0.001465382
    327021.610 9    266439.92648  20955833.645    20955834.3644   20955839.5564
     -1278.997        -996.621
 -21069884.344 9 -16098919.67348  21510283.908    21510284.7314   21510290.5174
      3442.241        2682.266
  -5893554.007 9  -4577777.901 9  20636206.157    20636207.296    20636211.978
     -1566.014       -1220.271
 -22672908.924 9 -17654084.78648  21040488.705    21040489.7554   21040494.6904
      1414.474        1102.188
  13305200.667 8  10369464.85745  24898136.443    24898137.1684   24898143.2624
     -3047.530       -2374.699
  -2665315.266 9  -2067512.51948  20731884.333    20731885.0774   20731889.8524
      -750.620        -584.899
 -17690146.708 9 -13767096.30248  20519405.682    20519406.4894   20519411.6344
      1299.998        1012.985
 -10191011.933 9  -7921727.78247  23504528.279    23504529.3984   23504534.8784
      1725.048        1344.193
  -7595410.066 9  -5903140.41346  23725288.718    23725289.2874   23725294.1334
      3324.660        2590.644
 96 10 17 17 29 29.9980000  0  9 17  1 28  3 26 23 21  9 31         -0.001474657
    365568.294 9    296476.27448  20963168.844    20963169.5694   20963174.7804
     -1290.367       -1005.481
 -21172973.077 9 -16179248.53348  21490666.757    21490667.5774   21490673.3994
      3430.691        2673.266
  -5846313.350 9  -4540967.020 9  20645195.763    20645196.918    20645201.597
     -1582.963       -1233.478
 -22715037.365 9 -17686912.15848  21032471.843    21032472.9544   21032477.9304
      1394.569        1086.677
  13396688.543 8  10440754.01145  24915546.051    24915546.9944   24915552.7864
     -3051.181       -2377.544
  -2642702.048 9  -2049891.84048  20736187.423    20736188.2174   20736193.0034
      -756.610        -589.566
 -17729007.448 9 -13797377.38948  20512010.695    20512011.4954   20512016.6634
      1291.106        1006.057
 -10242551.651 9  -7961888.59547  23494720.609    23494721.6944   23494727.1624
      1711.553        1333.678
  -7694979.866 9  -5980727.24146  23706341.343    23706341.7584   23706346.6744
      3313.554        2581.990
 96 10 17 17 29 59.9980000  0  9 17  1 28  3 26 23 21  9 31         -0.001483962
    404435.334 9    326762.26048  20970565.034    20970565.7544   20970570.9484
     -1300.563       -1013.426
 -21275730.076 9 -16259318.89248  21471112.760    21471113.5914   21471119.3944
      3420.022        2664.952
  -5798577.156 9  -4503770.008 9  20654279.751    20654280.850    20654285.510
     -1599.410       -1246.293
 -22756592.152 9 -17719292.51648  21024564.192    21024565.3634   21024570.3624
      1375.745        1072.009
  13488285.174 8  10512127.92745  24932975.655    24932977.3154   24932983.0814
     -3055.174       -2380.655
  -2619917.668 9  -2032137.78648  20740523.175    20740523.9464   20740528.7224
      -762.352        -594.041
 -17767613.846 9 -13827460.30248  20504664.126    20504664.9524   20504670.1114
      1282.946         999.698
 -10293711.917 9  -8001753.71446  23484984.865    23484986.1974   23484991.6384
      1698.997        1323.894
  -7794215.320 9  -6058053.53846  23687457.117    23687457.8124   23687462.8364
      3301.894        2572.904
 96 10 17 17 30 29.9980000  0  9 17  1 28  3 26 23 21  9 31         -0.001493278
    443612.692 9    357290.05448  20978020.199    20978020.9524   20978026.1474
     -1310.700       -1021.325
 -21378174.782 9 -16339145.91048  21451618.220    21451619.0094   21451624.8284
      3410.159        2657.267
  -5750340.134 9  -4466182.738 9  20663458.973    20663460.071    20663464.734
     -1615.795       -1259.061
 -22797573.702 9 -17751226.20548  21016765.696    21016766.8154   21016771.8654
      1356.971        1057.380
  13580004.277 8  10583597.25245  24950429.521    24950430.9724   24950436.7664
     -3058.819       -2383.495
  -2596954.680 9  -2014244.56248  20744893.076    20744893.7154   20744898.4464
      -767.766        -598.259
 -17805980.729 9 -13857356.57448  20497363.125    20497363.9734   20497369.1464
      1275.570         993.951
 -10344475.032 9  -8041309.38946  23475324.811    23475326.2484   23475331.6734
      1685.740        1313.564
  -7893078.406 9  -6135089.69646  23668644.211    23668644.8184   23668649.7724
      3289.454        2563.211
 96 10 17 17 30 59.9980000  0  9 17  1 28  3 26 23 21  9 31         -0.001502623
    483061.371 9    388029.26448  20985527.020    20985527.7604   20985533.0074
     -1320.112       -1028.659
 -21480359.468 9 -16418770.31448  21432173.147    21432173.9084   21432179.7084
      3401.214        2650.297
  -5701648.412 9  -4428241.155 9  20672724.673    20672725.793    20672730.476
     -1631.157       -1271.031
 -22838028.661 9 -17782749.55548  21009067.435    21009068.5184   21009073.5304
      1339.241        1043.564
  13671791.991 8  10655120.03645  24967895.919    24967897.5234   24967903.4514
     -3061.194       -2385.346
  -2573872.598 9  -1996258.52948  20749285.523    20749286.1234   20749290.8334
      -771.807        -601.408
 -17844166.854 9 -13887111.99148  20490096.573    20490097.3814   20490102.5714
      1269.223         989.005
 -10394876.621 9  -8080583.34946  23465733.691    23465735.1404   23465740.5594
      1673.417        1303.961
  -7991599.919 9  -6211859.69046  23649896.088    23649896.8214   23649901.8034
      3277.983        2554.272
 96 10 17 17 31 29.9980000  0  8 17  1 28  3 23 21  9 31            -0.001511972
    522824.806 9    419013.73348  20993093.699    20993094.5154   20993099.7644
     -1330.986       -1037.132
 -21582239.206 9 -16498157.09448  21412786.081    21412786.8294   21412792.6094
      3390.500        2641.948
  -5652465.240 9  -4389916.627 9  20682083.898    20682085.041    20682089.732
     -1647.817       -1284.013
 -22877922.860 9 -17813835.95348  21001475.738    21001476.9064   21001481.9084
      1320.127        1028.670
  -2550638.686 9  -1978154.19548  20753706.915    20753707.3974   20753712.0894
      -777.321        -605.705
 -17882130.207 9 -13916693.82148  20482872.342    20482873.1884   20482878.3734
      1261.546         983.023
 -10444866.375 9  -8119536.39546  23456221.213    23456222.4374   23456227.7554
      1659.122        1292.822
  -8089751.596 9  -6288341.49946  23631218.429    23631219.2024   23631224.2414
      3265.151        2544.274
 96 10 17 17 31 59.9980000  0  8 17  1 28  3 23 21  9 31            -0.001521302
    562923.500 9    450259.44948  21000724.277    21000725.0834   21000730.3204
     -1341.959       -1045.682
 -21683789.826 9 -16577287.42148  21393461.586    21393462.3674   21393468.1364
      3379.796        2633.607
  -5602784.679 9  -4351204.522 9  20691537.838    20691538.967    20691543.648
     -1663.899       -1296.545
 -22917237.070 9 -17844470.40748  20993994.523    20993995.6854   20994000.7004
      1300.955        1013.731
  -2527239.752 9  -1959921.26548  20758159.609    20758160.0794   20758164.7564
      -782.194        -609.502
 -17919877.755 9 -13946107.49148  20475689.190    20475690.0744   20475695.2324
      1255.320         978.171
 -10494415.708 9  -8158146.26546  23446792.313    23446793.4284   23446798.8164
      1644.334        1281.299
  -8187522.147 9  -6364526.31846  23612613.455    23612614.0254   23612619.2054
      3253.118        2534.897
 96 10 17 17 32 29.9980000  0  8 17  1 28  3 23 21  9 31            -0.001530604
    603366.701 9    481773.60848  21008420.425    21008421.1854   21008426.3934
     -1353.976       -1055.046
 -21784999.231 9 -16656151.86848  21374202.059    21374202.8334   21374208.5744
      3367.493        2624.021
  -5552615.042 9  -4312111.319 9  20701084.797    20701085.943    20701090.625
     -1680.413       -1309.413
 -22955961.142 9 -17874645.01948  20986625.608    20986626.7404   20986631.7754
      1281.095         998.256
  -2503698.434 9  -1941577.39048  20762639.283    20762639.8284   20762644.5254
      -786.882        -613.155
 -17957430.401 9 -13975369.29048  20468543.185    20468544.0414   20468549.1854
      1248.338         972.731
 -10543509.959 9  -8196401.53146  23437449.666    23437451.0264   23437456.3224
      1628.998        1269.349
  -8284933.787 9  -6440431.47446  23594076.360    23594077.0674   23594082.3724
      3241.168        2525.585
 96 10 17 17 32 59.9980000  0  8 17  1 28  3 23 21  9 31            -0.001539880
    644156.459 9    513557.81148  21016182.600    21016183.2404   21016188.4514
     -1365.654       -1064.146
 -21885835.626 9 -16734725.65248  21355013.518    21355014.2724   21355020.0314
      3354.538        2613.926
  -5501961.416 9  -4272640.978 9  20710723.895    20710725.015    20710729.712
     -1696.911       -1322.268
 -22994102.576 9 -17904365.62848  20979367.559    20979368.6754   20979373.7184
      1261.202         982.755
  -2480024.492 9  -1923130.17048  20767144.105    20767144.8484   20767149.5344
      -791.906        -617.070
 -17994783.382 9 -14004475.51148  20461435.156    20461436.0044   20461441.1544
      1241.297         967.244
 -10592159.646 9  -8234310.38446  23428192.021    23428193.1934   23428198.5054
      1613.963        1257.634
  -8382003.253 9  -6516070.00746  23575604.657    23575605.3834   23575610.6344
      3229.606        2516.576
 96 10 17 17 33 29.9980000  0  8 17  1 28  3 23 21  9 31            -0.001549135
    685283.562 9    545604.87848  21024008.830    21024009.4824   21024014.6934
     -1376.581       -1072.660
 -21986288.742 9 -16813000.78248  21335897.925    21335898.6554   21335904.4154
      3341.898        2604.076
  -5450820.798 9  -4232791.169 9  20720455.704    20720456.771    20720461.462
     -1712.893       -1334.722
 -23031649.518 9 -17933622.99548  20972222.633    20972223.7474   20972228.7834
      1241.402         967.326
  -2456196.609 9  -1904563.00248  20771678.470    20771679.1544   20771683.8284
      -797.205        -621.199
 -18031927.889 9 -14033419.28648  20454366.829    20454367.6704   20454372.7944
      1234.445         961.905
 -10640362.227 9  -8271870.82446  23419019.453    23419020.5444   23419025.8074
      1599.218        1246.144
  -8478721.460 9  -6591434.82046  23557199.789    23557200.5224   23557205.7704
      3217.565        2507.194
 96 10 17 17 33 59.9980000  0  8 17  1 28  3 23 21  9 31            -0.001558359
    726756.606 9    577921.51448  21031900.836    21031901.5714   21031906.7604
     -1387.617       -1081.260
 -22086341.629 9 -16890964.04648  21316858.462    21316859.2104   21316864.9674
      3328.965        2593.999
  -5399182.332 9  -4192553.424 9  20730282.155    20730283.264    20730287.964
     -1729.097       -1347.348
 -23068580.819 9 -17962400.64348  20965194.901    20965195.9484   20965201.0044
      1221.194         951.580
  -2432188.608 9  -1885855.47448  20776247.134    20776247.7344   20776252.4014
      -802.617        -625.416
 -18068845.291 9 -14062186.09448  20447341.612    20447342.5154   20447347.6414
      1227.024         956.123
 -10688110.265 9  -8309077.11346  23409933.197    23409934.3784   23409939.5804
      1584.612        1234.763
  -8575055.952 9  -6666500.63146  23538868.058    23538868.7024   23538873.9494
      3205.274        2497.616
 96 10 17 17 34 29.9980000  0  8 17  1 28  3 23 21  9 31            -0.001567584
    768541.233 9    610480.94248  21039852.352    21039852.9344   21039858.1384
     -1397.802       -1089.196
 -22186029.832 9 -16968643.14648  21297888.379    21297889.1544   21297894.9174
      3317.139        2584.784
  -5347074.447 9  -4151949.897 9  20740197.941    20740199.069    20740203.778
     -1744.586       -1359.418
 -23104916.736 9 -17990714.35448  20958280.363    20958281.4844   20958286.5334
      1201.450         936.195
  -2408037.462 9  -1867036.40748  20780842.814    20780843.5794   20780848.2254
      -807.521        -629.237
 -18105539.074 9 -14090778.65148  20440359.085    20440359.9204   20440365.0584
      1219.374         950.162
 -10735444.992 9  -8345961.30446  23400925.685    23400926.8524   23400932.1434
      1571.241        1224.344
  -8671029.362 9  -6741285.09846  23520604.998    23520605.5444   23520610.8284
      3193.007        2488.057
 96 10 17 17 34 59.9980000  0  8 17  1 28  3 23 21  9 31            -0.001576824
    810633.799 9    643280.32048  21047862.309    21047862.9164   21047868.1364
     -1408.680       -1097.673
 -22285366.229 9 -17046048.10548  21278985.297    21278986.0464   21278991.8244
      3305.104        2575.406
  -5294497.012 9  -4110980.488 9  20750203.121    20750204.214    20750208.930
     -1760.834       -1372.078
 -23140650.307 9 -18018558.70048  20951480.506    20951481.6044   20951486.6494
      1180.400         919.792
  -2383716.661 9  -1848085.14148  20785470.909    20785471.6854   20785476.3134
      -813.992        -634.279
 -18141997.775 9 -14119188.02548  20433421.189    20433422.0494   20433427.2034
      1210.955         943.601
 -10782369.577 9  -8382525.91946  23391996.080    23391997.4394   23392002.7224
      1556.879        1213.152
  -8766631.381 9  -6815780.16546  23502412.549    23502413.0274   23502418.4264
      3179.991        2477.915
 96 10 17 17 35 29.9980000  0  8 17  1 28  3 23 21  9 31            -0.001586069
    853060.039 9    676339.70148  21055935.754    21055936.3854   21055941.6234
     -1420.086       -1106.561
 -22384344.115 9 -17123173.71448  21260150.403    21260151.1744   21260156.9184
      3292.971        2565.951
  -5241434.866 9  -4069633.383 9  20760300.577    20760301.618    20760306.323
     -1776.949       -1384.636
 -23175751.878 9 -18045910.58748  20944800.998    20944802.0064   20944807.0614
      1159.463         903.478
  -2359202.674 9  -1828983.34448  20790135.730    20790136.5414   20790141.1784
      -820.450        -639.312
 -18178203.802 9 -14147400.51948  20426531.474    20426532.2744   20426537.4294
      1202.607         937.096
 -10828865.250 9  -8418756.32346  23383148.239    23383149.5564   23383154.9324
      1542.596        1202.023
  -8861843.977 9  -6889971.79046  23484294.052    23484294.6284   23484300.1124
      3167.092        2467.864
 96 10 17 17 35 59.9980000  0  8 17  1 28  3 23 21  9 31            -0.001595326
    895823.686 9    709661.99848  21064073.482    21064074.0854   21064079.3144
     -1431.291       -1115.292
 -22482964.438 9 -17200020.69548  21241383.584    21241384.3614   21241390.0744
      3281.204        2556.782
  -5187900.322 9  -4027918.171 9  20770487.819    20770488.901    20770493.630
     -1792.516       -1396.766
 -23210242.497 9 -18072786.40548  20938237.604    20938238.6944   20938243.7264
      1139.328         887.788
  -2334515.089 9  -1809746.27448  20794833.573    20794834.4254   20794839.0874
      -825.813        -643.491
 -18214179.421 9 -14175433.46348  20419685.545    20419686.3464   20419691.4904
      1195.221         931.341
 -10874938.983 9  -8454657.91646  23374380.749    23374381.9774   23374387.3764
      1528.449        1190.999
  -8956688.420 9  -6963876.53046  23466245.609    23466246.3204   23466251.7594
      3155.455        2458.796
 96 10 17 17 36 29.9980000  0  8 17  1 28  3 23 21  9 31            -0.001604596
    938934.040 9    743254.45648  21072277.068    21072277.7454   21072282.9824
     -1442.976       -1124.397
 -22581219.925 9 -17276583.39448  21222686.167    21222686.9624   21222692.6444
      3268.862        2547.165
  -5133894.361 9  -3985835.624 9  20780764.919    20780765.912    20780770.643
     -1808.108       -1408.915
 -23244116.205 9 -18099181.51448  20931791.650    20931792.7514   20931797.7874
      1118.835         871.819
  -2309653.359 9  -1790373.50848  20799564.793    20799565.4464   20799570.1464
      -832.011        -648.320
 -18249926.117 9 -14203288.02948  20412883.076    20412883.9844   20412889.1244
      1187.622         925.420
 -10920579.737 9  -8490222.13946  23365695.632    23365696.8054   23365702.2274
      1514.031        1179.764
  -9051179.494 9  -7037505.93546  23448264.646    23448265.3374   23448270.6884
      3143.647        2449.595
 96 10 17 17 36 59.9980000  0  8 17  1 28  3 23 21  9 31            -0.001613871
    982423.299 9    777142.15948  21080552.816    21080553.4804   21080558.7634
     -1455.920       -1134.483
 -22679073.374 9 -17352832.81348  21204065.319    21204066.0524   21204071.7354
      3255.134        2536.468
  -5079396.421 9  -3943369.721 9  20791135.496    20791136.536    20791141.297
     -1824.644       -1421.801
 -23277358.365 9 -18125084.50448  20925465.886    20925466.9744   20925471.9964
      1097.760         855.397
  -2284578.324 9  -1770834.53048  20804336.368    20804337.0574   20804341.7724
      -839.044        -653.801
 -18285419.651 9 -14230945.32648  20406129.004    20406129.8134   20406134.9454
      1179.044         918.736
 -10965758.122 9  -8525426.05546  23357098.372    23357099.6914   23357105.0294
      1498.378        1167.567
  -9145297.602 9  -7110844.70846  23430354.447    23430355.2214   23430360.6164
      3131.027        2439.761
 96 10 17 17 37 29.9980000  0  8 17  1 28  3 23 21  9 31            -0.001623149
   1026290.401 9    811324.28748  21088900.574    21088901.1534   21088906.4204
     -1468.568       -1144.339
 -22776526.762 9 -17428770.50348  21185520.507    21185521.2664   21185526.9754
      3241.712        2526.009
  -5024414.394 9  -3900526.607 9  20801598.208    20801599.256    20801604.070
     -1840.896       -1434.464
 -23309986.157 9 -18150508.76548  20919256.971    20919258.1304   20919263.1384
      1077.461         839.580
  -2259309.846 9  -1751144.81648  20809144.807    20809145.5124   20809150.2384
      -845.544        -658.865
 -18320666.337 9 -14258410.28548  20399421.857    20399422.5944   20399427.7084
      1170.500         912.078
 -11010476.724 9  -8560271.69046  23348588.794    23348590.0004   23348595.3014
      1482.778        1155.411
  -9239042.614 9  -7183892.75446  23412515.245    23412516.1434   23412521.4974
      3118.268        2429.819
 96 10 17 17 37 59.9980000  0  8 17  1 28  3 23 21  9 31            -0.001632441
   1070511.173 9    845782.00248  21097315.499    21097316.1514   21097321.3844
     -1479.779       -1153.074
 -22873603.376 9 -17504414.59848  21167047.521    21167048.1864   21167053.9424
      3229.755        2516.692
  -4968970.038 9  -3857323.240 9  20812148.938    20812149.986    20812154.806
     -1855.827       -1446.099
 -23342028.052 9 -18175476.48848  20913159.671    20913160.7884   20913165.7844
      1058.134         824.520
  -2233874.893 9  -1731325.38848  20813984.989    20813985.6484   20813990.3374
      -850.361        -662.619
 -18355669.665 9 -14285685.60648  20392760.963    20392761.6814   20392766.7914
      1162.588         905.913
 -11054748.964 9  -8594769.50746  23340164.219    23340165.2314   23340170.6214
      1468.306        1144.135
  -9332415.459 9  -7256650.80146  23394747.126    23394747.9154   23394753.2394
      3106.005        2420.264
 96 10 17 17 38 29.9980000  0  8 17  1 28  3 23 21  9 31            -0.001641749
   1115070.304 9    880503.38348  21105794.804    21105795.4984   21105800.7374
     -1490.664       -1161.556
 -22970316.517 9 -17579775.46848  21148643.587    21148644.2804   21148650.0304
      3217.806        2507.381
  -4913073.797 9  -3813767.749 9  20822785.647    20822786.703    20822791.532
     -1870.689       -1457.680
 -23373475.499 9 -18199981.00148  20907175.430    20907176.5304   20907181.5094
      1038.345         809.100
  -2208286.797 9  -1711386.61948  20818854.201    20818854.9264   20818859.5844
      -855.404        -666.548
 -18390425.864 9 -14312768.35748  20386147.018    20386147.8074   20386152.9114
      1154.535         899.638
 -11098587.238 9  -8628929.16746  23331822.171    23331823.0814   23331828.5044
      1454.141        1133.097
  -9425400.045 9  -7329106.31046  23377052.816    23377053.5284   23377058.8674
      3092.683        2409.883
 96 10 17 17 38 59.9980000  0  8 17  1 28  3 23 21  9 31            -0.001651049
   1159962.999 9    915484.66748  21114337.673    21114338.3284   21114343.5814
     -1502.116       -1170.480
 -23066657.440 9 -17654846.29948  21130310.561    21130311.2094   21130316.9804
      3204.827        2497.268
  -4856712.538 9  -3769849.910 9  20833510.809    20833511.912    20833516.758
     -1886.733       -1470.182
 -23404313.347 9 -18224010.50148  20901307.163    20901308.2804   20901313.2444
      1017.388         792.770
  -2182545.800 9  -1691328.71348  20823752.560    20823753.2974   20823757.9264
      -860.596        -670.594
 -18424924.547 9 -14339650.44848  20379582.203    20379582.9124   20379588.0424
      1145.518         892.611
 -11141976.770 9  -8662739.15946  23323565.264    23323566.2464   23323571.7454
      1438.444        1120.865
  -9517952.128 9  -7401224.80646  23359440.751    23359441.4934   23359446.7244
      3077.388        2397.965
 96 10 17 17 39 29.9980000  0  8 17  1 28  3 23 21  9 31            -0.001660335
   1205159.576 9    950702.74748  21122938.326    21122939.0074   21122944.2654
     -1511.661       -1177.918
 -23162637.468 9 -17729635.91948  21112046.126    21112046.7934   21112052.5504
      3193.070        2488.106
  -4799902.537 9  -3725582.401 9  20844321.409    20844322.503    20844327.376
     -1901.251       -1481.494
 -23434546.293 9 -18247568.65048  20895553.999    20895555.1314   20895560.0814
       997.365         777.168
  -2156681.510 9  -1671174.73548  20828674.322    20828675.0834   20828679.7334
      -864.425        -673.578
 -18459189.583 9 -14366350.48248  20373061.816    20373062.5024   20373067.6464
      1138.150         886.870
 -11184925.152 9  -8696205.39246  23315392.365    23315393.3914   23315398.9594
      1424.019        1109.625
  -9610076.320 9  -7473009.88346  23341910.103    23341910.8524   23341916.0154
      3063.548        2387.180
 96 10 17 17 39 59.9980000  0  8 17  1 28  3 23 21  9 31            -0.001669601
   1250654.639 9    986153.42248  21131595.818    21131596.4834   21131601.7174
     -1521.052       -1185.235
 -23258240.673 9 -17804131.90548  21093853.457    21093854.0904   21093859.8184
      3180.705        2478.471
  -4742643.003 9  -3680964.606 9  20855217.553    20855218.629    20855223.524
     -1915.746       -1492.789
 -23464154.398 9 -18270639.91148  20889919.764    20889920.9164   20889925.8704
       976.783         761.130
  -2130694.033 9  -1650924.76548  20833619.594    20833620.3204   20833624.9454
      -867.885        -676.274
 -18493222.852 9 -14392869.91448  20366585.442    20366586.2074   20366591.3514
      1131.259         881.500
 -11227426.632 9  -8729323.40147  23307304.638    23307305.6554   23307311.2154
      1409.622        1098.407
  -9701774.327 9  -7544462.86146  23324460.679    23324461.2974   23324466.3934
      3050.059        2376.669
 96 10 17 17 40 29.9980000  0  8 17  1 28  3 23 21  9 31            -0.001678841
   1296455.103 9   1021842.06648  21140311.339    21140312.0654   21140317.3084
     -1531.718       -1193.546
 -23353441.837 9 -17878314.61548  21075737.286    21075737.9074   21075743.6134
      3166.651        2467.520
  -4684925.145 9  -3635989.677 9  20866200.887    20866202.012    20866206.896
     -1931.479       -1505.049
 -23493120.286 9 -18293210.74248  20884407.807    20884408.9194   20884413.8934
       955.029         744.178
  -2104570.068 9  -1630568.44148  20838590.859    20838591.5214   20838596.1574
      -873.068        -680.313
 -18527039.911 9 -14419220.87448  20360150.303    20360151.0464   20360156.1764
      1123.743         875.644
 -11269461.207 9  -8762077.58347  23299305.631    23299306.7534   23299312.2664
      1393.252        1085.651
  -9793059.038 9  -7615593.80646  23307089.573    23307090.4214   23307095.4984
      3036.133        2365.818
